[[{"header":{"parameterUnit":"m.s-1","parameterCategory":1,"la1":31.0,"la2":29.5877,"lo1":-88.7671,"lo2":-86.6584,"dy":0.0162,"dx":0.0185,"nx":115,"ny":88,"refTime":"2026-02-17T12:00:00:Z","depth":0,"parameterNumber":2,"parameterNumberName":"U-component_of_WINDS"},"data":[0.0,0.0,0.0,0.0,0.0,0.0,0.0,0.0,0.0,0.0,0.0,0.0,0.0,0.0,0.0,0.0,0.0,0.0,0.0,0.0,0.0,0.0,0.0,0.0,0.0,0.0,0.0,0.0,0.0,0.0,0.0,0.0,0.0,0.0,0.0,0.0,0.0,0.0,0.0,0.0,0.0,0.0,0.0,0.0,0.0,0.0,0.0,0.0,0.0,0.0,0.0,0.0,0.0,0.0,0.0,0.0,0.0,0.0,0.0,0.0,0.0,0.0,0.0,0.0,0.0,0.0,0.0,0.0,0.0,0.0,0.0,0.0,0.0,0.0,0.0,0.0,0.0,0.0,0.0,0.0,0.0,0.0,0.0,0.0,0.0,0.0,0.0,0.0,0.0,0.0,0.0,0.0,0.0,0.0,0.0,0.0,0.0,0.0,0.0,0.0,0.0,0.0,0.0,0.0,0.0,0.0,0.0,0.0,0.0,0.0,0.0,0.0,0.0,0.0,0.0,0.0,0.0,0.0,0.0,0.0,0.0,0.0,0.0,0.0,0.0,0.0,0.0,0.0,0.0,0.0,0.0,0.0,0.0,0.0,0.0,0.0,0.0,0.0,0.0,0.0,0.0,0.0,0.0,0.0,0.0,0.0,0.0,0.0,0.0,0.0,0.0,0.0,0.0,0.0,0.0,0.0,0.0,0.0,0.0,0.0,0.0,0.0,0.0,0.0,0.0,0.0,0.0,0.0,0.0,0.0,0.0,0.0,0.0,0.0,0.0,0.0,0.0,0.0,0.0,0.0,0.0,0.0,0.0,0.0,0.0,0.0,0.0,0.0,0.0,0.0,0.0,0.0,0.0,0.0,0.0,0.0,0.0,0.0,0.0,0.0,0.0,0.0,0.0,0.0,0.0,0.0,0.0,0.0,0.0,0.0,0.0,0.0,0.0,0.0,0.0,0.0,0.0,0.0,0.0,0.0,0.0,0.0,0.0,0.0,0.0,0.0,0.0,0.0,0.0,0.0,0.0,0.0,0.0,0.0,0.0,0.0,0.0,0.0,0.0,0.0,0.0,0.0,0.0,0.0,0.0,0.0,0.0,0.0,0.0,0.0,0.0,0.0,0.0,0.0,0.0,0.0,0.0,0.0,0.0,0.0,0.0,0.0,0.0,0.0,0.0,0.0,0.0,0.0,0.0,0.0,0.0,0.0,0.0,0.0,0.0,0.0,0.0,0.0,0.0,0.0,0.0,0.0,0.0,0.0,0.0,0.0,0.0,0.0,0.0,0.0,0.0,0.0,0.0,0.0,0.0,0.0,0.0,0.0,0.0,0.0,0.0,0.0,0.0,0.0,0.0,0.0,0.0,0.0,0.0,0.0,0.0,0.0,0.0,0.0,0.0,0.0,0.0,0.0,0.0,0.0,0.0,0.0,0.0,0.0,0.0,0.0,0.0,0.0,0.0,0.0,0.0,0.0,0.0,0.0,0.0,0.0,0.0,0.0,0.0,0.0,0.0,0.0,0.0,0.0,0.0,0.0,0.0,0.0,0.0,0.0,0.0,0.0,0.0,0.0,0.0,0.0,0.0,0.0,0.0,0.0,0.0,0.0,0.0,0.0,0.0,0.0,0.0,0.0,0.0,0.0,0.0,0.0,0.0,0.0,0.0,0.0,0.0,0.0,0.0,0.0,0.0,0.0,0.0,0.0,0.0,0.0,0.0,0.0,0.0,0.0,0.0,0.0,0.0,0.0,0.0,0.0,0.0,0.0,0.0,0.0,0.0,0.0,0.0,0.0,0.0,0.0,0.0,0.0,0.0,0.0,0.0,0.0,0.0,0.0,0.0,0.0,0.0,0.0,0.0,0.0,0.0,0.0,0.0,0.0,0.0,0.0,0.0,0.0,0.0,0.0,0.0,0.0,0.0,0.0,0.0,0.0,0.0,0.0,0.0,0.0,0.0,0.0,0.0,0.0,0.0,0.0,0.0,0.0,0.0,0.0,0.0,0.0,0.0,0.0,0.0,0.0,0.0,0.0,0.0,0.0,0.0,0.0,0.0,0.0,0.0,0.0,0.0,0.0,0.0,0.0,0.0,0.0,0.0,0.0,0.0,0.0,0.0,0.0,0.0,0.0,0.0,0.0,0.0,0.0,0.0,0.0,0.0,0.0,0.0,0.0,0.0,0.0,0.0,0.0,0.0,0.0,0.0,0.0,0.0,0.0,0.0,0.0,0.0,0.0,0.0,0.0,0.0,0.0,0.0,0.0,0.0,0.0,0.0,0.0,0.0,0.0,0.0,0.0,0.0,0.0,0.0,0.0,0.0,0.0,0.0,0.0,0.0,0.0,0.0,0.0,0.0,0.0,0.0,0.0,0.0,0.0,0.0,0.0,0.0,0.0,0.0,0.0,0.0,0.0,0.0,0.0,0.0,0.0,0.0,0.0,0.0,0.0,0.0,0.0,0.0,0.0,0.0,0.0,0.0,0.0,0.0,0.0,0.0,0.0,0.0,0.0,0.0,0.0,0.0,0.0,0.0,0.0,0.0,0.0,0.0,0.0,0.0,0.0,0.0,0.0,0.0,0.0,0.0,0.0,0.0,0.0,0.0,0.0,0.0,0.0,0.0,0.0,0.0,0.0,0.0,0.0,0.0,0.0,0.0,0.0,0.0,0.0,0.0,0.0,0.0,0.0,0.0,0.0,0.0,0.0,0.0,0.0,0.0,0.0,0.0,0.0,0.0,0.0,0.0,0.0,0.0,0.0,0.0,0.0,0.0,0.0,0.0,0.0,0.0,0.0,0.0,0.0,0.0,0.0,0.0,0.0,0.0,0.0,0.0,0.0,0.0,0.0,0.0,0.0,0.0,0.0,0.0,0.0,0.0,0.0,0.0,0.0,0.0,0.0,0.0,0.0,0.0,0.0,0.0,0.0,0.0,0.0,0.0,0.0,0.0,0.0,0.0,0.0,0.0,0.0,0.0,0.0,0.0,0.0,0.0,0.0,0.0,0.0,0.0,0.0,0.0,0.0,0.0,0.0,0.0,0.0,0.0,0.0,0.0,0.0,0.0,0.0,0.0,0.0,0.0,0.0,0.0,0.0,0.0,0.0,0.0,0.0,0.0,0.0,0.0,0.0,0.0,0.0,0.0,0.0,0.0,0.0,0.0,0.0,0.0,0.0,0.0,0.0,0.0,0.0,0.0,0.0,0.0,0.0,0.0,0.0,0.0,0.0,0.0,0.0,0.0,0.0,0.0,0.0,0.0,0.0,0.0,0.0,0.0,0.0,0.0,0.0,0.0,0.0,0.0,0.0,0.0,0.0,0.0,0.0,0.0,0.0,0.0,0.0,0.0,0.0,0.0,0.0,0.0,0.0,0.0,0.0,0.0,0.0,0.0,0.0,0.0,0.0,0.0,0.0,0.0,0.0,0.0,0.0,0.0,0.0,0.0,0.0,0.0,0.0,0.0,0.0,0.0,0.0,0.0,0.0,0.0,0.0,0.0,0.0,0.0,0.0,0.0,0.0,0.0,0.0,0.0,0.0,0.0,0.0,0.0,0.0,0.0,0.0,0.0,0.0,0.0,0.0,0.0,0.0,0.0,0.0,0.0,0.0,0.0,0.0,0.0,0.0,0.0,0.0,0.0,0.0,0.0,0.0,0.0,0.0,0.0,0.0,0.0,0.0,0.0,0.0,0.0,0.0,0.0,0.0,0.0,0.0,0.0,0.0,0.0,0.0,0.0,0.0,0.0,0.0,0.0,0.0,0.0,0.0,0.0,0.0,0.0,0.0,0.0,0.0,0.0,0.0,0.0,0.0,0.0,0.0,0.0,0.0,0.0,0.0,0.0,0.0,0.0,0.0,0.0,0.0,0.0,0.0,0.0,0.0,0.0,0.0,0.0,0.0,0.0,0.0,0.0,0.0,0.0,0.0,0.0,0.0,0.0,0.0,0.0,0.0,0.0,0.0,0.0,0.0,0.0,0.0,0.0,0.0,0.0,0.0,0.0,0.0,0.0,0.0,0.0,0.0,0.0,0.0,0.0,0.0,0.0,0.0,0.0,0.0,0.0,0.0,0.0,0.0,0.0,0.0,0.0,0.0,0.0,0.0,0.0,0.0,0.0,0.0,0.0,0.0,0.0,0.0,0.0,0.0,0.0,0.0,0.0,0.0,0.0,0.0,0.0,0.0,0.0,0.0,0.0,0.0,0.0,0.0,0.0,0.0,0.0,0.0,0.0,0.0,0.0,0.0,0.0,0.0,0.0,0.0,0.0,0.0,0.0,0.0,-2.6351,0.0,0.0,0.0,0.0,0.0,0.0,0.0,0.0,0.0,0.0,0.0,0.0,0.0,0.0,0.0,0.0,0.0,0.0,0.0,0.0,0.0,0.0,0.0,0.0,0.0,0.0,0.0,0.0,0.0,0.0,0.0,0.0,0.0,0.0,0.0,0.0,0.0,0.0,0.0,0.0,0.0,0.0,0.0,0.0,0.0,0.0,0.0,0.0,0.0,0.0,0.0,0.0,0.0,0.0,0.0,0.0,0.0,0.0,0.0,0.0,0.0,0.0,0.0,0.0,0.0,0.0,0.0,0.0,0.0,0.0,0.0,0.0,0.0,0.0,0.0,0.0,0.0,0.0,0.0,0.0,0.0,0.0,0.0,0.0,0.0,0.0,0.0,0.0,0.0,0.0,0.0,0.0,0.0,0.0,0.0,0.0,0.0,0.0,0.0,0.0,0.0,0.0,0.0,0.0,0.0,0.0,0.0,0.0,0.0,0.0,-2.8516,-2.7733,-2.8039,-2.7472,-2.5873,0.0,0.0,0.0,0.0,0.0,0.0,0.0,0.0,0.0,0.0,0.0,0.0,0.0,0.0,0.0,0.0,0.0,0.0,0.0,0.0,0.0,0.0,0.0,0.0,0.0,0.0,0.0,0.0,0.0,0.0,0.0,0.0,0.0,0.0,0.0,0.0,0.0,0.0,0.0,0.0,0.0,0.0,0.0,0.0,0.0,0.0,0.0,0.0,0.0,0.0,0.0,0.0,0.0,0.0,0.0,0.0,0.0,0.0,0.0,0.0,0.0,0.0,0.0,0.0,0.0,0.0,0.0,0.0,0.0,0.0,0.0,0.0,0.0,0.0,0.0,0.0,0.0,0.0,0.0,0.0,0.0,0.0,0.0,0.0,0.0,0.0,0.0,0.0,0.0,0.0,0.0,0.0,0.0,0.0,0.0,0.0,0.0,0.0,0.0,0.0,0.0,0.0,0.0,0.0,0.0,0.0,0.0,0.0,0.0,0.0,0.0,0.0,-2.8535,-2.7931,-2.6714,0.0,0.0,0.0,0.0,0.0,0.0,0.0,0.0,0.0,0.0,0.0,0.0,0.0,0.0,0.0,0.0,0.0,0.0,0.0,0.0,0.0,0.0,0.0,0.0,0.0,0.0,0.0,0.0,0.0,0.0,0.0,0.0,0.0,0.0,0.0,0.0,0.0,0.0,0.0,0.0,0.0,0.0,0.0,0.0,0.0,0.0,0.0,0.0,0.0,0.0,0.0,0.0,0.0,0.0,0.0,0.0,0.0,0.0,0.0,0.0,0.0,0.0,0.0,0.0,0.0,0.0,0.0,0.0,0.0,0.0,0.0,0.0,0.0,0.0,0.0,0.0,0.0,0.0,0.0,0.0,0.0,0.0,0.0,0.0,0.0,0.0,0.0,0.0,0.0,0.0,0.0,0.0,0.0,0.0,0.0,0.0,0.0,0.0,0.0,0.0,0.0,0.0,0.0,0.0,0.0,0.0,0.0,0.0,0.0,0.0,-2.8867,-3.1083,-3.1057,0.0,-3.0846,0.0,0.0,0.0,0.0,0.0,0.0,0.0,0.0,0.0,0.0,0.0,0.0,0.0,0.0,0.0,0.0,0.0,0.0,0.0,0.0,0.0,0.0,0.0,0.0,0.0,0.0,0.0,0.0,0.0,0.0,0.0,0.0,0.0,0.0,0.0,0.0,0.0,0.0,0.0,0.0,0.0,0.0,0.0,0.0,0.0,0.0,0.0,0.0,0.0,0.0,0.0,0.0,0.0,0.0,0.0,0.0,0.0,0.0,0.0,0.0,0.0,0.0,0.0,0.0,0.0,0.0,0.0,0.0,0.0,0.0,0.0,0.0,0.0,0.0,0.0,0.0,0.0,0.0,0.0,0.0,0.0,0.0,0.0,0.0,0.0,0.0,0.0,0.0,0.0,0.0,0.0,0.0,0.0,0.0,0.0,0.0,0.0,0.0,0.0,0.0,0.0,0.0,0.0,0.0,0.0,0.0,0.0,0.0,0.0,0.0,-2.9688,-3.0701,-3.0197,-3.0159,0.0,0.0,0.0,0.0,0.0,0.0,0.0,0.0,0.0,0.0,0.0,0.0,0.0,0.0,0.0,0.0,0.0,0.0,0.0,0.0,0.0,0.0,0.0,0.0,0.0,0.0,0.0,0.0,0.0,0.0,0.0,0.0,0.0,0.0,0.0,0.0,0.0,0.0,0.0,0.0,0.0,0.0,0.0,0.0,0.0,0.0,0.0,0.0,0.0,0.0,0.0,0.0,0.0,0.0,0.0,0.0,0.0,0.0,0.0,0.0,0.0,0.0,0.0,0.0,0.0,0.0,0.0,0.0,0.0,0.0,0.0,0.0,0.0,0.0,0.0,0.0,0.0,0.0,0.0,0.0,0.0,0.0,0.0,0.0,0.0,0.0,0.0,0.0,0.0,0.0,0.0,0.0,0.0,0.0,0.0,0.0,0.0,0.0,0.0,0.0,0.0,0.0,0.0,0.0,0.0,0.0,0.0,0.0,0.0,0.0,-2.9638,0.0,-3.1166,-3.0388,-2.9911,-2.9848,0.0,0.0,0.0,0.0,0.0,0.0,0.0,0.0,0.0,0.0,0.0,0.0,0.0,0.0,0.0,0.0,0.0,0.0,0.0,0.0,0.0,0.0,0.0,0.0,0.0,0.0,0.0,0.0,0.0,0.0,0.0,0.0,0.0,0.0,0.0,0.0,0.0,0.0,0.0,0.0,0.0,0.0,0.0,0.0,0.0,0.0,0.0,0.0,0.0,0.0,0.0,0.0,0.0,0.0,0.0,0.0,0.0,0.0,0.0,0.0,0.0,0.0,0.0,0.0,0.0,0.0,0.0,0.0,0.0,0.0,0.0,0.0,0.0,0.0,0.0,0.0,0.0,0.0,0.0,0.0,0.0,0.0,0.0,0.0,0.0,0.0,0.0,0.0,0.0,0.0,0.0,0.0,0.0,0.0,0.0,0.0,0.0,0.0,0.0,0.0,0.0,0.0,0.0,0.0,0.0,0.0,0.0,0.0,0.0,-3.1319,-3.1358,-3.3689,-3.2993,-3.1408,0.0,0.0,0.0,0.0,0.0,0.0,0.0,0.0,0.0,0.0,0.0,0.0,0.0,0.0,0.0,0.0,0.0,0.0,0.0,0.0,0.0,0.0,0.0,0.0,0.0,0.0,0.0,0.0,0.0,0.0,0.0,0.0,0.0,0.0,0.0,0.0,0.0,0.0,0.0,0.0,0.0,0.0,0.0,0.0,0.0,0.0,0.0,0.0,0.0,0.0,0.0,0.0,0.0,0.0,0.0,0.0,0.0,0.0,0.0,0.0,0.0,0.0,0.0,0.0,0.0,0.0,0.0,0.0,0.0,0.0,0.0,0.0,0.0,0.0,0.0,0.0,0.0,0.0,0.0,0.0,0.0,0.0,0.0,0.0,0.0,0.0,0.0,0.0,0.0,0.0,0.0,0.0,0.0,0.0,0.0,0.0,0.0,0.0,0.0,0.0,0.0,0.0,0.0,0.0,0.0,0.0,0.0,0.0,0.0,-2.8326,-2.9007,-3.109,-3.4483,-3.1859,-3.0102,0.0,0.0,0.0,0.0,0.0,0.0,0.0,0.0,0.0,0.0,0.0,0.0,0.0,0.0,0.0,0.0,0.0,0.0,0.0,0.0,0.0,0.0,0.0,0.0,0.0,0.0,0.0,0.0,0.0,0.0,0.0,0.0,0.0,0.0,0.0,0.0,0.0,0.0,0.0,0.0,0.0,0.0,0.0,0.0,0.0,0.0,0.0,0.0,0.0,0.0,0.0,0.0,0.0,0.0,0.0,0.0,0.0,0.0,0.0,0.0,0.0,0.0,0.0,0.0,0.0,0.0,0.0,0.0,0.0,0.0,0.0,0.0,0.0,0.0,0.0,0.0,0.0,0.0,0.0,0.0,0.0,0.0,0.0,0.0,0.0,0.0,0.0,0.0,0.0,0.0,0.0,0.0,0.0,0.0,0.0,0.0,0.0,0.0,0.0,0.0,0.0,0.0,0.0,0.0,0.0,0.0,0.0,0.0,0.0,-2.7249,0.0,-3.1656,0.0,-3.0694,-2.8669,0.0,0.0,0.0,0.0,0.0,0.0,0.0,0.0,0.0,0.0,0.0,0.0,0.0,0.0,0.0,0.0,0.0,0.0,0.0,0.0,0.0,0.0,0.0,0.0,0.0,0.0,0.0,0.0,0.0,0.0,0.0,0.0,0.0,0.0,0.0,0.0,0.0,0.0,0.0,0.0,0.0,0.0,0.0,0.0,0.0,0.0,0.0,0.0,0.0,0.0,0.0,0.0,0.0,0.0,0.0,0.0,0.0,0.0,0.0,0.0,0.0,0.0,0.0,0.0,0.0,0.0,0.0,0.0,0.0,0.0,0.0,0.0,0.0,0.0,0.0,0.0,0.0,0.0,0.0,0.0,0.0,0.0,0.0,0.0,0.0,0.0,0.0,0.0,0.0,0.0,0.0,0.0,0.0,0.0,0.0,0.0,0.0,0.0,0.0,0.0,0.0,0.0,0.0,0.0,0.0,0.0,0.0,0.0,-2.7249,-3.1197,-3.2936,-3.3051,-3.1599,-2.9853,-2.7383,0.0,0.0,0.0,0.0,0.0,0.0,0.0,0.0,0.0,0.0,0.0,0.0,0.0,0.0,0.0,0.0,0.0,0.0,0.0,0.0,0.0,0.0,0.0,0.0,0.0,0.0,0.0,0.0,0.0,0.0,0.0,0.0,0.0,0.0,0.0,0.0,0.0,0.0,0.0,0.0,0.0,0.0,0.0,0.0,0.0,0.0,0.0,0.0,0.0,0.0,0.0,0.0,0.0,0.0,0.0,0.0,0.0,0.0,0.0,0.0,0.0,0.0,0.0,0.0,0.0,0.0,0.0,0.0,0.0,0.0,0.0,0.0,0.0,0.0,0.0,0.0,0.0,0.0,0.0,0.0,0.0,0.0,0.0,0.0,0.0,0.0,0.0,0.0,0.0,0.0,0.0,0.0,0.0,0.0,0.0,0.0,0.0,0.0,0.0,0.0,0.0,0.0,0.0,0.0,0.0,0.0,0.0,0.0,0.0,-2.8905,-3.1064,-3.2535,-3.3077,-2.9872,-2.8141,0.0,0.0,0.0,0.0,0.0,0.0,0.0,0.0,0.0,0.0,0.0,0.0,0.0,0.0,0.0,0.0,0.0,0.0,0.0,0.0,0.0,0.0,0.0,0.0,0.0,0.0,0.0,0.0,0.0,0.0,0.0,0.0,0.0,0.0,0.0,0.0,0.0,0.0,0.0,0.0,0.0,0.0,0.0,0.0,0.0,0.0,0.0,0.0,0.0,0.0,0.0,0.0,0.0,0.0,0.0,0.0,0.0,0.0,0.0,0.0,0.0,0.0,0.0,0.0,0.0,0.0,0.0,0.0,0.0,0.0,0.0,0.0,0.0,0.0,0.0,0.0,0.0,0.0,0.0,0.0,0.0,0.0,0.0,0.0,0.0,0.0,0.0,0.0,0.0,0.0,0.0,0.0,0.0,0.0,0.0,0.0,0.0,0.0,0.0,0.0,0.0,0.0,0.0,0.0,0.0,0.0,0.0,0.0,0.0,-3.0185,-3.2172,-3.3528,-3.3995,-3.0835,-2.8867,-2.83,0.0,0.0,0.0,0.0,0.0,0.0,0.0,0.0,0.0,0.0,0.0,0.0,0.0,0.0,0.0,0.0,0.0,0.0,0.0,0.0,0.0,0.0,0.0,0.0,0.0,0.0,0.0,0.0,0.0,0.0,0.0,0.0,0.0,0.0,0.0,0.0,0.0,0.0,0.0,0.0,0.0,0.0,0.0,0.0,0.0,0.0,0.0,0.0,0.0,0.0,0.0,0.0,0.0,0.0,0.0,0.0,0.0,0.0,0.0,0.0,0.0,0.0,0.0,0.0,0.0,0.0,0.0,0.0,0.0,0.0,0.0,0.0,0.0,0.0,0.0,0.0,0.0,0.0,0.0,0.0,0.0,0.0,0.0,0.0,0.0,0.0,0.0,0.0,0.0,0.0,0.0,0.0,0.0,0.0,0.0,0.0,0.0,0.0,0.0,0.0,0.0,0.0,0.0,0.0,0.0,0.0,0.0,0.0,-3.4197,-3.5954,-3.608,-3.4453,-3.2611,-2.9746,0.0,0.0,0.0,0.0,0.0,0.0,0.0,0.0,0.0,0.0,0.0,0.0,0.0,0.0,0.0,0.0,0.0,0.0,0.0,0.0,0.0,0.0,0.0,0.0,0.0,0.0,0.0,0.0,0.0,0.0,0.0,0.0,0.0,0.0,0.0,0.0,0.0,0.0,0.0,0.0,0.0,0.0,0.0,0.0,0.0,0.0,0.0,0.0,0.0,0.0,0.0,0.0,0.0,0.0,0.0,0.0,0.0,0.0,0.0,0.0,0.0,0.0,0.0,0.0,0.0,0.0,0.0,0.0,0.0,0.0,0.0,0.0,0.0,0.0,0.0,0.0,0.0,0.0,0.0,0.0,0.0,0.0,0.0,0.0,0.0,0.0,0.0,0.0,0.0,0.0,0.0,0.0,0.0,0.0,0.0,0.0,0.0,0.0,0.0,0.0,0.0,0.0,0.0,0.0,0.0,0.0,0.0,0.0,0.0,-3.67,-3.9623,-4.0348,-3.8648,-3.5209,-3.2535,0.0,0.0,0.0,0.0,0.0,0.0,0.0,0.0,0.0,0.0,0.0,0.0,0.0,0.0,0.0,0.0,0.0,0.0,0.0,0.0,0.0,0.0,0.0,0.0,0.0,0.0,0.0,0.0,0.0,0.0,0.0,0.0,0.0,0.0,0.0,0.0,0.0,0.0,0.0,0.0,0.0,0.0,0.0,0.0,0.0,0.0,0.0,0.0,0.0,0.0,0.0,0.0,0.0,0.0,0.0,0.0,0.0,0.0,0.0,0.0,0.0,0.0,0.0,0.0,0.0,0.0,0.0,0.0,0.0,0.0,0.0,0.0,0.0,0.0,0.0,0.0,0.0,0.0,0.0,0.0,0.0,0.0,0.0,0.0,0.0,0.0,0.0,0.0,0.0,0.0,0.0,0.0,0.0,0.0,0.0,0.0,0.0,0.0,0.0,0.0,0.0,0.0,0.0,0.0,0.0,0.0,0.0,0.0,-3.5564,-3.923,-4.2278,-4.3386,-4.2431,-3.8992,-3.5725,0.0,0.0,0.0,0.0,0.0,0.0,0.0,0.0,0.0,0.0,0.0,0.0,0.0,0.0,0.0,0.0,0.0,0.0,0.0,0.0,0.0,0.0,0.0,0.0,0.0,0.0,0.0,0.0,0.0,0.0,0.0,0.0,0.0,0.0,0.0,0.0,0.0,0.0,0.0,0.0,0.0,0.0,0.0,0.0,0.0,0.0,0.0,0.0,0.0,0.0,0.0,0.0,0.0,0.0,0.0,0.0,0.0,0.0,0.0,0.0,0.0,0.0,0.0,0.0,0.0,0.0,0.0,0.0,0.0,0.0,0.0,0.0,0.0,0.0,0.0,0.0,0.0,0.0,0.0,0.0,0.0,0.0,0.0,0.0,0.0,0.0,0.0,0.0,0.0,0.0,0.0,0.0,0.0,0.0,0.0,0.0,0.0,0.0,0.0,0.0,0.0,0.0,0.0,0.0,0.0,0.0,0.0,0.0,-3.7349,-4.1409,-4.4074,-4.5411,-4.5364,-4.2708,-3.8639,0.0,0.0,0.0,0.0,0.0,0.0,0.0,0.0,0.0,0.0,0.0,0.0,0.0,0.0,0.0,0.0,0.0,0.0,0.0,0.0,0.0,0.0,0.0,0.0,0.0,0.0,0.0,0.0,0.0,0.0,0.0,0.0,0.0,0.0,0.0,0.0,0.0,0.0,0.0,0.0,0.0,0.0,0.0,0.0,0.0,0.0,0.0,0.0,0.0,0.0,0.0,0.0,0.0,0.0,0.0,0.0,0.0,0.0,0.0,0.0,0.0,0.0,0.0,0.0,0.0,0.0,0.0,0.0,0.0,0.0,0.0,0.0,0.0,0.0,0.0,0.0,0.0,0.0,0.0,0.0,0.0,0.0,0.0,0.0,0.0,0.0,0.0,0.0,0.0,0.0,0.0,0.0,0.0,0.0,0.0,0.0,0.0,0.0,0.0,0.0,0.0,0.0,0.0,0.0,0.0,0.0,0.0,0.0,-3.796,-4.1437,-4.4609,-4.6252,-4.6233,-4.1896,-3.7945,0.0,0.0,0.0,0.0,0.0,0.0,0.0,0.0,0.0,0.0,0.0,0.0,0.0,0.0,0.0,0.0,0.0,0.0,0.0,0.0,0.0,0.0,0.0,0.0,0.0,0.0,0.0,0.0,0.0,0.0,0.0,0.0,0.0,0.0,0.0,0.0,0.0,0.0,0.0,0.0,0.0,0.0,0.0,0.0,0.0,0.0,0.0,0.0,-2.1932,0.0,0.0,0.0,0.0,0.0,0.0,0.0,0.0,0.0,0.0,0.0,0.0,0.0,0.0,0.0,0.0,0.0,0.0,0.0,0.0,0.0,0.0,0.0,0.0,0.0,0.0,0.0,0.0,0.0,0.0,0.0,0.0,0.0,0.0,0.0,0.0,0.0,0.0,0.0,0.0,0.0,0.0,0.0,0.0,0.0,0.0,0.0,0.0,0.0,0.0,0.0,0.0,0.0,0.0,0.0,0.0,0.0,0.0,0.0,-3.9088,-4.3157,-4.501,-4.6118,-4.6328,-4.2393,-3.8899,0.0,0.0,0.0,0.0,0.0,0.0,0.0,0.0,0.0,0.0,0.0,0.0,0.0,0.0,0.0,0.0,0.0,0.0,0.0,0.0,0.0,0.0,0.0,0.0,0.0,0.0,0.0,0.0,0.0,0.0,0.0,0.0,0.0,0.0,0.0,0.0,0.0,0.0,0.0,0.0,0.0,0.0,0.0,0.0,0.0,0.0,0.0,0.0,0.0,0.0,0.0,0.0,0.0,0.0,0.0,0.0,0.0,0.0,0.0,0.0,0.0,0.0,0.0,0.0,0.0,0.0,0.0,0.0,0.0,0.0,0.0,0.0,0.0,0.0,0.0,0.0,0.0,0.0,0.0,0.0,0.0,0.0,0.0,0.0,0.0,0.0,0.0,0.0,0.0,0.0,0.0,0.0,0.0,0.0,0.0,0.0,0.0,0.0,0.0,0.0,0.0,0.0,0.0,0.0,0.0,0.0,0.0,-3.6084,-3.9986,-4.4857,-4.5231,-4.5621,-4.6252,-4.331,-4.0358,-3.7489,0.0,0.0,0.0,0.0,0.0,0.0,0.0,0.0,0.0,0.0,0.0,0.0,0.0,0.0,0.0,0.0,0.0,0.0,0.0,0.0,0.0,0.0,0.0,0.0,0.0,0.0,0.0,0.0,0.0,0.0,0.0,0.0,0.0,0.0,0.0,0.0,0.0,0.0,-2.1096,-2.3785,0.0,0.0,0.0,0.0,0.0,0.0,0.0,0.0,-2.3575,0.0,0.0,0.0,0.0,0.0,0.0,0.0,0.0,0.0,0.0,0.0,0.0,0.0,0.0,0.0,0.0,0.0,0.0,0.0,0.0,0.0,0.0,0.0,0.0,0.0,0.0,0.0,0.0,0.0,0.0,0.0,0.0,0.0,0.0,0.0,0.0,0.0,0.0,0.0,0.0,0.0,0.0,0.0,0.0,0.0,0.0,0.0,0.0,0.0,0.0,0.0,0.0,0.0,0.0,0.0,0.0,-3.6693,-3.6748,-3.9136,-4.4064,-4.4914,-4.5364,-4.543,-4.3615,-4.094,-3.7461,0.0,0.0,0.0,0.0,0.0,0.0,0.0,0.0,0.0,0.0,0.0,0.0,0.0,0.0,0.0,0.0,0.0,0.0,0.0,0.0,0.0,0.0,0.0,0.0,0.0,0.0,0.0,0.0,0.0,0.0,0.0,0.0,0.0,0.0,0.0,0.0,0.0,0.0,0.0,-2.7065,-2.8077,0.0,0.0,0.0,0.0,0.0,0.0,0.0,0.0,-2.3537,0.0,0.0,0.0,0.0,0.0,0.0,0.0,0.0,0.0,0.0,0.0,0.0,0.0,0.0,0.0,0.0,0.0,0.0,0.0,0.0,0.0,0.0,0.0,0.0,0.0,0.0,0.0,0.0,0.0,0.0,0.0,0.0,0.0,0.0,0.0,0.0,0.0,0.0,0.0,0.0,0.0,0.0,0.0,0.0,0.0,0.0,0.0,0.0,0.0,0.0,0.0,0.0,0.0,0.0,0.0,-3.6099,-3.8171,-4.0903,-4.4532,-4.5086,-4.5277,-4.5239,-4.2832,-4.0253,0.0,0.0,0.0,0.0,0.0,0.0,0.0,0.0,0.0,0.0,0.0,0.0,0.0,0.0,0.0,0.0,0.0,0.0,0.0,0.0,0.0,0.0,0.0,0.0,0.0,0.0,0.0,0.0,0.0,0.0,0.0,0.0,0.0,0.0,0.0,0.0,0.0,0.0,0.0,0.0,-2.8771,-2.9739,-3.0235,0.0,0.0,0.0,0.0,0.0,0.0,-2.5944,-2.4836,0.0,0.0,0.0,0.0,0.0,0.0,0.0,0.0,0.0,0.0,0.0,0.0,0.0,0.0,0.0,0.0,0.0,0.0,0.0,0.0,0.0,0.0,0.0,0.0,0.0,0.0,0.0,0.0,0.0,0.0,0.0,0.0,0.0,0.0,0.0,0.0,0.0,0.0,0.0,0.0,0.0,0.0,0.0,0.0,0.0,0.0,0.0,0.0,0.0,0.0,0.0,0.0,0.0,0.0,0.0,-3.5111,-3.9002,-4.2402,-4.5125,-4.5277,-4.5211,-4.4991,-4.2106,-3.9489,0.0,0.0,0.0,0.0,0.0,0.0,0.0,0.0,0.0,0.0,0.0,0.0,0.0,0.0,0.0,0.0,0.0,0.0,0.0,0.0,0.0,0.0,0.0,0.0,0.0,0.0,0.0,0.0,0.0,0.0,0.0,0.0,0.0,0.0,0.0,0.0,0.0,0.0,0.0,0.0,0.0,-3.1713,-3.2355,-3.0866,0.0,0.0,0.0,0.0,-2.8535,-2.8275,0.0,0.0,0.0,0.0,0.0,0.0,0.0,0.0,0.0,0.0,0.0,0.0,0.0,0.0,0.0,0.0,0.0,0.0,0.0,0.0,0.0,0.0,0.0,0.0,0.0,0.0,0.0,0.0,0.0,0.0,0.0,0.0,0.0,0.0,0.0,0.0,0.0,0.0,0.0,0.0,0.0,0.0,0.0,0.0,0.0,0.0,0.0,0.0,0.0,0.0,0.0,0.0,0.0,0.0,0.0,0.0,-3.4884,-3.7831,-4.1266,-4.5048,-4.5277,-4.4934,-4.4159,-4.2335,-3.9508,0.0,0.0,0.0,0.0,0.0,0.0,0.0,0.0,0.0,0.0,0.0,0.0,0.0,0.0,0.0,0.0,0.0,0.0,0.0,0.0,0.0,0.0,0.0,0.0,0.0,0.0,0.0,0.0,0.0,0.0,0.0,0.0,0.0,0.0,0.0,0.0,0.0,0.0,0.0,0.0,0.0,-3.4762,-3.2019,-3.1992,-3.1973,0.0,0.0,-3.0319,-3.1878,-3.2688,0.0,0.0,0.0,0.0,0.0,0.0,0.0,0.0,0.0,0.0,0.0,0.0,0.0,0.0,0.0,0.0,0.0,0.0,0.0,0.0,0.0,0.0,0.0,0.0,0.0,0.0,0.0,0.0,0.0,0.0,0.0,0.0,0.0,0.0,0.0,0.0,0.0,0.0,0.0,0.0,0.0,0.0,0.0,0.0,0.0,0.0,0.0,0.0,0.0,0.0,0.0,0.0,0.0,0.0,0.0,-3.0601,-3.4972,-3.9071,-4.2507,-4.5163,-4.5277,-4.4876,-4.4025,-4.1457,-3.8553,0.0,0.0,0.0,0.0,0.0,0.0,0.0,0.0,0.0,0.0,0.0,0.0,0.0,0.0,0.0,0.0,0.0,0.0,0.0,0.0,0.0,0.0,0.0,0.0,0.0,0.0,0.0,0.0,0.0,0.0,0.0,0.0,0.0,0.0,0.0,0.0,0.0,0.0,0.0,0.0,0.0,0.0,-3.4388,-3.4628,0.0,0.0,0.0,-3.3299,-3.4017,0.0,0.0,0.0,0.0,0.0,0.0,0.0,0.0,0.0,0.0,0.0,0.0,0.0,0.0,0.0,0.0,0.0,0.0,0.0,0.0,0.0,0.0,0.0,0.0,0.0,0.0,0.0,0.0,0.0,0.0,0.0,0.0,0.0,0.0,0.0,0.0,0.0,0.0,0.0,0.0,0.0,0.0,0.0,0.0,0.0,0.0,0.0,0.0,0.0,0.0,0.0,0.0,0.0,0.0,0.0,0.0,0.0,-3.501,-4.0158,-4.3615,-4.522,-4.5277,-4.4781,-4.3682,-4.0864,0.0,0.0,0.0,0.0,0.0,0.0,0.0,0.0,0.0,0.0,0.0,0.0,0.0,0.0,0.0,0.0,0.0,0.0,0.0,0.0,0.0,0.0,0.0,0.0,0.0,0.0,0.0,-1.3653,0.0,0.0,0.0,0.0,0.0,0.0,0.0,0.0,0.0,0.0,0.0,0.0,0.0,0.0,-3.5076,-3.6328,-3.7054,-3.7436,0.0,0.0,-3.5821,-3.584,-3.5878,-3.435,0.0,0.0,0.0,0.0,0.0,0.0,0.0,0.0,0.0,0.0,0.0,0.0,0.0,0.0,0.0,0.0,0.0,0.0,0.0,0.0,0.0,0.0,0.0,0.0,0.0,0.0,0.0,0.0,0.0,0.0,0.0,0.0,0.0,0.0,0.0,0.0,0.0,0.0,0.0,0.0,0.0,0.0,0.0,0.0,0.0,0.0,0.0,0.0,0.0,0.0,0.0,0.0,0.0,0.0,0.0,-3.5048,-4.0158,-4.3615,-4.522,-4.5277,-4.4532,-4.2908,-4.1151,-3.7894,0.0,0.0,0.0,0.0,0.0,0.0,0.0,0.0,0.0,0.0,0.0,0.0,0.0,0.0,0.0,0.0,0.0,0.0,0.0,0.0,0.0,0.0,0.0,0.0,0.0,0.0,0.0,0.0,0.0,0.0,0.0,0.0,0.0,0.0,0.0,0.0,0.0,0.0,0.0,0.0,0.0,-3.6366,-3.6481,-3.8544,-4.0034,0.0,0.0,-3.754,-3.754,-3.946,-3.8534,-3.1293,0.0,0.0,0.0,0.0,0.0,0.0,0.0,0.0,0.0,0.0,0.0,0.0,0.0,0.0,0.0,0.0,0.0,0.0,0.0,0.0,0.0,0.0,0.0,0.0,0.0,0.0,0.0,0.0,0.0,0.0,0.0,0.0,0.0,0.0,0.0,0.0,0.0,0.0,0.0,0.0,0.0,0.0,0.0,0.0,0.0,0.0,0.0,0.0,0.0,0.0,0.0,0.0,0.0,-3.1705,-3.4991,-4.0158,-4.3615,-4.5201,-4.5277,-4.4256,-4.2049,-4.0912,-3.7913,0.0,0.0,0.0,0.0,0.0,0.0,0.0,0.0,0.0,0.0,0.0,0.0,0.0,0.0,0.0,0.0,0.0,0.0,0.0,0.0,0.0,0.0,0.0,0.0,0.0,0.0,0.0,0.0,-1.695,-1.6858,-1.6663,0.0,0.0,0.0,0.0,0.0,0.0,0.0,0.0,0.0,0.0,-3.7073,-3.862,-4.01,0.0,0.0,-4.0463,-3.9871,-3.9374,-3.9202,-3.7636,-3.3249,-3.1045,0.0,0.0,0.0,0.0,0.0,0.0,0.0,0.0,0.0,0.0,0.0,0.0,0.0,0.0,0.0,0.0,0.0,0.0,0.0,0.0,0.0,0.0,0.0,0.0,0.0,0.0,0.0,0.0,0.0,0.0,0.0,0.0,0.0,0.0,0.0,0.0,0.0,0.0,0.0,0.0,0.0,0.0,0.0,0.0,0.0,0.0,0.0,0.0,0.0,0.0,0.0,0.0,-3.1827,-3.5425,-4.0301,-4.3615,-4.5269,-4.5277,-4.4208,-4.1982,-4.1094,-3.8285,0.0,0.0,0.0,0.0,0.0,0.0,0.0,0.0,0.0,0.0,0.0,0.0,0.0,0.0,0.0,0.0,0.0,0.0,0.0,0.0,0.0,0.0,0.0,0.0,0.0,0.0,0.0,0.0,-1.9204,-1.8459,-1.7355,0.0,0.0,0.0,0.0,0.0,0.0,0.0,0.0,0.0,0.0,-3.7712,-3.9976,-4.1227,-4.1781,-4.1533,-4.1074,-4.0559,-3.9995,-3.8877,-3.7158,-3.4434,0.0,0.0,0.0,0.0,0.0,0.0,0.0,0.0,0.0,0.0,0.0,0.0,0.0,0.0,0.0,0.0,0.0,0.0,0.0,0.0,0.0,0.0,0.0,0.0,0.0,0.0,0.0,-2.637,0.0,0.0,-2.5229,0.0,0.0,0.0,0.0,0.0,0.0,0.0,0.0,0.0,0.0,0.0,0.0,0.0,0.0,0.0,0.0,0.0,0.0,0.0,0.0,0.0,0.0,-3.2241,-3.6443,-4.0626,-4.3615,-4.522,-4.5277,-4.4485,-4.2775,-4.1915,-3.9107,-3.4052,0.0,0.0,0.0,0.0,0.0,0.0,0.0,0.0,0.0,0.0,0.0,0.0,0.0,0.0,0.0,0.0,0.0,0.0,0.0,0.0,0.0,0.0,0.0,0.0,0.0,0.0,-2.1115,-1.9873,-1.8283,0.0,0.0,0.0,0.0,0.0,0.0,0.0,0.0,0.0,0.0,-3.5057,-3.8323,-4.0091,-4.1724,-4.245,-4.1648,-4.0177,-3.9107,-3.9126,-3.9011,-3.7846,0.0,0.0,0.0,0.0,0.0,0.0,0.0,0.0,0.0,0.0,0.0,0.0,0.0,0.0,0.0,0.0,0.0,0.0,0.0,0.0,0.0,0.0,0.0,0.0,0.0,0.0,0.0,-3.0579,-3.0464,0.0,0.0,0.0,0.0,0.0,0.0,0.0,0.0,0.0,0.0,0.0,-3.4838,-3.5974,0.0,0.0,0.0,0.0,0.0,0.0,0.0,0.0,0.0,0.0,0.0,0.0,-3.2267,-3.6462,-4.0673,-4.3615,-4.522,-4.5277,-4.4208,-4.1991,-4.1657,-3.8591,-3.2477,0.0,0.0,0.0,0.0,0.0,0.0,0.0,0.0,0.0,0.0,0.0,0.0,0.0,0.0,0.0,0.0,0.0,0.0,0.0,0.0,0.0,0.0,0.0,0.0,0.0,-2.0733,0.0,0.0,0.0,0.0,0.0,0.0,0.0,0.0,0.0,0.0,0.0,-2.9867,-3.349,-3.6623,-3.9164,-4.0864,-4.2068,-4.2698,0.0,0.0,0.0,0.0,0.0,0.0,0.0,0.0,0.0,0.0,0.0,0.0,0.0,0.0,-3.589,-2.8613,-2.6381,-2.5723,-2.6008,0.0,0.0,0.0,0.0,0.0,0.0,0.0,0.0,0.0,0.0,0.0,0.0,0.0,0.0,-3.4284,0.0,-3.2554,0.0,0.0,0.0,0.0,0.0,0.0,0.0,0.0,-3.6498,-3.819,-3.8744,-3.9814,-3.9298,0.0,-3.6252,-3.2974,0.0,0.0,0.0,0.0,0.0,0.0,0.0,0.0,-3.3146,-3.7302,-4.0941,-4.3615,-4.5201,-4.5277,-4.4237,-4.203,-4.0788,-3.7693,-3.2477,-2.9917,-2.7555,0.0,0.0,0.0,0.0,0.0,0.0,0.0,0.0,0.0,0.0,0.0,0.0,0.0,0.0,0.0,0.0,0.0,0.0,0.0,0.0,0.0,0.0,0.0,-2.2472,0.0,0.0,0.0,0.0,0.0,0.0,0.0,0.0,0.0,-2.6867,-2.96,-3.2764,-3.6107,-3.8228,-4.0062,-4.1724,0.0,0.0,0.0,0.0,0.0,0.0,0.0,-3.8935,-3.8648,-3.7941,-3.7415,-3.743,-3.9299,-4.0628,-4.0062,0.0,0.0,-3.3358,-3.148,-3.0995,-3.1315,-3.2723,-3.3908,-3.4189,-3.5559,-3.6764,0.0,0.0,0.0,0.0,0.0,0.0,0.0,0.0,-3.8075,-3.7617,0.0,-3.5859,0.0,0.0,0.0,0.0,0.0,-3.542,0.0,0.0,-4.245,-4.4399,-4.2947,-4.2947,-4.2507,-4.1686,-4.1533,-3.9336,-3.5163,-2.9631,0.0,0.0,0.0,0.0,0.0,0.0,-3.48,-3.8935,-4.1514,-4.3596,-4.522,-4.5277,-4.4504,-4.2794,-3.9546,-3.6661,-3.4262,-3.3184,-3.0464,-2.5726,-2.5306,0.0,0.0,0.0,0.0,0.0,0.0,0.0,0.0,0.0,0.0,0.0,0.0,0.0,0.0,0.0,0.0,0.0,0.0,0.0,0.0,-2.4159,0.0,0.0,0.0,0.0,0.0,0.0,0.0,0.0,0.0,0.0,-3.0555,-3.2657,-3.5362,-3.8591,0.0,0.0,0.0,0.0,-4.2832,-4.2832,-4.2144,-4.1609,-4.1609,-4.1523,-4.1208,-4.0501,0.0,0.0,-3.9498,-4.0614,-4.1291,-3.9655,-4.0253,-4.1093,-4.2576,-4.0447,-3.9164,-3.9895,-3.8854,-3.8431,-3.9077,-3.9312,-3.9527,-4.6003,0.0,0.0,0.0,0.0,-4.1495,-4.3386,-4.6577,-4.4743,-4.3539,-4.266,-4.0597,0.0,0.0,0.0,0.0,0.0,0.0,-3.947,-4.1055,-4.3348,-4.4743,-4.5468,-4.608,-4.5908,-4.5029,-4.3854,-4.2039,-3.9642,-3.6795,-3.2707,-2.758,0.0,0.0,0.0,0.0,-3.5706,-3.9747,-4.182,-4.3615,-4.5258,-4.5277,-4.4494,-4.2832,-4.01,-3.8018,-3.6689,-3.4694,-3.2688,-3.0624,-2.7663,0.0,0.0,0.0,0.0,0.0,0.0,0.0,0.0,0.0,0.0,0.0,0.0,0.0,0.0,0.0,0.0,0.0,0.0,0.0,-2.3231,-2.3995,-2.432,0.0,0.0,0.0,0.0,0.0,0.0,0.0,0.0,0.0,-3.6165,-3.7101,-3.8151,0.0,0.0,-4.203,-4.1896,-4.2889,-4.3643,-4.3663,-4.3433,0.0,-4.3281,-4.2278,-4.1648,-4.203,-4.2843,-4.3446,-4.3561,-4.4057,-4.4292,-4.3754,-4.3936,-4.429,-4.453,-4.2294,-4.0386,-4.0433,-4.0592,-4.0992,-4.1788,-4.245,-4.3008,-5.1926,-4.7971,-4.4666,-4.4341,-4.5965,-4.5851,-4.7494,-5.0225,-4.9041,-4.8067,-4.7169,-4.5345,-4.2832,-3.9909,-3.84,0.0,0.0,0.0,-4.2507,-4.4322,-4.5468,-4.6557,-4.7532,-4.8067,-4.8048,-4.7494,-4.6146,-4.4647,-4.2995,-4.1991,-3.8782,-3.3559,0.0,0.0,-3.2745,-3.4866,-3.7559,-4.0673,-4.2431,-4.394,-4.525,-4.4647,-4.3825,-4.2794,-4.0673,-3.9107,-3.8228,-3.6451,-3.4923,-3.3711,-3.0319,-2.7574,0.0,0.0,0.0,0.0,0.0,0.0,0.0,0.0,0.0,0.0,0.0,-1.7849,-1.5089,0.0,0.0,0.0,-2.0829,-2.3346,-2.5664,-2.6186,0.0,0.0,0.0,0.0,0.0,0.0,0.0,-3.375,-3.5564,-3.7502,-4.0138,-4.0788,-4.117,-4.1695,-4.2374,-4.2851,-4.2985,0.0,-4.4121,-4.4475,-4.4513,-4.4513,-4.4513,-4.3673,-4.3186,-4.3741,-4.4298,-4.4806,-4.5295,-4.5495,-4.554,-4.5568,-4.5577,-4.5594,-4.5594,-4.3876,-4.2514,-4.2533,-4.2934,-4.3489,-4.3989,-4.422,-4.447,-5.674,-5.6224,-5.0856,-4.9041,-4.974,-5.0474,-5.0818,-5.0856,-5.1589,-5.1372,-5.0455,-4.9664,-4.7952,-4.5555,-4.3252,0.0,-4.3558,-4.5086,-4.6233,-4.7054,-4.8602,-4.9301,-4.9301,-4.9224,-4.9205,-4.9175,-4.8315,-4.7111,-4.564,-4.546,-4.3806,-4.0692,-3.8276,-3.6997,-3.6901,-3.8381,-4.0024,-4.1705,-4.3223,-4.4418,-4.525,-4.3673,-4.2794,-4.2775,-4.1113,-3.9804,-3.903,-3.8094,-3.6891,-3.5316,-3.286,-3.007,-2.6956,0.0,0.0,0.0,0.0,0.0,0.0,0.0,0.0,0.0,0.0,0.0,0.0,0.0,0.0,0.0,-2.5409,0.0,-2.9025,-2.9822,0.0,0.0,0.0,-2.8981,-3.0701,-3.2279,-3.4151,-3.6615,0.0,0.0,-4.2698,-4.3673,-4.4197,-4.4197,-4.352,-4.3558,-4.5097,-4.459,-4.4388,-4.5258,-4.5316,-4.5277,-4.5201,-4.5144,-4.5088,-4.5197,-4.5408,-4.538,-4.541,-4.5476,-4.5504,-4.5513,-4.5568,-4.5594,-4.5594,-4.546,-4.5594,-4.5421,-4.5479,-4.5537,-4.546,-4.4951,-4.4509,-5.8154,-5.7485,-5.6071,-5.5231,-5.4842,-5.5021,-5.5097,-5.5059,-5.4677,-5.3645,-5.2174,-5.1353,-5.0302,-4.9079,-4.8468,-4.8678,-4.9526,-4.9927,-5.055,-5.1257,-5.1104,-5.1009,-5.099,-5.034,-5.0015,-4.9958,-4.9175,-4.8582,-4.8143,-4.6863,-4.5507,-4.4093,-4.2841,-4.1275,-3.9499,-4.0406,-4.1724,-4.3386,-4.3796,-4.4418,-4.5211,-4.3673,-4.2794,-4.2775,-4.054,-3.9221,-3.8973,-3.757,-3.6596,-3.6137,-3.3138,-3.1057,-3.03,-2.6039,0.0,0.0,0.0,0.0,0.0,0.0,0.0,0.0,0.0,-2.2305,-1.7657,0.0,-2.4503,0.0,-2.6937,-2.9242,-3.0739,-3.1018,0.0,0.0,-3.352,-3.4323,-3.6642,-3.7254,-3.8228,-4.01,-4.1437,-4.2584,-4.3586,-4.5,-4.5916,-4.5889,-4.522,-4.4857,-4.525,-4.5144,-4.5277,-4.5965,-4.566,-4.5297,-4.5277,-4.5277,-4.5317,-4.5379,-4.5419,-4.5419,-4.5476,-4.5522,-4.5596,-4.5577,-4.5586,-4.5594,-4.5594,-4.5594,-4.5594,-4.5594,-4.5594,-4.5594,-4.5594,-4.5402,-4.5278,-5.9071,-5.9014,-5.9014,-5.8727,-5.823,-5.7485,-5.7179,-5.7141,-5.6702,-5.5747,-5.4409,-5.3244,-5.2231,-5.1429,-5.141,-5.1677,-5.2136,-5.2136,-5.2365,-5.2766,-5.2346,-5.1945,-5.1582,-5.1092,-5.0684,-5.0283,-4.9843,-4.9442,-4.9071,-4.8124,-4.7054,-4.5831,-4.5354,-4.4246,-4.2603,-4.2584,-4.307,-4.3987,-4.4388,-4.4819,-4.5231,-4.3673,-4.2603,-4.2202,-4.052,-3.9221,-3.8438,-3.7512,-3.6672,-3.5908,-3.3406,-3.1821,-3.1465,-2.8096,-2.5747,0.0,0.0,0.0,0.0,0.0,0.0,0.0,0.0,0.0,0.0,0.0,-2.6791,-2.7873,-2.9917,-3.2019,-3.4063,-3.456,-3.5507,-3.7283,-3.7474,-3.8171,-3.9928,-4.0119,-4.075,-4.2412,-4.3386,-4.4208,-4.5019,-4.626,-4.691,-4.6577,-4.6118,-4.5831,-4.5793,-4.5545,-4.5468,-4.587,-4.5583,-4.5277,-4.5277,-4.5277,-4.5317,-4.5398,-4.5409,-4.5438,-4.5485,-4.5541,-4.5568,-4.5586,-4.5594,-4.5594,-4.5594,-4.5594,-4.5594,-4.5594,-4.5594,-4.5594,-4.5594,-4.5594,-4.5594,-5.9529,-6.0217,-6.0346,-6.0403,-6.0274,-5.8822,-5.8154,-5.8058,-5.8058,-5.7504,-5.6492,-5.5059,-5.3951,-5.3148,-5.3129,-5.3129,-5.3129,-5.3129,-5.3129,-5.3129,-5.3015,-5.2594,-5.1926,-5.1697,-5.1219,-5.0474,-5.0359,-4.9939,-4.9251,-4.9148,-4.8315,-4.6882,-4.6615,-4.6137,-4.543,-4.4609,-4.4159,-4.4178,-4.4914,-4.5277,-4.5277,-4.3768,-4.2545,-4.1667,-4.0673,-3.9374,-3.7789,-3.7483,-3.67,-3.5248,-3.3711,-3.2508,-3.1675,-3.0121,-2.8784,0.0,-2.709,0.0,0.0,0.0,0.0,0.0,0.0,0.0,0.0,-2.767,-2.9765,-3.2012,-3.37,-3.5572,-3.7808,-3.882,-3.9623,-4.0348,-4.0645,-4.1074,-4.1705,-4.1915,-4.2584,-4.414,-4.4991,-4.5755,-4.6538,-4.733,-4.7483,-4.6863,-4.6538,-4.6424,-4.6405,-4.5793,-4.5364,-4.5392,-4.5364,-4.5317,-4.5298,-4.5328,-4.5348,-4.5418,-4.5438,-4.5419,-4.5495,-4.5532,-4.5541,-4.5577,-4.5594,-4.5594,-4.5594,-4.5594,-4.5594,-4.5594,-4.5594,-4.5594,-4.5594,-4.5594,-4.5594,-5.9205,-5.9415,-6.0122,-6.0403,-6.0384,-6.0045,-5.9529,-5.888,-5.888,-5.802,-5.6606,-5.6262,-5.567,-5.4944,-5.4925,-5.4906,-5.4925,-5.4906,-5.4906,-5.4868,-5.4199,-5.376,-5.355,-5.2251,-5.1513,-5.1302,-5.0646,-5.0225,-5.0054,-4.9415,-4.8938,-4.8563,-4.7207,-4.6443,-4.6233,0.0,0.0,0.0,-4.5211,-4.5277,-4.5258,-4.4303,-4.3376,-4.2545,-4.0387,0.0,-3.7712,-3.6413,-3.5534,-3.5182,-3.4273,0.0,0.0,0.0,0.0,0.0,0.0,0.0,0.0,0.0,0.0,0.0,-3.2191,-3.1274,-2.9555,-3.2669,-3.5297,-3.6413,-3.7445,-3.8534,-3.9699,-4.054,-4.1094,-4.1285,-4.2488,-4.3357,-4.3529,-4.4131,-4.4972,-4.5889,-4.6194,-4.6596,-4.7368,-4.7693,-4.7731,-4.7463,-4.694,-4.6538,-4.6481,-4.5793,-4.5545,-4.6099,-4.5721,-4.5388,-4.5369,-4.538,-4.54,-4.5477,-4.5495,-4.5514,-4.554,-4.5577,-4.5577,-4.5594,-4.5594,-4.5594,-4.5594,-4.5594,-4.5594,-4.5594,-4.5594,-4.5594,-4.5594,-4.5594,-4.5594,-5.9491,0.0,-6.0045,-6.0403,0.0,-6.0403,-6.0141,-5.9739,-5.9739,-5.9014,-5.7791,-5.695,-5.6358,-5.5976,-5.5575,-5.539,-5.539,-5.539,-5.539,-5.5371,-5.4963,-5.4505,-5.4085,-5.3225,-5.2403,-5.1589,-5.1162,-5.0722,-5.0302,-4.9882,-4.95,-4.9079,-4.822,-4.757,-4.7139,-4.6748,-4.6137,-4.5297,-4.5277,-4.5277,-4.5258,-4.4456,-4.3414,-4.2183,-4.0922,0.0,0.0,0.0,0.0,0.0,0.0,0.0,0.0,0.0,0.0,-3.2688,-3.3012,-3.307,-3.2718,-3.3433,-3.4464,-3.5744,-3.6995,-3.6632,-3.4109,-3.6279,-3.8247,-3.9451,-3.9986,-4.075,-4.1982,-4.2507,-4.2908,-4.3367,-4.4494,-4.5229,-4.5324,-4.6003,-4.6691,-4.7054,-4.7131,-4.733,-4.7731,-4.7788,-4.7597,-4.7226,-4.6776,-4.6366,-4.5965,-4.5583,-4.5498,-4.5882,-4.5684,-4.5418,-4.5419,-4.54,-4.541,-4.5438,-4.5448,-4.5466,-4.5531,-4.5559,-4.5568,-4.5586,-4.5594,-4.5594,-4.5594,-4.5594,-4.5594,-4.5594,-4.5594,-4.5594,-4.5594,-4.5594,-4.5594,-5.9969,-5.9396,-6.0102,-6.0403,-6.0403,-6.0403,-6.0403,-6.0403,0.0,0.0,0.0,-5.7638,-5.6969,-5.6811,-5.6129,-5.5747,-5.5613,-5.5613,-5.5556,-5.539,-5.539,-5.5021,-5.4333,-5.4161,-5.3378,-5.2059,-5.1723,-5.1226,-5.055,-5.0378,-4.9977,-4.9358,-4.9175,-4.8659,-4.7845,-4.7788,-4.7131,-4.5812,-4.5602,-4.543,-4.5307,-4.4609,-4.3491,-4.1972,-4.18,-4.0654,-3.8476,-3.8075,-3.7292,-3.5935,-3.5103,-3.4961,-3.5592,-3.5802,-3.6489,-3.7789,-3.8075,-3.7941,-3.7436,-3.7999,-3.8438,-3.8591,-4.0807,-4.1094,-3.8572,-3.9183,-4.0368,-4.203,-4.2163,-4.2851,-4.4503,-4.4656,-4.4942,-4.5679,-4.6347,-4.6729,-4.6757,-4.7177,-4.7521,-4.775,-4.7597,-4.7635,-4.7769,-4.7616,-4.7406,-4.6882,-4.6653,-4.6309,-4.5681,-4.5451,-4.5357,-4.5426,-4.5437,-4.5429,-4.5429,-4.5448,-4.5429,-4.5467,-4.5457,-4.5467,-4.5504,-4.5513,-4.5531,-4.5586,-4.5594,-4.5594,-4.5594,-4.5594,-4.5594,-4.5594,-4.5594,-4.5594,-4.5594,-4.5594,-4.5594,-6.0332,-6.0236,-6.0365,-6.0403,-6.0403,-6.0403,-6.0403,-6.0403,-6.0403,-5.9911,-5.9076,-5.8847,-5.8364,-5.7714,-5.76,-5.7141,-5.6454,-5.6434,-5.6071,-5.539,-5.539,-5.5345,-5.5193,-5.4467,-5.3989,-5.3645,-5.2289,-5.1532,-5.1353,-5.0665,-5.0245,-5.0054,-4.9454,-4.8678,-4.7865,-4.7788,-4.7674,-4.7444,-4.671,-4.6003,-4.5316,-4.5182,-4.4666,-4.3682,-4.2966,-4.2106,-4.0998,-3.9584,-3.8706,-3.8457,-3.7636,-3.7234,-3.7368,-3.8037,-3.8591,-3.8839,-3.9527,-4.0196,-4.0731,-4.0912,-4.1285,-4.2087,-4.373,-4.3683,-4.1246,-4.1762,-4.2966,-4.4562,-4.4723,-4.5449,-4.7024,-4.7158,-4.7139,-4.733,-4.7502,-4.7597,-4.7521,-4.7092,-4.7073,-4.7693,-4.7131,-4.7024,-4.754,-4.7169,-4.6986,-4.7322,-4.6978,-4.6502,-4.6381,-4.5809,-4.5436,-4.5399,-4.5438,-4.5476,-4.5495,-4.5531,-4.5559,-4.5587,-4.5568,-4.5568,-4.5577,-4.5577,-4.5558,-4.5594,-4.5594,-4.5594,-4.5594,-4.5594,-4.5594,-4.5594,-4.5594,-4.5594,-4.5594,-4.5594,-4.5594,-6.165,-6.0518,-6.0848,-6.079,-6.0365,-5.9892,-5.9701,-5.9644,-5.9224,-5.9357,-5.972,-5.8861,-5.8249,-5.7829,-5.695,-5.6568,-5.6581,-5.6148,-5.5976,-5.6014,-5.5594,-5.539,-5.5365,-5.4982,-5.4562,-5.4065,-5.3339,-5.2499,-5.1639,-5.1181,-5.0779,-5.0302,-4.992,-4.9557,-4.9175,-4.9144,-4.8945,-4.8506,-4.7646,-4.6806,-4.5984,-4.5965,-4.5335,-4.4045,-4.3624,-4.3061,-4.224,-4.1017,-4.0348,-4.0348,-3.9565,-3.9298,-3.9737,-4.0138,-4.0578,-4.1036,-4.1437,-4.18,-4.2163,-4.3042,-4.3921,-4.4743,-4.5946,-4.6194,-4.5029,-4.5267,-4.5831,-4.6577,-4.6653,-4.6948,-4.7731,-4.7788,-4.7616,-4.7139,-4.7502,-4.7597,-4.7207,-4.7245,-4.7368,-4.7654,-4.7054,-4.6642,-4.7054,-4.6748,-4.6615,-4.7054,-4.7076,-4.7253,-4.7274,-4.6655,-4.5966,-4.5573,-4.5476,-4.5532,-4.555,-4.5577,-4.5594,-4.5594,-4.5594,-4.5594,-4.5594,-4.5594,-4.5594,-4.5594,-4.5594,-4.5594,-4.5594,-4.5594,-4.5594,-4.5594,-4.5594,-4.5594,-4.5594,-4.5594,-4.5594,-6.2777,-6.1039,-6.1631,-6.1421,-6.0599,-5.9759,-5.9382,-5.9319,-5.8555,-5.8899,-5.9778,-5.8536,-5.7886,-5.7753,-5.653,-5.6301,-5.674,-5.6243,-5.6301,-5.6759,-5.6033,-5.567,-5.5632,-5.5504,-5.504,-5.4428,-5.4199,-5.3435,-5.2289,-5.1983,-5.1448,-5.0646,-5.0397,-5.0302,-5.0302,-5.0302,-4.9996,-4.9366,-4.8716,-4.7845,-4.6844,-4.6806,-4.6175,-4.498,-4.4866,-4.4465,-4.3654,-4.2813,-4.2259,-4.2049,-4.1304,-4.1227,-4.1991,-4.2068,-4.2526,-4.3482,-4.3634,-4.3711,-4.3997,-4.5105,-4.6118,-4.6748,-4.7578,-4.7998,-4.7837,-4.7979,-4.8086,-4.8086,-4.7845,-4.7837,-4.8048,-4.7914,-4.7521,-4.691,-4.7387,-4.754,-4.6997,-4.7245,-4.7616,-4.7654,-4.7024,-4.6557,-4.6729,-4.6787,-4.6959,-4.7267,-4.775,-4.8146,-4.8139,-4.7577,-4.682,-4.6262,-4.5782,-4.555,-4.5586,-4.5594,-4.5594,-4.5594,-4.5594,-4.5594,-4.5594,-4.5594,-4.5594,-4.5594,-4.5594,-4.5594,-4.5594,-4.5594,-4.5594,-4.5594,-4.5594,-4.5594,-4.5594,-4.5594,-4.5594,-6.2892,-6.2701,-6.2739,-6.228,-6.1421,-6.0618,-6.0236,-6.0122,-5.9357,-5.9038,-5.9109,-5.8288,-5.7867,-5.7886,-5.7638,-5.7562,-5.7695,-5.7695,-5.7657,-5.7638,-5.6874,-5.6473,-5.6377,-5.5766,-5.5365,-5.5154,-5.4505,-5.4046,-5.3702,-5.3015,-5.227,-5.1455,-5.0703,-5.0321,-5.0321,-5.0302,-5.0264,-5.0187,-5.0111,-4.9289,-4.7788,-4.7674,-4.7616,-4.7463,-4.7406,-4.7043,-4.6099,-4.5373,-4.459,-4.3796,-4.3032,-4.2956,-4.3663,-4.3777,-4.4494,-4.5965,-4.6118,-4.65,-4.7196,-4.7483,-4.7559,-4.7712,-4.8449,-4.8621,-4.7998,-4.8563,-4.8984,-4.8869,-4.8277,-4.82,-4.8804,-4.8353,-4.7884,-4.7723,-4.7788,-4.775,-4.7578,-4.7035,-4.692,-4.7712,-4.7081,-4.6787,-4.7425,-4.7616,-4.7982,-4.8649,-4.8862,-4.9058,-4.9074,-4.8481,-4.7972,-4.7587,-4.6673,-4.5778,-4.5691,-4.5594,-4.5594,-4.5594,-4.5594,-4.5594,-4.5594,-4.5594,-4.5594,-4.5594,-4.5594,-4.5594,-4.5594,-4.5594,-4.5594,-4.5594,-4.5594,-4.5594,-4.5594,-4.5594,-4.5594,-6.3369,-6.2968,-6.3446,-6.3159,-6.2261,-6.0962,-6.0403,-6.0288,-5.8956,-5.8383,-5.8288,-5.7504,-5.7122,-5.7116,-5.6645,-5.6683,-5.7103,-5.7122,-5.7428,-5.7829,-5.7523,-5.7103,-5.6568,-5.6282,-5.5861,-5.5422,-5.504,-5.46,-5.4027,-5.3225,-5.2633,-5.2251,-5.1486,-5.1085,-5.1016,-5.0569,-5.0302,-5.0302,-5.0302,-4.9958,-4.9328,-4.8812,-4.8315,-4.7845,-4.7788,-4.7654,-4.7292,-4.694,-4.6604,-4.626,-4.5935,-4.5897,-4.6222,-4.6241,-4.6547,-4.7215,-4.7253,-4.7406,-4.7769,-4.7788,-4.8017,-4.8525,-4.888,-4.9117,-4.9289,-4.9614,-4.9805,-4.971,-4.9041,-4.8907,-4.9614,-4.948,-4.9098,-4.8697,-4.8563,-4.8353,-4.7826,-4.7502,-4.7455,-4.7731,-4.7483,-4.7379,-4.7788,-4.8258,-4.8911,-4.9674,-4.9899,-4.9925,-4.9987,-4.9375,-4.8933,-4.8721,-4.7817,-4.6951,-4.6432,-4.5874,-4.5691,-4.5594,-4.5594,-4.5594,-4.5594,-4.5594,-4.5594,-4.5594,-4.5594,-4.5594,-4.5594,-4.5594,-4.5594,-4.5594,-4.5594,-4.5594,-4.5594,-4.5594,-4.5594,-6.3427,-6.3312,-6.3694,-6.335,-6.2433,-6.1019,-6.0403,-6.0231,-5.8861,-5.823,-5.8135,-5.7332,-5.695,-5.6816,-5.588,-5.5842,-5.653,-5.6619,-5.7199,-5.8116,-5.802,-5.7676,-5.7256,-5.6759,-5.6301,-5.5785,-5.5498,-5.5078,-5.4371,-5.3301,-5.29,-5.2977,-5.2327,-5.1945,-5.1849,-5.1085,-5.0646,-5.0646,-5.0455,-5.0302,-5.0206,-4.971,-4.9117,-4.8552,-4.8476,-4.8391,-4.8151,-4.8162,-4.8028,-4.7807,-4.7788,-4.7788,-4.7788,-4.7788,-4.7903,-4.8162,-4.8372,-4.8487,-4.8476,-4.8476,-4.8754,-4.9328,-4.9423,-4.9576,-4.9882,-4.9958,-4.9977,-4.9882,-4.9423,-4.9358,-4.9824,-4.9767,-4.9347,-4.8812,-4.8735,-4.8468,-4.7903,-4.7788,-4.7884,-4.8105,-4.8181,-4.8277,-4.8548,-4.9124,-4.9762,-5.0265,-5.0481,-5.0542,-5.0556,-5.0115,-4.976,-4.9702,-4.9009,-4.8048,-4.7124,-4.6471,-4.5951,-4.5614,-4.5594,-4.5594,-4.5594,-4.5594,-4.5594,-4.5594,-4.5594,-4.5594,-4.5594,-4.5594,-4.5594,-4.5594,-4.5594,-4.5594,-4.5594,-4.5594,-4.5594,-6.2662,-6.3904,-6.3293,-6.2529,-6.1631,-6.079,-6.0441,-6.0422,-5.9453,-5.9052,-5.8942,-5.8192,-5.7829,-5.7734,-5.6262,-5.5861,-5.653,-5.6619,-5.739,-5.867,-5.8192,-5.8288,-5.8828,-5.7371,-5.6562,-5.6282,-5.5689,-5.5352,-5.5193,-5.3664,-5.3206,-5.3913,-5.311,-5.2709,-5.2575,-5.1907,-5.1551,-5.1467,-5.0856,-5.0378,-5.034,-5.0283,-5.0206,-5.0073,-5.0149,-4.9729,-4.9137,-4.9041,-4.8697,-4.7845,-4.7903,-4.7865,-4.7845,-4.7865,-4.8258,-4.8984,-4.9729,-5.013,-5.0092,-5.0015,-5.0092,-5.0225,-5.0187,-4.9977,-4.9683,-4.9645,-4.9595,-4.9263,-4.9385,-4.9328,-4.9243,-4.8907,-4.8361,-4.8181,-4.7998,-4.8017,-4.7903,-4.8056,-4.822,-4.8831,-4.9052,-4.9274,-5.0046,-5.0361,-5.0385,-5.0523,-5.0593,-5.0613,-5.0644,-5.0606,-5.0558,-5.0404,-4.9798,-4.8798,-4.7355,-4.674,-4.6374,-4.6009,-4.5787,-4.5614,-4.5594,-4.5594,-4.5594,-4.5594,-4.5594,-4.5594,-4.5594,-4.5594,-4.5594,-4.5594,-4.5594,-4.5594,-4.5594,-4.5594,-4.5594,-6.228,-6.3331,-6.3045,-6.2701,-6.2357,-6.1535,-6.1153,-6.1096,-6.0293,-5.9931,-5.9778,-5.9052,-5.867,-5.8593,-5.7504,-5.6855,-5.6639,-5.6619,-5.6931,-5.7504,-5.7772,-5.7772,-5.7409,-5.6836,-5.6282,-5.5823,-5.5536,-5.539,-5.5269,-5.418,-5.376,-5.3874,-5.3225,-5.2785,-5.2747,-5.2518,-5.2365,-5.2346,-5.2021,-5.1658,-5.1181,-5.1131,-5.0894,-5.034,-5.0302,-5.0168,-4.9882,-4.9862,-4.971,-4.9392,-4.9404,-4.9404,-4.9404,-4.9404,-4.9538,-4.9843,-5.013,-5.0302,-5.0245,-4.9824,-5.0015,-5.0971,-5.0608,-5.0684,-5.1295,-5.146,-5.1257,-5.0818,-5.0684,-5.0512,-4.9939,-4.9576,-4.9404,-4.9404,-4.9404,-4.9328,-4.9404,-4.9404,-4.9538,-4.9817,-4.9905,-5.0103,-5.0278,-5.0457,-5.0521,-5.0593,-5.0603,-5.0633,-5.0673,-5.0683,-5.0683,-5.0673,-5.0423,-4.9837,-4.8759,-4.749,-4.6721,-4.6413,-4.6124,-4.5825,-4.5691,-4.5729,-4.5748,-4.5768,-4.571,-4.5594,-4.5594,-4.5594,-4.5594,-4.5594,-4.5594,-4.5594,-4.5594,-4.5594,-4.5594,-6.2061,-6.2165,-6.2419,-6.2347,-6.2061,-6.152,-6.1239,-6.1153,-6.0618,-6.0403,-6.0269,-5.9759,-5.9529,-5.9376,-5.867,-5.8001,-5.7409,-5.716,-5.7008,-5.7084,-5.7638,-5.76,-5.7065,-5.674,-5.6339,-5.5747,-5.5193,-5.5116,-5.5269,-5.4524,-5.4256,-5.4448,-5.3645,-5.3206,-5.3187,-5.2957,-5.2785,-5.2785,-5.2785,-5.2499,-5.204,-5.1983,-5.1735,-5.1219,-5.1123,-5.0818,-5.034,-5.0302,-5.0302,-5.0302,-5.0302,-5.0302,-5.0302,-5.0302,-5.0302,-5.0302,-5.0302,-5.0302,-5.0245,-4.9786,-5.0111,-5.1379,-5.0856,-5.0932,-5.2212,-5.2155,-5.1735,-5.1314,-5.1181,-5.0894,-5.0516,-5.0306,-5.0325,-5.0302,-5.0302,-5.0314,-5.0325,-5.0294,-5.0275,-5.0279,-5.0366,-5.0438,-5.0468,-5.0521,-5.0593,-5.0623,-5.0633,-5.0673,-5.0683,-5.0683,-5.0683,-5.0683,-5.0673,-5.0404,-4.9721,-4.8721,-4.774,-4.7336,-4.6971,-4.6471,-4.6152,-4.6105,-4.6009,-4.5979,-4.5845,-4.5671,-4.5594,-4.5594,-4.5594,-4.5594,-4.5594,-4.5594,-4.5594,-4.5594,-4.5594,-6.1945,-6.0904,-6.1406,-6.1322,-6.0767,-6.0652,-6.0496,-6.0493,-6.0422,-6.0403,-6.0384,-6.0327,-6.0255,-6.016,-5.9453,-5.909,-5.8899,-5.8326,-5.7905,-5.781,-5.7791,-5.7772,-5.7619,-5.6816,-5.6434,-5.6282,-5.4925,-5.4639,-5.5307,-5.4581,-5.4467,-5.5021,-5.4371,-5.3874,-5.4008,-5.3225,-5.2862,-5.2805,-5.2785,-5.2766,-5.2785,-5.2709,-5.2652,-5.2633,-5.2614,-5.1945,-5.0512,-5.0455,-5.0531,-5.0493,-5.0474,-5.0359,-5.0436,-5.0417,-5.0359,-5.0321,-5.0302,-5.0302,-5.0302,-5.0245,-5.055,-5.1341,-5.0837,-5.0856,-5.1639,-5.1257,-5.076,-5.0665,-5.0581,-5.0421,-5.0428,-5.0401,-5.0371,-5.0333,-5.0325,-5.0367,-5.039,-5.0356,-5.0325,-5.0412,-5.0489,-5.0593,-5.0603,-5.0633,-5.0663,-5.0692,-5.0702,-5.0702,-5.0683,-5.0683,-5.0683,-5.0683,-5.0683,-5.0548,-5.0298,-4.9952,-4.9106,-4.8375,-4.8009,-4.7605,-4.7336,-4.7201,-4.6932,-4.6817,-4.624,-4.6056,-4.5594,-4.5594,-4.5594,-4.5594,-4.5594,-4.5633,-4.5594,-4.5594,-4.5594,-6.1025,-6.0661,-6.0846,-6.0795,-6.0565,-6.0525,-6.0485,-6.0472,-6.0417,-6.0403,-6.0403,-6.0403,-6.0403,-6.0365,-6.0083,-5.9988,-5.995,-5.9682,-5.9014,-5.8001,-5.7332,-5.7065,-5.6893,-5.6186,-5.5785,-5.5708,-5.5288,-5.5116,-5.5193,-5.4524,-5.4276,-5.439,-5.4256,-5.3779,-5.332,-5.3473,-5.3435,-5.2843,-5.2785,-5.2785,-5.2785,-5.2785,-5.2785,-5.2785,-5.2785,-5.2499,-5.2059,-5.2021,-5.2002,-5.1964,-5.2002,-5.1773,-5.1314,-5.1219,-5.0932,-5.0378,-5.0302,-5.0302,-5.0302,-5.0321,-5.0684,-5.1334,-5.1314,-5.162,-5.2289,-5.2098,-5.1658,-5.1276,-5.1216,-5.1079,-5.0546,-5.0446,-5.0448,-5.0446,-5.0427,-5.0446,-5.0468,-5.0457,-5.0438,-5.0478,-5.0562,-5.0593,-5.0613,-5.0653,-5.0683,-5.0683,-5.0683,-5.0683,-5.0683,-5.0683,-5.0683,-5.0683,-5.0683,-5.0683,-5.0491,-5.0375,-4.9952,-4.9298,-4.8933,-4.8682,-4.8432,-4.8086,-4.7855,-4.7432,-4.6855,-4.6413,-4.596,-4.5806,-4.5941,-4.5787,-4.5825,-4.5768,-4.5633,-4.5748,-4.5998,-6.0629,-6.068,-6.0655,-6.0623,-6.0623,-6.0591,-6.0546,-6.0539,-6.0472,-6.0431,-6.0431,-6.0417,-6.0403,-6.0403,-6.0403,-6.0403,-6.0403,-6.0403,-5.9816,-5.8803,-5.7944,-5.7409,-5.7008,-5.6224,-5.5651,-5.5441,-5.539,-5.539,-5.5371,-5.4868,-5.46,-5.4581,-5.4276,-5.3874,-5.3359,-5.376,-5.3683,-5.2957,-5.311,-5.3129,-5.2862,-5.2785,-5.2785,-5.2785,-5.2785,-5.2785,-5.2785,-5.2785,-5.2785,-5.2728,-5.2537,-5.2098,-5.1639,-5.1295,-5.0875,-5.0455,-5.0302,-5.0302,-5.0302,-5.0302,-5.0684,-5.1372,-5.1314,-5.1479,-5.2095,-5.2191,-5.1637,-5.1308,-5.117,-5.1051,-5.0593,-5.05,-5.0542,-5.0563,-5.0521,-5.0511,-5.0511,-5.0542,-5.0553,-5.0553,-5.0603,-5.0623,-5.0643,-5.0663,-5.0683,-5.0683,-5.0683,-5.0683,-5.0683,-5.0683,-5.0683,-5.0683,-5.0683,-5.0683,-5.0683,-5.0664,-5.0664,-5.024,-4.9798,-4.9625,-4.9433,-4.8933,-4.8567,-4.8029,-4.7471,-4.7375,-4.6971,-4.6855,-4.6874,-4.6547,-4.6355,-4.6663,-4.6874,-4.6778,-4.6932,-6.0692,-6.0788,-6.0722,-6.0717,-6.0717,-6.0685,-6.0667,-6.0604,-6.0539,-6.0499,-6.0485,-6.0431,-6.0403,-6.0403,-6.0403,-6.0403,-6.0403,-6.0403,-6.0365,-6.0007,-5.9396,-5.8651,-5.7734,-5.7008,-5.632,-5.567,-5.5556,-5.5498,-5.539,-5.5294,-5.539,-5.5199,-5.4619,-5.4142,-5.4027,-5.4085,-5.3683,-5.3015,-5.3531,-5.3492,-5.2957,-5.2938,-5.3015,-5.3072,-5.3129,-5.3168,-5.3206,-5.3225,-5.3034,-5.2747,-5.2193,-5.183,-5.1493,-5.0818,-5.0531,-5.034,-5.0302,-5.0302,-5.0302,-5.0314,-5.0696,-5.1441,-5.1071,-5.0776,-5.1752,-5.1572,-5.1201,-5.1073,-5.1018,-5.0886,-5.0909,-5.0949,-5.0969,-5.0875,-5.0757,-5.057,-5.0521,-5.0604,-5.0643,-5.0623,-5.0653,-5.0683,-5.0702,-5.0683,-5.0683,-5.0683,-5.0683,-5.0683,-5.0683,-5.0683,-5.0683,-5.0683,-5.0683,-5.0683,-5.0683,-5.0683,-5.0683,-5.0577,-5.0269,-5.0212,-5.0164,-4.9702,-4.9183,-4.8644,-4.8298,-4.8182,-4.7932,-4.7682,-4.7625,-4.7509,-4.7625,-4.8019,-4.7942,-4.7663,-4.7625,-6.0777,-6.08,-6.0788,-6.0757,-6.0777,-6.0722,-6.0704,-6.068,-6.0604,-6.0552,-6.0512,-6.0485,-6.0425,-6.0403,-6.0403,-6.0403,-6.0403,-6.0403,-6.0403,-6.0384,-6.0198,-5.9205,-5.8135,-5.7695,-5.7103,-5.6396,-5.6224,-5.5976,-5.5428,-5.5409,-5.539,-5.539,-5.5154,-5.4696,-5.4218,-5.4161,-5.3645,-5.2938,-5.2996,-5.3435,-5.3702,-5.3683,-5.4085,-5.4696,-5.46,-5.46,-5.4677,-5.4715,-5.4027,-5.2881,-5.2633,-5.2174,-5.1742,-5.1429,-5.1028,-5.055,-5.0378,-5.034,-5.0371,-5.0432,-5.0838,-5.1538,-5.1534,-5.177,-5.2567,-5.2452,-5.2329,-5.2352,-5.2384,-5.2359,-5.2399,-5.242,-5.2471,-5.2385,-5.1499,-5.0787,-5.0759,-5.0663,-5.0702,-5.0692,-5.0721,-5.0741,-5.0702,-5.0683,-5.0683,-5.0683,-5.0683,-5.0683,-5.0683,-5.0683,-5.0683,-5.0683,-5.0683,-5.0683,-5.0683,-5.0683,-5.0683,-5.0683,-5.0567,-5.0539,-5.051,-5.0356,-4.9837,-4.9317,-4.9163,-4.9048,-4.8471,-4.8009,-4.8125,-4.849,-4.8394,-4.8529,-4.8259,-4.8009,-4.8105,-6.08,-6.08,-6.08,-6.08,-6.08,-6.0765,-6.0734,-6.0722,-6.068,-6.0629,-6.0559,-6.0525,-6.0466,-6.0464,-6.0417,-6.0403,-6.0403,-6.0403,-6.0403,-6.0403,-6.0384,-5.9625,-5.8689,-5.8402,-5.7963,-5.716,-5.6759,-5.6358,-5.5919,-5.5594,-5.5409,-5.539,-5.539,-5.5116,-5.4734,-5.4619,-5.4218,-5.3531,-5.3339,-5.3492,-5.355,-5.355,-5.3741,-5.4237,-5.4295,-5.4295,-5.4276,-5.4276,-5.4065,-5.3798,-5.3569,-5.3129,-5.2709,-5.2289,-5.1868,-5.1353,-5.1357,-5.1419,-5.14,-5.1465,-5.1729,-5.2142,-5.2291,-5.2524,-5.2911,-5.3056,-5.3056,-5.3031,-5.314,-5.3131,-5.3161,-5.3182,-5.3192,-5.3029,-5.2318,-5.176,-5.176,-5.1818,-5.1568,-5.1356,-5.1183,-5.1029,-5.0779,-5.0731,-5.0702,-5.0683,-5.0683,-5.0683,-5.0683,-5.0702,-5.0741,-5.0798,-5.0721,-5.0683,-5.0683,-5.0683,-5.0683,-5.0683,-5.0683,-5.0683,-5.0683,-5.0683,-5.0414,-5.001,-4.9952,-4.9779,-4.926,-4.899,-4.9356,-4.951,-4.9221,-4.9125,-4.9067,-4.8817,-4.8875,-6.08,-6.08,-6.08,-6.08,-6.08,-6.08,-6.08,-6.0769,-6.0722,-6.0717,-6.066,-6.0578,-6.0525,-6.0499,-6.0444,-6.0403,-6.0403,-6.0403,-6.0403,-6.0403,-6.0346,-5.9911,-5.9357,-5.9243,-5.8784,-5.8039,-5.7179,-5.6912,-5.6606,-5.5976,-5.5594,-5.5594,-5.5517,-5.539,-5.525,-5.5294,-5.4963,-5.439,-5.4237,-5.3989,-5.3645,-5.355,-5.3664,-5.3702,-5.3702,-5.3626,-5.3531,-5.3454,-5.3874,-5.5307,-5.4486,-5.3817,-5.3702,-5.3091,-5.2779,-5.2669,-5.2602,-5.2682,-5.2828,-5.2721,-5.3004,-5.3111,-5.3168,-5.3267,-5.3503,-5.3659,-5.3689,-5.3759,-5.3491,-5.3673,-5.3692,-5.3568,-5.3664,-5.3722,-5.351,-5.3453,-5.3433,-5.3318,-5.2885,-5.2173,-5.2038,-5.1664,-5.1241,-5.0962,-5.1029,-5.1625,-5.151,-5.1548,-5.1414,-5.1279,-5.1202,-5.1068,-5.0914,-5.0683,-5.0683,-5.0683,-5.0683,-5.0683,-5.0683,-5.0683,-5.0683,-5.0683,-5.0683,-5.0548,-5.0356,-5.0337,-5.0317,-5.0337,-5.0433,-5.0375,-4.999,-5.026,-5.0491,-5.0067,-4.9952,-6.08,-6.08,-6.08,-6.08,-6.08,-6.08,-6.08,-6.08,-6.0788,-6.0753,-6.0717,-6.066,-6.0585,-6.048,-6.0485,-6.0444,-6.0403,-6.0403,-6.0403,-6.0403,-6.0403,-6.0327,-6.0083,-6.0045,-5.9606,-5.8937,-5.867,-5.8211,-5.7581,-5.6816,-5.6339,-5.6282,-5.5785,-5.5409,-5.5441,-5.5422,-5.5345,-5.5135,-5.5097,-5.4963,-5.4772,-5.4677,-5.4677,-5.4696,-5.4715,-5.4772,-5.483,-5.4849,-5.504,-5.4944,-5.4104,-5.3421,-5.3326,-5.3133,-5.3061,-5.3092,-5.3069,-5.3046,-5.3031,-5.3229,-5.3396,-5.4021,-5.4158,-5.446,-5.5085,-5.5028,-5.5077,-5.5145,-5.5164,-5.4991,-5.4953,-5.5088,-5.4991,-5.4934,-5.4972,-5.503,-5.4934,-5.403,-5.3318,-5.3029,-5.2914,-5.2837,-5.2645,-5.2472,-5.251,-5.2606,-5.2587,-5.2626,-5.2318,-5.1933,-5.1798,-5.1664,-5.1452,-5.126,-5.0933,-5.0856,-5.0683,-5.0683,-5.0683,-5.0683,-5.0683,-5.0683,-5.0683,-5.0683,-5.0644,-5.0683,-5.0683,-5.0683,-5.0567,-5.0644,-5.0683,-5.0683,-5.0683,-5.0683,-5.0683,-6.08,-6.08,-6.08,-6.08,-6.08,-6.08,-6.08,-6.08,-6.08,-6.0788,-6.0741,-6.0692,-6.0617,-6.0539,-6.0485,-6.0431,-6.0403,-6.0403,-6.0403,-6.0403,-6.0403,-6.0403,-6.0403,-6.0384,-6.0102,-5.9663,-5.9243,-5.8842,-5.8345,-5.7676,-5.7218,-5.7122,-5.6377,-5.6052,-5.5842,-5.5632,-5.5403,-5.5352,-5.539,-5.539,-5.539,-5.539,-5.539,-5.539,-5.539,-5.539,-5.5345,-5.5352,-5.5365,-5.5186,-5.4541,-5.4025,-5.4019,-5.4037,-5.4061,-5.4146,-5.4193,-5.4215,-5.4257,-5.4301,-5.4545,-5.494,-5.5038,-5.528,-5.5588,-5.5684,-5.5684,-5.5684,-5.5665,-5.5684,-5.5684,-5.5665,-5.5684,-5.5684,-5.5684,-5.5684,-5.5549,-5.4895,-5.4184,-5.3972,-5.3818,-5.353,-5.3414,-5.3453,-5.328,-5.3068,-5.301,-5.3029,-5.2953,-5.2626,-5.2587,-5.2452,-5.2202,-5.1875,-5.1375,-5.1048,-5.0721,-5.0683,-5.0683,-5.0683,-5.0683,-5.0683,-5.0683,-5.0683,-5.0683,-5.0683,-5.0683,-5.0683,-5.0683,-5.0683,-5.0683,-5.0683,-5.0683,-5.0683,-5.0683,-6.08,-6.08,-6.08,-6.08,-6.08,-6.08,-6.08,-6.08,-6.08,-6.08,-6.0788,-6.0667,-6.0629,-6.0578,-6.0472,-6.0417,-6.0403,-6.0403,-6.0403,-6.0403,-6.0403,-6.0403,-6.0403,-6.0384,-6.0384,-6.0313,-5.9759,-5.9357,-5.9128,-5.8536,-5.8096,-5.7925,-5.7218,-5.6683,-5.6454,-5.5995,-5.5575,-5.546,-5.539,-5.539,-5.539,-5.539,-5.539,-5.5403,-5.5396,-5.539,-5.5403,-5.5421,-5.542,-5.542,-5.548,-5.5468,-5.5444,-5.5413,-5.5456,-5.5458,-5.5362,-5.5338,-5.5311,-5.5478,-5.5549,-5.5684,-5.5665,-5.5665,-5.5684,-5.5684,-5.5684,-5.5684,-5.5684,-5.5684,-5.5684,-5.5684,-5.5684,-5.5684,-5.5684,-5.5684,-5.5684,-5.5684,-5.5222,-5.4857,-5.4664,-5.4453,-5.4126,-5.401,-5.376,-5.3568,-5.353,-5.351,-5.3491,-5.3395,-5.3395,-5.3164,-5.2895,-5.2626,-5.2164,-5.1952,-5.1529,-5.1356,-5.1221,-5.1202,-5.1164,-5.1125,-5.1164,-5.076,-5.0683,-5.0683,-5.0683,-5.0683,-5.0683,-5.0683,-5.0683,-5.0683,-5.0683,-5.0683,-5.0683,-6.08,-6.08,-6.08,-6.08,-6.08,-6.08,-6.08,-6.08,-6.08,-6.08,-6.0788,-6.0729,-6.0655,-6.0591,-6.0525,-6.0458,-6.0403,-6.0403,-6.0403,-6.0403,-6.0403,-6.0403,-6.0403,-6.0403,-6.0403,-6.0403,-6.016,-6.0064,-5.9892,-5.9376,-5.8956,-5.8746,-5.8077,-5.7428,-5.6912,-5.6396,-5.5995,-5.5594,-5.5447,-5.539,-5.539,-5.5384,-5.5384,-5.5396,-5.5396,-5.5402,-5.5395,-5.5444,-5.5461,-5.548,-5.5473,-5.5527,-5.557,-5.5562,-5.5573,-5.5604,-5.5629,-5.5662,-5.5673,-5.5692,-5.5684,-5.5684,-5.5684,-5.5684,-5.5684,-5.5684,-5.5684,-5.5684,-5.5684,-5.5684,-5.5684,-5.5684,-5.5684,-5.5684,-5.5684,-5.5684,-5.5684,-5.5665,-5.5645,-5.5357,-5.5357,-5.5357,-5.4953,-5.4722,-5.4703,-5.4645,-5.4645,-5.4684,-5.4722,-5.4491,-5.428,-5.3953,-5.3568,-5.3299,-5.2991,-5.2895,-5.2683,-5.2549,-5.2433,-5.2433,-5.2299,-5.1962,-5.1712,-5.1452,-5.0971,-5.0683,-5.0683,-5.0683,-5.0683,-5.0683,-5.0683,-5.0683,-5.0683,-5.0683,-5.0683,-6.08,-6.08,-6.08,-6.08,-6.08,-6.08,-6.08,-6.08,-6.08,-6.08,-6.0777,-6.0704,-6.0642,-6.0578,-6.0466,-6.0431,-6.0403,-6.0403,-6.0403,-6.0403,-6.0403,-6.0403,-6.0403,-6.0403,-6.0403,-6.0403,-6.0403,-6.0403,-6.0365,-6.0007,-5.9739,-5.9568,-5.8937,-5.8288,-5.7734,-5.7008,-5.6511,-5.5995,-5.5651,-5.5409,-5.5403,-5.539,-5.5384,-5.5409,-5.5439,-5.5444,-5.5449,-5.5516,-5.5551,-5.5581,-5.5604,-5.5638,-5.5629,-5.564,-5.564,-5.5671,-5.5692,-5.5684,-5.5684,-5.5684,-5.5684,-5.5684,-5.5684,-5.5684,-5.5684,-5.5684,-5.5684,-5.5684,-5.5684,-5.5684,-5.5684,-5.5684,-5.5684,-5.5684,-5.5684,-5.5684,-5.5684,-5.5684,-5.5684,-5.5684,-5.5607,-5.5549,-5.5607,-5.5511,-5.5626,-5.5684,-5.5684,-5.5684,-5.5684,-5.5376,-5.4953,-5.4741,-5.4337,-5.4068,-5.3799,-5.3645,-5.3626,-5.3549,-5.351,-5.3491,-5.328,-5.2876,-5.2606,-5.2356,-5.1779,-5.1068,-5.0712,-5.0731,-5.0712,-5.0683,-5.0683,-5.0683,-5.0683,-5.0683,-5.0683,-6.08,-6.08,-6.08,-6.08,-6.08,-6.08,-6.08,-6.08,-6.08,-6.08,-6.0788,-6.0667,-6.0604,-6.0565,-6.0472,-6.0403,-6.0403,-6.0403,-6.0403,-6.0403,-6.0403,-6.0403,-6.0403,-6.0403,-6.0403,-6.0403,-6.0403,-6.0403,-6.0403,-6.0313,-6.0365,-6.0155,-5.9587,-5.9224,-5.8765,-5.7848,-5.7179,-5.6625,-5.6071,-5.5632,-5.5435,-5.539,-5.5389,-5.5401,-5.548,-5.5516,-5.5527,-5.5585,-5.5607,-5.5629,-5.5671,-5.5684,-5.5684,-5.5684,-5.5684,-5.5684,-5.5684,-5.5684,-5.5684,-5.5684,-5.5684,-5.5684,-5.5684,-5.5684,-5.5684,-5.5684,-5.5684,-5.5684,-5.5684,-5.5684,-5.5684,-5.5684,-5.5684,-5.5684,-5.5684,-5.5684,-5.5684,-5.5684,-5.5684,-5.5684,-5.5684,-5.5684,-5.5684,-5.5684,-5.5684,-5.5684,-5.5684,-5.5684,-5.5684,-5.5684,-5.5434,-5.5376,-5.5145,-5.4876,-5.4607,-5.4337,-5.4337,-5.4337,-5.4318,-5.4318,-5.403,-5.3664,-5.3472,-5.3241,-5.2395,-5.1722,-5.126,-5.0789,-5.0712,-5.0683,-5.0683,-5.0683,-5.0712,-5.0683,-5.0683,-6.08,-6.08,-6.08,-6.08,-6.08,-6.08,-6.08,-6.08,-6.08,-6.08,-6.0769,-6.0648,-6.0623,-6.0552,-6.0458,-6.0403,-6.0403,-6.0403,-6.0403,-6.0403,-6.0403,-6.0403,-6.0403,-6.0403,-6.0403,-6.0403,-6.0403,-6.0403,-6.0403,-6.0403,-6.0403,-6.0327,-6.0198,-5.9911,-5.9262,-5.8708,-5.8459,-5.7714,-5.6906,-5.6161,-5.5658,-5.5574,-5.558,-5.5521,-5.5592,-5.5719,-5.573,-5.5756,-5.5712,-5.5788,-5.5722,-5.5684,-5.5684,-5.5684,-5.5684,-5.5684,-5.5684,-5.5684,-5.5703,-5.5684,-5.5684,-5.5703,-5.5761,-5.5703,-5.5972,-5.6011,-5.5992,-5.5684,-5.5742,-5.5915,-5.5992,-5.578,-5.5722,-5.5818,-5.5953,-5.5876,-5.5799,-5.5684,-5.5684,-5.5684,-5.5684,-5.5684,-5.5684,-5.5684,-5.5684,-5.5684,-5.5684,-5.5684,-5.5684,-5.5684,-5.5684,-5.5588,-5.5549,-5.5318,-5.5184,-5.4953,-5.4914,-5.4991,-5.4991,-5.5011,-5.478,-5.4511,-5.4414,-5.403,-5.3203,-5.2587,-5.2241,-5.1722,-5.1029,-5.0971,-5.1337,-5.1087,-5.0731,-5.075,-5.1029,-6.08,-6.08,-6.08,-6.08,-6.08,-6.08,-6.08,-6.08,-6.08,-6.0788,-6.0741,-6.0655,-6.0584,-6.0485,-6.0417,-6.0403,-6.0403,-6.0403,-6.0403,-6.0403,-6.0403,-6.0403,-6.0403,-6.0403,-6.0403,-6.0403,-6.0403,-6.0403,-6.0403,-6.0403,-6.0403,-6.0403,-6.0403,-6.0236,-5.9715,-5.9338,-5.8983,-5.8469,-5.7877,-5.7309,-5.7015,-5.6918,-5.6743,-5.6295,-5.6356,-5.639,-5.6335,-5.5885,-5.6041,-5.6165,-5.6049,-5.5972,-5.6165,-5.6069,-5.5857,-5.6445,-5.6445,-5.6203,-5.5799,-5.5742,-5.5799,-5.5895,-5.6165,-5.6684,-5.6973,-5.7107,-5.7107,-5.7203,-5.6703,-5.6646,-5.6857,-5.6684,-5.6819,-5.6838,-5.6607,-5.6472,-5.6299,-5.5799,-5.5684,-5.5684,-5.5684,-5.5684,-5.5684,-5.5684,-5.5684,-5.5684,-5.5684,-5.5684,-5.5684,-5.5684,-5.5684,-5.5684,-5.5665,-5.5607,-5.5549,-5.5453,-5.5357,-5.5395,-5.5395,-5.5415,-5.5472,-5.5338,-5.5126,-5.4895,-5.4299,-5.376,-5.3318,-5.2722,-5.2087,-5.2049,-5.2125,-5.1914,-5.1722,-5.2029,-5.226,-6.08,-6.08,-6.08,-6.08,-6.08,-6.08,-6.08,-6.08,-6.08,-6.0765,-6.0704,-6.0617,-6.0512,-6.0417,-6.0403,-6.0403,-6.0403,-6.0403,-6.0403,-6.0403,-6.0403,-6.0403,-6.0403,-6.0403,-6.0403,-6.0431,-6.0431,-6.0444,-6.0458,-6.0458,-6.0458,-6.0431,-6.0431,-6.0406,-6.0272,-5.9903,-5.9471,-5.907,-5.8642,-5.8246,-5.8009,-5.8038,-5.7735,-5.7413,-5.7266,-5.7319,-5.7223,-5.6838,-5.6857,-5.703,-5.6838,-5.6857,-5.7146,-5.6915,-5.6819,-5.7223,-5.73,-5.7107,-5.6742,-5.6569,-5.6357,-5.6549,-5.6819,-5.755,-5.7992,-5.8288,-5.8269,-5.8088,-5.7703,-5.7723,-5.7953,-5.7607,-5.7646,-5.7684,-5.7627,-5.7473,-5.7203,-5.6626,-5.6203,-5.6175,-5.6079,-5.5703,-5.5684,-5.5684,-5.5684,-5.5684,-5.5684,-5.5684,-5.5684,-5.5684,-5.5684,-5.5684,-5.5684,-5.5684,-5.5684,-5.5684,-5.5684,-5.5684,-5.5684,-5.5684,-5.5665,-5.5665,-5.5511,-5.5299,-5.5068,-5.4895,-5.4434,-5.3799,-5.3183,-5.2876,-5.2702,-5.2933,-5.301,-5.326,-5.3241,-6.08,-6.08,-6.08,-6.08,-6.08,-6.08,-6.08,-6.08,-6.08,-6.0765,-6.0673,-6.0578,-6.0458,-6.0417,-6.0403,-6.0403,-6.0403,-6.0403,-6.0403,-6.0403,-6.0403,-6.0403,-6.0403,-6.0417,-6.0444,-6.0472,-6.0485,-6.0525,-6.0565,-6.0552,-6.0539,-6.0518,-6.0499,-6.0539,-6.0514,-6.0335,-5.9965,-5.9626,-5.9306,-5.8935,-5.8582,-5.8414,-5.8335,-5.82,-5.817,-5.8223,-5.8204,-5.7934,-5.7953,-5.8146,-5.7877,-5.7896,-5.805,-5.7857,-5.7877,-5.8107,-5.8184,-5.8069,-5.7915,-5.778,-5.7992,-5.8088,-5.8184,-5.8319,-5.8723,-5.8473,-5.8377,-5.855,-5.8396,-5.8357,-5.8415,-5.8261,-5.8357,-5.855,-5.8569,-5.83,-5.7953,-5.7387,-5.6983,-5.6772,-5.6483,-5.6156,-5.5818,-5.5838,-5.5703,-5.5684,-5.5684,-5.5684,-5.5684,-5.5684,-5.5684,-5.5684,-5.5684,-5.5684,-5.5684,-5.5684,-5.5684,-5.5684,-5.5684,-5.5684,-5.5684,-5.5684,-5.5684,-5.5626,-5.5415,-5.5511,-5.5453,-5.4626,-5.3914,-5.3414,-5.3318,-5.376,-5.3857,-5.3895,-5.376,-6.08,-6.08,-6.08,-6.08,-6.08,-6.08,-6.08,-6.08,-6.08,-6.0741,-6.0642,-6.048,-6.0417,-6.0403,-6.0403,-6.0403,-6.0403,-6.0403,-6.0403,-6.0417,-6.0412,-6.0431,-6.0444,-6.0472,-6.0506,-6.0493,-6.0539,-6.0565,-6.0591,-6.0636,-6.0629,-6.0617,-6.0591,-6.0578,-6.0604,-6.0635,-6.0418,-6.0296,-6.0167,-5.9979,-5.9915,-5.9734,-5.9554,-5.9015,-5.9008,-5.905,-5.8973,-5.8531,-5.8665,-5.88,-5.8588,-5.8723,-5.8915,-5.8665,-5.8684,-5.8973,-5.905,-5.905,-5.8934,-5.8704,-5.8511,-5.8992,-5.9069,-5.9223,-5.9569,-5.9762,-5.9819,-5.9723,-5.93,-5.9165,-5.9742,-5.9415,-5.9204,-5.9492,-5.9454,-5.9146,-5.8761,-5.8204,-5.7857,-5.7684,-5.7157,-5.6656,-5.6329,-5.603,-5.5857,-5.5684,-5.5684,-5.5684,-5.5684,-5.5684,-5.5684,-5.5684,-5.5684,-5.5684,-5.5684,-5.5684,-5.5684,-5.5684,-5.5684,-5.5684,-5.5684,-5.5684,-5.5684,-5.5684,-5.5684,-5.5645,-5.5472,-5.5107,-5.4741,-5.4414,-5.4511,-5.4857,-5.4799,-5.4568,-5.4453,-6.055,-6.0781,-6.08,-6.08,-6.08,-6.08,-6.08,-6.08,-6.08,-6.0729,-6.0591,-6.0485,-6.0417,-6.0403,-6.0417,-6.0431,-6.0444,-6.0458,-6.0444,-6.0472,-6.0485,-6.0485,-6.0485,-6.0525,-6.0578,-6.0546,-6.0585,-6.0642,-6.068,-6.0667,-6.0692,-6.0685,-6.0673,-6.068,-6.068,-6.0685,-6.0722,-6.0734,-6.0757,-6.08,-6.0742,-6.0685,-6.055,-5.9935,-5.9896,-5.9896,-5.98,-5.9531,-5.9492,-5.9608,-5.955,-5.9454,-5.9511,-5.9511,-5.9415,-5.9665,-5.9877,-5.9877,-5.9704,-5.9531,-5.93,-5.9819,-5.9896,-6.0204,-6.0608,-6.08,-6.055,-6.0589,-6.0185,-6.0127,-6.0762,-6.0223,-6.0012,-6.0242,-6.0146,-5.9877,-5.9608,-5.9184,-5.8877,-5.8588,-5.7973,-5.7357,-5.7069,-5.6742,-5.6184,-5.5934,-5.5684,-5.5684,-5.5684,-5.5684,-5.5684,-5.5684,-5.5684,-5.5684,-5.5684,-5.5684,-5.5684,-5.5684,-5.5684,-5.5684,-5.5684,-5.5684,-5.5684,-5.5684,-5.5684,-5.5684,-5.5568,-5.5357,-5.5434,-5.5549,-5.553,-5.5395,-5.5395,-5.5184,-5.5318,-5.9973,-6.0762,-6.0742,-6.0742,-6.0704,-6.08,-6.08,-6.08,-6.08,-6.071,-6.0617,-6.0525,-6.0472,-6.0444,-6.0485,-6.0499,-6.0512,-6.0552,-6.0552,-6.0525,-6.0565,-6.0552,-6.0552,-6.0578,-6.0655,-6.0673,-6.0717,-6.0729,-6.0757,-6.0765,-6.0769,-6.0769,-6.0746,-6.0777,-6.08,-6.08,-6.08,-6.08,-6.08,-6.08,-6.08,-6.08,-6.0685,-6.0608,-6.055,-6.0492,-6.0435,-6.0377,-6.0339,-6.0377,-6.0416,-6.0396,-6.0435,-6.0492,-6.0473,-6.0569,-6.0646,-6.0666,-6.0685,-6.0685,-6.0589,-6.0531,-6.0454,-6.0627,-6.0742,-6.08,-6.08,-6.0781,-6.0627,-6.0627,-6.0781,-6.0762,-6.0742,-6.0704,-6.0569,-6.0473,-6.0185,-6.0031,-5.9665,-5.9396,-5.88,-5.8204,-5.7915,-5.7511,-5.6742,-5.6242,-5.5838,-5.5703,-5.5722,-5.5703,-5.5703,-5.5684,-5.5684,-5.5684,-5.5684,-5.5684,-5.5684,-5.5684,-5.5684,-5.5684,-5.5684,-5.5684,-5.5684,-5.5684,-5.5684,-5.5684,-5.5684,-5.5665,-5.5684,-5.5684,-5.5684,-5.5626,-5.5684,-5.5684,-5.5684,-5.8877,-5.9184,-5.9723,-5.9935,-6.0031,-6.055,-6.08,-6.08,-6.0765,-6.0717,-6.0648,-6.0585,-6.0565,-6.0552,-6.0552,-6.0565,-6.0578,-6.0578,-6.0597,-6.0578,-6.0642,-6.0617,-6.0617,-6.0667,-6.071,-6.071,-6.0753,-6.0777,-6.0781,-6.08,-6.08,-6.08,-6.08,-6.08,-6.08,-6.08,-6.08,-6.08,-6.08,-6.08,-6.08,-6.08,-6.08,-6.08,-6.08,-6.08,-6.08,-6.08,-6.08,-6.08,-6.08,-6.08,-6.08,-6.08,-6.08,-6.08,-6.08,-6.08,-6.08,-6.0762,-6.0781,-6.08,-6.08,-6.08,-6.08,-6.08,-6.08,-6.08,-6.08,-6.08,-6.0781,-6.0781,-6.0781,-6.0781,-6.0704,-6.0704,-6.0569,-6.0512,-6.0339,-6.0127,-5.9685,-5.8877,-5.8396,-5.8242,-5.7607,-5.6973,-5.6588,-5.6011,-5.5857,-5.5761,-5.5722,-5.5703,-5.5684,-5.5684,-5.5684,-5.5684,-5.5684,-5.5684,-5.5684,-5.5684,-5.5684,-5.5684,-5.5684,-5.5684,-5.5684,-5.5684,-5.5684,-5.5684,-5.5684,-5.5684,-5.5684,-5.5684,-5.5684,-5.5684,-5.5684,-5.803,-5.8357,-5.8858,-5.9242,-5.9608,-6.0416,-6.08,-6.08,-6.0765,-6.0741,-6.0685,-6.0635,-6.0597,-6.0617,-6.0629,-6.0623,-6.0642,-6.0667,-6.0642,-6.0655,-6.0717,-6.0673,-6.0704,-6.0741,-6.0765,-6.0765,-6.0777,-6.08,-6.08,-6.08,-6.08,-6.08,-6.08,-6.08,-6.08,-6.08,-6.08,-6.08,-6.08,-6.08,-6.08,-6.08,-6.08,-6.08,-6.08,-6.08,-6.08,-6.08,-6.08,-6.08,-6.08,-6.08,-6.08,-6.08,-6.08,-6.08,-6.08,-6.08,-6.08,-6.08,-6.08,-6.08,-6.08,-6.08,-6.08,-6.08,-6.08,-6.08,-6.08,-6.08,-6.08,-6.08,-6.08,-6.08,-6.08,-6.08,-6.0781,-6.0704,-6.0685,-6.0512,-6.0358,-5.9569,-5.8934,-5.8761,-5.8492,-5.7915,-5.7357,-5.678,-5.6222,-5.6069,-5.5945,-5.5818,-5.5742,-5.5684,-5.5684,-5.5684,-5.5684,-5.5684,-5.5684,-5.5684,-5.5684,-5.5684,-5.5684,-5.5684,-5.5684,-5.5684,-5.5684,-5.5684,-5.5684,-5.5684,-5.5684,-5.5684,-5.5684,-5.5684,-5.5684,-5.7434,-5.8184,-5.8261,-5.8684,-5.9454,-6.0165,-6.0627,-6.0781,-6.08,-6.0765,-6.0697,-6.0697,-6.0673,-6.0642,-6.0692,-6.0697,-6.0697,-6.0765,-6.0753,-6.0741,-6.0765,-6.0741,-6.0734,-6.0757,-6.0788,-6.08,-6.08,-6.08,-6.08,-6.08,-6.08,-6.08,-6.08,-6.08,-6.08,-6.08,-6.08,-6.08,-6.08,-6.08,-6.08,-6.08,-6.08,-6.08,-6.08,-6.08,-6.08,-6.08,-6.08,-6.08,-6.08,-6.08,-6.08,-6.08,-6.08,-6.08,-6.08,-6.08,-6.08,-6.08,-6.08,-6.08,-6.08,-6.08,-6.08,-6.08,-6.08,-6.08,-6.08,-6.08,-6.08,-6.08,-6.08,-6.08,-6.08,-6.08,-6.08,-6.0781,-6.0781,-6.0723,-6.0723,-6.0262,-5.9762,-5.9511,-5.9338,-5.9108,-5.8607,-5.8127,-5.7511,-5.6733,-5.6503,-5.6022,-5.5895,-5.5722,-5.5684,-5.5684,-5.5684,-5.5684,-5.5684,-5.5684,-5.5684,-5.5684,-5.5684,-5.5684,-5.5684,-5.5684,-5.5684,-5.5684,-5.5684,-5.5684,-5.5684,-5.5684,-5.5684,-5.5684,-5.5684,-5.6233,-5.6511,-5.7107,-5.7511,-5.783,-5.8665,-5.9665,-6.0704,-6.08,-6.0769,-6.0757,-6.0757,-6.0734,-6.0753,-6.0757,-6.0757,-6.0788,-6.0788,-6.0788,-6.0788,-6.0788,-6.0788,-6.0788,-6.0769,-6.08,-6.08,-6.08,-6.08,-6.08,-6.08,-6.08,-6.08,-6.08,-6.08,-6.08,-6.08,-6.08,-6.08,-6.08,-6.08,-6.08,-6.08,-6.08,-6.08,-6.08,-6.08,-6.08,-6.08,-6.08,-6.08,-6.08,-6.08,-6.08,-6.08,-6.08,-6.08,-6.08,-6.08,-6.08,-6.08,-6.08,-6.08,-6.08,-6.08,-6.08,-6.08,-6.08,-6.08,-6.08,-6.08,-6.0723,-6.0685,-6.0627,-6.0569,-6.0569,-6.0569,-6.0589,-6.0723,-6.0742,-6.08,-6.08,-6.0704,-6.0262,-6.0242,-6.0108,-6.0089,-5.9858,-5.9358,-5.8761,-5.7945,-5.7022,-5.6503,-5.6137,-5.5964,-5.5742,-5.5684,-5.5684,-5.5684,-5.5684,-5.5684,-5.5684,-5.5684,-5.5684,-5.5684,-5.5684,-5.5684,-5.5684,-5.5684,-5.5684,-5.5684,-5.5665,-5.5684,-5.5684,-5.5684,-5.5684,-5.5684,-5.578,-5.6252,-5.6676,-5.7118,-5.7934,-5.8934,-5.9781,-6.0146,-6.0435,-6.0781,-6.0781,-6.08,-6.08,-6.08,-6.08,-6.08,-6.08,-6.08,-6.08,-6.08,-6.08,-6.08,-6.08,-6.08,-6.08,-6.08,-6.08,-6.08,-6.08,-6.08,-6.08,-6.08,-6.08,-6.08,-6.08,-6.08,-6.08,-6.08,-6.08,-6.08,-6.08,-6.08,-6.08,-6.08,-6.08,-6.08,-6.08,-6.08,-6.08,-6.08,-6.08,-6.08,-6.08,-6.08,-6.08,-6.08,-6.08,-6.08,-6.08,-6.08,-6.08,-6.08,-6.08,-6.08,-6.08,-6.08,-6.08,-6.08,-6.0762,-6.0646,-6.0531,-6.0396,-6.0262,-6.0262,-6.0262,-6.0416,-6.0608,-6.0704,-6.0781,-6.08,-6.08,-6.0742,-6.08,-6.0762,-6.0589,-6.0473,-6.0281,-5.9704,-5.9011,-5.7868,-5.6926,-5.6541,-5.6252,-5.6002,-5.5761,-5.5684,-5.5684,-5.5684,-5.5684,-5.5684,-5.5645,-5.5607,-5.5645,-5.5684,-5.5549,-5.5299,-5.5588,-5.5665,-5.5626,-5.5607,-5.5684,-5.5684,-5.5684,-5.5684,-5.5684,-5.5684,-5.5703,-5.6175,-5.6964,-5.7665,-5.8088,-5.828,-5.8954,-5.9742,-6.0377,-6.0627,-6.0589,-6.0531,-6.0685,-6.0781,-6.08,-6.08,-6.08,-6.08,-6.08,-6.08,-6.08,-6.08,-6.08,-6.08,-6.08,-6.08,-6.08,-6.08,-6.08,-6.08,-6.08,-6.08,-6.08,-6.08,-6.08,-6.08,-6.08,-6.08,-6.08,-6.08,-6.08,-6.08,-6.08,-6.08,-6.08,-6.08,-6.08,-6.08,-6.08,-6.08,-6.08,-6.08,-6.08,-6.08,-6.08,-6.08,-6.08,-6.08,-6.08,-6.08,-6.08,-6.08,-6.08,-6.08,-6.08,-6.08,-6.08,-6.0531,-6.0358,-6.005,-5.9838,-5.9723,-5.9665,-5.9762,-5.9954,-6.03,-6.0742,-6.08,-6.08,-6.08,-6.08,-6.08,-6.08,-6.08,-6.0781,-6.0723,-6.0454,-5.9838,-5.8915,-5.7638,-5.6964,-5.6579,-5.6214,-5.5972,-5.5742,-5.5684,-5.5703,-5.5684,-5.5684,-5.5607,-5.5511,-5.5184,-5.478,-5.4895,-5.4838,-5.5126,-5.5338,-5.5338,-5.5395,-5.5626,-5.5684,-5.5684,-5.5684,-5.5684,-5.5684,-5.5684,-5.5829,-5.6011,-5.6222,-5.6722,-5.73,-5.7492,-5.8107,-5.8896,-5.9492,-5.98,-5.9877,-6.0473,-6.0685,-6.0704,-6.0762,-6.0781,-6.08,-6.08,-6.08,-6.08,-6.08,-6.08,-6.08,-6.08,-6.08,-6.08,-6.08,-6.08,-6.08,-6.08,-6.08,-6.08,-6.08,-6.08,-6.08,-6.08,-6.08,-6.08,-6.08,-6.08,-6.08,-6.08,-6.08,-6.08,-6.08,-6.08,-6.08,-6.08,-6.08,-6.08,-6.08,-6.08,-6.08,-6.08,-6.08,-6.08,-6.08,-6.08,-6.08,-6.08,-6.08,-6.08,-6.08,-6.08,-6.08,-6.0627,-6.0319,-5.9973,-5.9608,-5.9223,-5.9088,-5.9108,-5.9281,-5.9492,-6.0127,-6.0742,-6.08,-6.08,-6.08,-6.08,-6.08,-6.08,-6.08,-6.08,-6.0781,-6.0762,-6.0377,-5.9992,-5.8819,-5.7522,-5.6983,-5.6626,-5.6261,-5.6088,-5.5838,-5.578,-5.5742,-5.5703,-5.5491,-5.5241,-5.4203,-5.3683,-5.4222,-5.4626,-5.4626,-5.4799,-5.4972,-5.5338,-5.5626,-5.5684,-5.5684,-5.5684,-5.5684,-5.5684,-5.5684,-5.5684,-5.5684,-5.5684,-5.5972,-5.6368,-5.6426,-5.6684,-5.7319,-5.8338,-5.8973,-5.9088,-5.9858,-6.0262,-6.0319,-6.0666,-6.0742,-6.08,-6.08,-6.08,-6.08,-6.08,-6.08,-6.08,-6.08,-6.08,-6.08,-6.08,-6.08,-6.08,-6.08,-6.08,-6.08,-6.08,-6.08,-6.08,-6.08,-6.08,-6.08,-6.08,-6.08,-6.08,-6.08,-6.08,-6.08,-6.08,-6.08,-6.08,-6.08,-6.08,-6.08,-6.08,-6.08,-6.08,-6.08,-6.08,-6.0762,-6.0742,-6.0742,-6.0781,-6.08,-6.08,-6.08,-6.08,-6.08,-6.0742,-6.0165,-5.9819,-5.9358,-5.8954,-5.8261,-5.7915,-5.8511,-5.9031,-5.9685,-6.0492,-6.0781,-6.08,-6.08,-6.08,-6.08,-6.08,-6.08,-6.08,-6.08,-6.08,-6.08,-6.08,-6.0454,-5.9973,-5.8665,-5.7838,-5.755,-5.703,-5.6503,-5.6222,-5.603,-5.5742,-5.5626,-5.5338,-5.4876,-5.426,-5.401,-5.4414,-5.4684,-5.4645,-5.4626,-5.4818,-5.5241,-5.5684,-5.5684,-5.5684,-5.5684,-5.5684,-5.5684,-5.5684,-5.5684,-5.5684,-5.5684,-5.5722,-5.5722,-5.5722,-5.5722,-5.5992,-5.7338,-5.7915,-5.8377,-5.8954,-5.9261,-5.9646,-6.0165,-6.0473,-6.0781,-6.08,-6.08,-6.08,-6.08,-6.08,-6.08,-6.08,-6.08,-6.08,-6.08,-6.08,-6.08,-6.08,-6.08,-6.08,-6.08,-6.08,-6.08,-6.08,-6.08,-6.08,-6.08,-6.08,-6.08,-6.08,-6.08,-6.08,-6.08,-6.08,-6.08,-6.08,-6.08,-6.08,-6.0781,-6.0589,-6.055,-6.0416,-6.0454,-6.0492,-6.0454,-6.0608,-6.0742,-6.0781,-6.08,-6.08,-6.0762,-6.0762,-6.0473,-5.9915,-5.93,-5.8838,-5.8223,-5.7511,-5.7184,-5.7992,-5.9011,-5.9935,-6.0723,-6.0781,-6.08,-6.08,-6.08,-6.08,-6.08,-6.08,-6.08,-6.08,-6.08,-6.08,-6.08,-6.0646,-6.0454,-5.9819,-5.9108,-5.855,-5.7838,-5.7165,-5.6934,-5.6703,-5.6088,-5.5511,-5.5107,-5.4876,-5.4838,-5.4741,-5.4568,-5.4722,-5.4799,-5.478,-5.4838,-5.5241,-5.5684,-5.5684,-5.5684,-5.5684,-5.5684,-5.5684,-5.5684,-5.5684,-5.5684,-5.5684,-5.5684,-5.5684,-5.5684,-5.5684,-5.5799,-5.5953,-5.653,-5.728,-5.8146,-5.8684,-5.9146,-5.9685,-6.0281,-6.0685,-6.0742,-6.0781,-6.08,-6.08,-6.08,-6.08,-6.08,-6.08,-6.08,-6.08,-6.08,-6.08,-6.08,-6.08,-6.08,-6.08,-6.08,-6.08,-6.08,-6.08,-6.08,-6.08,-6.08,-6.08,-6.08,-6.08,-6.08,-6.08,-6.08,-6.08,-6.08,-6.08,-6.0742,-6.0666,-6.0377,-6.0089,-5.9954,-5.9935,-5.9954,-6.0089,-6.03,-6.0762,-6.08,-6.08,-6.0762,-6.0666,-6.0608,-6.0454,-5.9858,-5.9069,-5.8492,-5.7723,-5.7041,-5.7146,-5.7665,-5.9108,-6.0319,-6.0646,-6.0781,-6.08,-6.08,-6.08,-6.08,-6.08,-6.08,-6.08,-6.08,-6.08,-6.08,-6.08,-6.08,-6.0666,-6.0531,-6.0108,-5.9415,-5.8627,-5.7992,-5.7742,-5.7261,-5.6472,-5.5665,-5.4818,-5.4626,-5.4857,-5.4491,-5.4107,-5.4337,-5.503,-5.5126,-5.5222,-5.5453,-5.5684,-5.5684,-5.5684,-5.5684]},{"header":{"parameterUnit":"m.s-1","parameterCategory":1,"la1":31.0,"la2":29.5877,"lo1":-88.7671,"lo2":-86.6584,"dy":0.0162,"dx":0.0185,"nx":115,"ny":88,"refTime":"2026-02-17T12:00:00:Z","depth":0,"parameterNumber":3,"parameterNumberName":"V-component_of_WINDS"},"data":[0.0,0.0,0.0,0.0,0.0,0.0,0.0,0.0,0.0,0.0,0.0,0.0,0.0,0.0,0.0,0.0,0.0,0.0,0.0,0.0,0.0,0.0,0.0,0.0,0.0,0.0,0.0,0.0,0.0,0.0,0.0,0.0,0.0,0.0,0.0,0.0,0.0,0.0,0.0,0.0,0.0,0.0,0.0,0.0,0.0,0.0,0.0,0.0,0.0,0.0,0.0,0.0,0.0,0.0,0.0,0.0,0.0,0.0,0.0,0.0,0.0,0.0,0.0,0.0,0.0,0.0,0.0,0.0,0.0,0.0,0.0,0.0,0.0,0.0,0.0,0.0,0.0,0.0,0.0,0.0,0.0,0.0,0.0,0.0,0.0,0.0,0.0,0.0,0.0,0.0,0.0,0.0,0.0,0.0,0.0,0.0,0.0,0.0,0.0,0.0,0.0,0.0,0.0,0.0,0.0,0.0,0.0,0.0,0.0,0.0,0.0,0.0,0.0,0.0,0.0,0.0,0.0,0.0,0.0,0.0,0.0,0.0,0.0,0.0,0.0,0.0,0.0,0.0,0.0,0.0,0.0,0.0,0.0,0.0,0.0,0.0,0.0,0.0,0.0,0.0,0.0,0.0,0.0,0.0,0.0,0.0,0.0,0.0,0.0,0.0,0.0,0.0,0.0,0.0,0.0,0.0,0.0,0.0,0.0,0.0,0.0,0.0,0.0,0.0,0.0,0.0,0.0,0.0,0.0,0.0,0.0,0.0,0.0,0.0,0.0,0.0,0.0,0.0,0.0,0.0,0.0,0.0,0.0,0.0,0.0,0.0,0.0,0.0,0.0,0.0,0.0,0.0,0.0,0.0,0.0,0.0,0.0,0.0,0.0,0.0,0.0,0.0,0.0,0.0,0.0,0.0,0.0,0.0,0.0,0.0,0.0,0.0,0.0,0.0,0.0,0.0,0.0,0.0,0.0,0.0,0.0,0.0,0.0,0.0,0.0,0.0,0.0,0.0,0.0,0.0,0.0,0.0,0.0,0.0,0.0,0.0,0.0,0.0,0.0,0.0,0.0,0.0,0.0,0.0,0.0,0.0,0.0,0.0,0.0,0.0,0.0,0.0,0.0,0.0,0.0,0.0,0.0,0.0,0.0,0.0,0.0,0.0,0.0,0.0,0.0,0.0,0.0,0.0,0.0,0.0,0.0,0.0,0.0,0.0,0.0,0.0,0.0,0.0,0.0,0.0,0.0,0.0,0.0,0.0,0.0,0.0,0.0,0.0,0.0,0.0,0.0,0.0,0.0,0.0,0.0,0.0,0.0,0.0,0.0,0.0,0.0,0.0,0.0,0.0,0.0,0.0,0.0,0.0,0.0,0.0,0.0,0.0,0.0,0.0,0.0,0.0,0.0,0.0,0.0,0.0,0.0,0.0,0.0,0.0,0.0,0.0,0.0,0.0,0.0,0.0,0.0,0.0,0.0,0.0,0.0,0.0,0.0,0.0,0.0,0.0,0.0,0.0,0.0,0.0,0.0,0.0,0.0,0.0,0.0,0.0,0.0,0.0,0.0,0.0,0.0,0.0,0.0,0.0,0.0,0.0,0.0,0.0,0.0,0.0,0.0,0.0,0.0,0.0,0.0,0.0,0.0,0.0,0.0,0.0,0.0,0.0,0.0,0.0,0.0,0.0,0.0,0.0,0.0,0.0,0.0,0.0,0.0,0.0,0.0,0.0,0.0,0.0,0.0,0.0,0.0,0.0,0.0,0.0,0.0,0.0,0.0,0.0,0.0,0.0,0.0,0.0,0.0,0.0,0.0,0.0,0.0,0.0,0.0,0.0,0.0,0.0,0.0,0.0,0.0,0.0,0.0,0.0,0.0,0.0,0.0,0.0,0.0,0.0,0.0,0.0,0.0,0.0,0.0,0.0,0.0,0.0,0.0,0.0,0.0,0.0,0.0,0.0,0.0,0.0,0.0,0.0,0.0,0.0,0.0,0.0,0.0,0.0,0.0,0.0,0.0,0.0,0.0,0.0,0.0,0.0,0.0,0.0,0.0,0.0,0.0,0.0,0.0,0.0,0.0,0.0,0.0,0.0,0.0,0.0,0.0,0.0,0.0,0.0,0.0,0.0,0.0,0.0,0.0,0.0,0.0,0.0,0.0,0.0,0.0,0.0,0.0,0.0,0.0,0.0,0.0,0.0,0.0,0.0,0.0,0.0,0.0,0.0,0.0,0.0,0.0,0.0,0.0,0.0,0.0,0.0,0.0,0.0,0.0,0.0,0.0,0.0,0.0,0.0,0.0,0.0,0.0,0.0,0.0,0.0,0.0,0.0,0.0,0.0,0.0,0.0,0.0,0.0,0.0,0.0,0.0,0.0,0.0,0.0,0.0,0.0,0.0,0.0,0.0,0.0,0.0,0.0,0.0,0.0,0.0,0.0,0.0,0.0,0.0,0.0,0.0,0.0,0.0,0.0,0.0,0.0,0.0,0.0,0.0,0.0,0.0,0.0,0.0,0.0,0.0,0.0,0.0,0.0,0.0,0.0,0.0,0.0,0.0,0.0,0.0,0.0,0.0,0.0,0.0,0.0,0.0,0.0,0.0,0.0,0.0,0.0,0.0,0.0,0.0,0.0,0.0,0.0,0.0,0.0,0.0,0.0,0.0,0.0,0.0,0.0,0.0,0.0,0.0,0.0,0.0,0.0,0.0,0.0,0.0,0.0,0.0,0.0,0.0,0.0,0.0,0.0,0.0,0.0,0.0,0.0,0.0,0.0,0.0,0.0,0.0,0.0,0.0,0.0,0.0,0.0,0.0,0.0,0.0,0.0,0.0,0.0,0.0,0.0,0.0,0.0,0.0,0.0,0.0,0.0,0.0,0.0,0.0,0.0,0.0,0.0,0.0,0.0,0.0,0.0,0.0,0.0,0.0,0.0,0.0,0.0,0.0,0.0,0.0,0.0,0.0,0.0,0.0,0.0,0.0,0.0,0.0,0.0,0.0,0.0,0.0,0.0,0.0,0.0,0.0,0.0,0.0,0.0,0.0,0.0,0.0,0.0,0.0,0.0,0.0,0.0,0.0,0.0,0.0,0.0,0.0,0.0,0.0,0.0,0.0,0.0,0.0,0.0,0.0,0.0,0.0,0.0,0.0,0.0,0.0,0.0,0.0,0.0,0.0,0.0,0.0,0.0,0.0,0.0,0.0,0.0,0.0,0.0,0.0,0.0,0.0,0.0,0.0,0.0,0.0,0.0,0.0,0.0,0.0,0.0,0.0,0.0,0.0,0.0,0.0,0.0,0.0,0.0,0.0,0.0,0.0,0.0,0.0,0.0,0.0,0.0,0.0,0.0,0.0,0.0,0.0,0.0,0.0,0.0,0.0,0.0,0.0,0.0,0.0,0.0,0.0,0.0,0.0,0.0,0.0,0.0,0.0,0.0,0.0,0.0,0.0,0.0,0.0,0.0,0.0,0.0,0.0,0.0,0.0,0.0,0.0,0.0,0.0,0.0,0.0,0.0,0.0,0.0,0.0,0.0,0.0,0.0,0.0,0.0,0.0,0.0,0.0,0.0,0.0,0.0,0.0,0.0,0.0,0.0,0.0,0.0,0.0,0.0,0.0,0.0,0.0,0.0,0.0,0.0,0.0,0.0,0.0,0.0,0.0,0.0,0.0,0.0,0.0,0.0,0.0,0.0,0.0,0.0,0.0,0.0,0.0,0.0,0.0,0.0,0.0,0.0,0.0,0.0,0.0,0.0,0.0,0.0,0.0,0.0,0.0,0.0,0.0,0.0,0.0,0.0,0.0,0.0,0.0,0.0,0.0,0.0,0.0,0.0,0.0,0.0,0.0,0.0,0.0,0.0,0.0,0.0,0.0,0.0,0.0,0.0,0.0,0.0,0.0,0.0,0.0,0.0,0.0,0.0,0.0,0.0,0.0,0.0,0.0,0.0,0.0,0.0,0.0,0.0,0.0,0.0,0.0,0.0,0.0,0.0,0.0,0.0,0.0,0.0,0.0,0.0,0.0,0.0,0.0,0.0,0.0,0.0,0.0,0.0,0.0,0.0,0.0,0.0,0.0,0.0,0.0,0.0,0.0,0.0,0.0,0.0,0.0,0.0,0.0,0.0,0.0,0.0,0.0,0.0,0.0,0.0,0.0,0.0,0.0,0.0,0.0,0.0,0.0,0.0,0.0,0.0,0.0,0.0,0.0,0.0,0.0,0.0,0.0,0.0,0.0,0.0,0.0,0.0,0.0,0.0,0.0,0.0,0.0,0.0,-0.5571,0.0,0.0,0.0,0.0,0.0,0.0,0.0,0.0,0.0,0.0,0.0,0.0,0.0,0.0,0.0,0.0,0.0,0.0,0.0,0.0,0.0,0.0,0.0,0.0,0.0,0.0,0.0,0.0,0.0,0.0,0.0,0.0,0.0,0.0,0.0,0.0,0.0,0.0,0.0,0.0,0.0,0.0,0.0,0.0,0.0,0.0,0.0,0.0,0.0,0.0,0.0,0.0,0.0,0.0,0.0,0.0,0.0,0.0,0.0,0.0,0.0,0.0,0.0,0.0,0.0,0.0,0.0,0.0,0.0,0.0,0.0,0.0,0.0,0.0,0.0,0.0,0.0,0.0,0.0,0.0,0.0,0.0,0.0,0.0,0.0,0.0,0.0,0.0,0.0,0.0,0.0,0.0,0.0,0.0,0.0,0.0,0.0,0.0,0.0,0.0,0.0,0.0,0.0,0.0,0.0,0.0,0.0,0.0,0.0,0.0,-0.6094,-0.5926,-0.5992,-0.5839,-0.547,0.0,0.0,0.0,0.0,0.0,0.0,0.0,0.0,0.0,0.0,0.0,0.0,0.0,0.0,0.0,0.0,0.0,0.0,0.0,0.0,0.0,0.0,0.0,0.0,0.0,0.0,0.0,0.0,0.0,0.0,0.0,0.0,0.0,0.0,0.0,0.0,0.0,0.0,0.0,0.0,0.0,0.0,0.0,0.0,0.0,0.0,0.0,0.0,0.0,0.0,0.0,0.0,0.0,0.0,0.0,0.0,0.0,0.0,0.0,0.0,0.0,0.0,0.0,0.0,0.0,0.0,0.0,0.0,0.0,0.0,0.0,0.0,0.0,0.0,0.0,0.0,0.0,0.0,0.0,0.0,0.0,0.0,0.0,0.0,0.0,0.0,0.0,0.0,0.0,0.0,0.0,0.0,0.0,0.0,0.0,0.0,0.0,0.0,0.0,0.0,0.0,0.0,0.0,0.0,0.0,0.0,0.0,0.0,0.0,0.0,0.0,0.0,-0.6098,-0.5937,-0.5648,0.0,0.0,0.0,0.0,0.0,0.0,0.0,0.0,0.0,0.0,0.0,0.0,0.0,0.0,0.0,0.0,0.0,0.0,0.0,0.0,0.0,0.0,0.0,0.0,0.0,0.0,0.0,0.0,0.0,0.0,0.0,0.0,0.0,0.0,0.0,0.0,0.0,0.0,0.0,0.0,0.0,0.0,0.0,0.0,0.0,0.0,0.0,0.0,0.0,0.0,0.0,0.0,0.0,0.0,0.0,0.0,0.0,0.0,0.0,0.0,0.0,0.0,0.0,0.0,0.0,0.0,0.0,0.0,0.0,0.0,0.0,0.0,0.0,0.0,0.0,0.0,0.0,0.0,0.0,0.0,0.0,0.0,0.0,0.0,0.0,0.0,0.0,0.0,0.0,0.0,0.0,0.0,0.0,0.0,0.0,0.0,0.0,0.0,0.0,0.0,0.0,0.0,0.0,0.0,0.0,0.0,0.0,0.0,0.0,0.0,-0.6136,-0.6607,-0.6637,0.0,-0.6592,0.0,0.0,0.0,0.0,0.0,0.0,0.0,0.0,0.0,0.0,0.0,0.0,0.0,0.0,0.0,0.0,0.0,0.0,0.0,0.0,0.0,0.0,0.0,0.0,0.0,0.0,0.0,0.0,0.0,0.0,0.0,0.0,0.0,0.0,0.0,0.0,0.0,0.0,0.0,0.0,0.0,0.0,0.0,0.0,0.0,0.0,0.0,0.0,0.0,0.0,0.0,0.0,0.0,0.0,0.0,0.0,0.0,0.0,0.0,0.0,0.0,0.0,0.0,0.0,0.0,0.0,0.0,0.0,0.0,0.0,0.0,0.0,0.0,0.0,0.0,0.0,0.0,0.0,0.0,0.0,0.0,0.0,0.0,0.0,0.0,0.0,0.0,0.0,0.0,0.0,0.0,0.0,0.0,0.0,0.0,0.0,0.0,0.0,0.0,0.0,0.0,0.0,0.0,0.0,0.0,0.0,0.0,0.0,0.0,0.0,-0.631,-0.6526,-0.6453,-0.6445,0.0,0.0,0.0,0.0,0.0,0.0,0.0,0.0,0.0,0.0,0.0,0.0,0.0,0.0,0.0,0.0,0.0,0.0,0.0,0.0,0.0,0.0,0.0,0.0,0.0,0.0,0.0,0.0,0.0,0.0,0.0,0.0,0.0,0.0,0.0,0.0,0.0,0.0,0.0,0.0,0.0,0.0,0.0,0.0,0.0,0.0,0.0,0.0,0.0,0.0,0.0,0.0,0.0,0.0,0.0,0.0,0.0,0.0,0.0,0.0,0.0,0.0,0.0,0.0,0.0,0.0,0.0,0.0,0.0,0.0,0.0,0.0,0.0,0.0,0.0,0.0,0.0,0.0,0.0,0.0,0.0,0.0,0.0,0.0,0.0,0.0,0.0,0.0,0.0,0.0,0.0,0.0,0.0,0.0,0.0,0.0,0.0,0.0,0.0,0.0,0.0,0.0,0.0,0.0,0.0,0.0,0.0,0.0,0.0,0.0,-0.6266,0.0,-0.6589,-0.6494,-0.6392,-0.631,0.0,0.0,0.0,0.0,0.0,0.0,0.0,0.0,0.0,0.0,0.0,0.0,0.0,0.0,0.0,0.0,0.0,0.0,0.0,0.0,0.0,0.0,0.0,0.0,0.0,0.0,0.0,0.0,0.0,0.0,0.0,0.0,0.0,0.0,0.0,0.0,0.0,0.0,0.0,0.0,0.0,0.0,0.0,0.0,0.0,0.0,0.0,0.0,0.0,0.0,0.0,0.0,0.0,0.0,0.0,0.0,0.0,0.0,0.0,0.0,0.0,0.0,0.0,0.0,0.0,0.0,0.0,0.0,0.0,0.0,0.0,0.0,0.0,0.0,0.0,0.0,0.0,0.0,0.0,0.0,0.0,0.0,0.0,0.0,0.0,0.0,0.0,0.0,0.0,0.0,0.0,0.0,0.0,0.0,0.0,0.0,0.0,0.0,0.0,0.0,0.0,0.0,0.0,0.0,0.0,0.0,0.0,0.0,0.0,-0.6621,-0.663,-0.7122,-0.7013,-0.6676,0.0,0.0,0.0,0.0,0.0,0.0,0.0,0.0,0.0,0.0,0.0,0.0,0.0,0.0,0.0,0.0,0.0,0.0,0.0,0.0,0.0,0.0,0.0,0.0,0.0,0.0,0.0,0.0,0.0,0.0,0.0,0.0,0.0,0.0,0.0,0.0,0.0,0.0,0.0,0.0,0.0,0.0,0.0,0.0,0.0,0.0,0.0,0.0,0.0,0.0,0.0,0.0,0.0,0.0,0.0,0.0,0.0,0.0,0.0,0.0,0.0,0.0,0.0,0.0,0.0,0.0,0.0,0.0,0.0,0.0,0.0,0.0,0.0,0.0,0.0,0.0,0.0,0.0,0.0,0.0,0.0,0.0,0.0,0.0,0.0,0.0,0.0,0.0,0.0,0.0,0.0,0.0,0.0,0.0,0.0,0.0,0.0,0.0,0.0,0.0,0.0,0.0,0.0,0.0,0.0,0.0,0.0,0.0,0.0,-0.5956,-0.6133,-0.6573,-0.733,-0.6808,-0.6433,0.0,0.0,0.0,0.0,0.0,0.0,0.0,0.0,0.0,0.0,0.0,0.0,0.0,0.0,0.0,0.0,0.0,0.0,0.0,0.0,0.0,0.0,0.0,0.0,0.0,0.0,0.0,0.0,0.0,0.0,0.0,0.0,0.0,0.0,0.0,0.0,0.0,0.0,0.0,0.0,0.0,0.0,0.0,0.0,0.0,0.0,0.0,0.0,0.0,0.0,0.0,0.0,0.0,0.0,0.0,0.0,0.0,0.0,0.0,0.0,0.0,0.0,0.0,0.0,0.0,0.0,0.0,0.0,0.0,0.0,0.0,0.0,0.0,0.0,0.0,0.0,0.0,0.0,0.0,0.0,0.0,0.0,0.0,0.0,0.0,0.0,0.0,0.0,0.0,0.0,0.0,0.0,0.0,0.0,0.0,0.0,0.0,0.0,0.0,0.0,0.0,0.0,0.0,0.0,0.0,0.0,0.0,0.0,0.0,-0.5761,0.0,-0.6729,0.0,-0.6559,-0.6126,0.0,0.0,0.0,0.0,0.0,0.0,0.0,0.0,0.0,0.0,0.0,0.0,0.0,0.0,0.0,0.0,0.0,0.0,0.0,0.0,0.0,0.0,0.0,0.0,0.0,0.0,0.0,0.0,0.0,0.0,0.0,0.0,0.0,0.0,0.0,0.0,0.0,0.0,0.0,0.0,0.0,0.0,0.0,0.0,0.0,0.0,0.0,0.0,0.0,0.0,0.0,0.0,0.0,0.0,0.0,0.0,0.0,0.0,0.0,0.0,0.0,0.0,0.0,0.0,0.0,0.0,0.0,0.0,0.0,0.0,0.0,0.0,0.0,0.0,0.0,0.0,0.0,0.0,0.0,0.0,0.0,0.0,0.0,0.0,0.0,0.0,0.0,0.0,0.0,0.0,0.0,0.0,0.0,0.0,0.0,0.0,0.0,0.0,0.0,0.0,0.0,0.0,0.0,0.0,0.0,0.0,0.0,0.0,-0.5761,-0.6631,-0.7001,-0.7025,-0.6717,-0.638,-0.5883,0.0,0.0,0.0,0.0,0.0,0.0,0.0,0.0,0.0,0.0,0.0,0.0,0.0,0.0,0.0,0.0,0.0,0.0,0.0,0.0,0.0,0.0,0.0,0.0,0.0,0.0,0.0,0.0,0.0,0.0,0.0,0.0,0.0,0.0,0.0,0.0,0.0,0.0,0.0,0.0,0.0,0.0,0.0,0.0,0.0,0.0,0.0,0.0,0.0,0.0,0.0,0.0,0.0,0.0,0.0,0.0,0.0,0.0,0.0,0.0,0.0,0.0,0.0,0.0,0.0,0.0,0.0,0.0,0.0,0.0,0.0,0.0,0.0,0.0,0.0,0.0,0.0,0.0,0.0,0.0,0.0,0.0,0.0,0.0,0.0,0.0,0.0,0.0,0.0,0.0,0.0,0.0,0.0,0.0,0.0,0.0,0.0,0.0,0.0,0.0,0.0,0.0,0.0,0.0,0.0,0.0,0.0,0.0,0.0,-0.6144,-0.6603,-0.6915,-0.6993,-0.6384,-0.5982,0.0,0.0,0.0,0.0,0.0,0.0,0.0,0.0,0.0,0.0,0.0,0.0,0.0,0.0,0.0,0.0,0.0,0.0,0.0,0.0,0.0,0.0,0.0,0.0,0.0,0.0,0.0,0.0,0.0,0.0,0.0,0.0,0.0,0.0,0.0,0.0,0.0,0.0,0.0,0.0,0.0,0.0,0.0,0.0,0.0,0.0,0.0,0.0,0.0,0.0,0.0,0.0,0.0,0.0,0.0,0.0,0.0,0.0,0.0,0.0,0.0,0.0,0.0,0.0,0.0,0.0,0.0,0.0,0.0,0.0,0.0,0.0,0.0,0.0,0.0,0.0,0.0,0.0,0.0,0.0,0.0,0.0,0.0,0.0,0.0,0.0,0.0,0.0,0.0,0.0,0.0,0.0,0.0,0.0,0.0,0.0,0.0,0.0,0.0,0.0,0.0,0.0,0.0,0.0,0.0,0.0,0.0,0.0,0.0,-0.6416,-0.6838,-0.7127,-0.7187,-0.6554,-0.6136,-0.5983,0.0,0.0,0.0,0.0,0.0,0.0,0.0,0.0,0.0,0.0,0.0,0.0,0.0,0.0,0.0,0.0,0.0,0.0,0.0,0.0,0.0,0.0,0.0,0.0,0.0,0.0,0.0,0.0,0.0,0.0,0.0,0.0,0.0,0.0,0.0,0.0,0.0,0.0,0.0,0.0,0.0,0.0,0.0,0.0,0.0,0.0,0.0,0.0,0.0,0.0,0.0,0.0,0.0,0.0,0.0,0.0,0.0,0.0,0.0,0.0,0.0,0.0,0.0,0.0,0.0,0.0,0.0,0.0,0.0,0.0,0.0,0.0,0.0,0.0,0.0,0.0,0.0,0.0,0.0,0.0,0.0,0.0,0.0,0.0,0.0,0.0,0.0,0.0,0.0,0.0,0.0,0.0,0.0,0.0,0.0,0.0,0.0,0.0,0.0,0.0,0.0,0.0,0.0,0.0,0.0,0.0,0.0,0.0,-0.7269,-0.7642,-0.771,-0.7284,-0.6932,-0.6323,0.0,0.0,0.0,0.0,0.0,0.0,0.0,0.0,0.0,0.0,0.0,0.0,0.0,0.0,0.0,0.0,0.0,0.0,0.0,0.0,0.0,0.0,0.0,0.0,0.0,0.0,0.0,0.0,0.0,0.0,0.0,0.0,0.0,0.0,0.0,0.0,0.0,0.0,0.0,0.0,0.0,0.0,0.0,0.0,0.0,0.0,0.0,0.0,0.0,0.0,0.0,0.0,0.0,0.0,0.0,0.0,0.0,0.0,0.0,0.0,0.0,0.0,0.0,0.0,0.0,0.0,0.0,0.0,0.0,0.0,0.0,0.0,0.0,0.0,0.0,0.0,0.0,0.0,0.0,0.0,0.0,0.0,0.0,0.0,0.0,0.0,0.0,0.0,0.0,0.0,0.0,0.0,0.0,0.0,0.0,0.0,0.0,0.0,0.0,0.0,0.0,0.0,0.0,0.0,0.0,0.0,0.0,0.0,0.0,-0.7801,-0.8422,-0.8576,-0.8215,-0.7484,-0.6915,0.0,0.0,0.0,0.0,0.0,0.0,0.0,0.0,0.0,0.0,0.0,0.0,0.0,0.0,0.0,0.0,0.0,0.0,0.0,0.0,0.0,0.0,0.0,0.0,0.0,0.0,0.0,0.0,0.0,0.0,0.0,0.0,0.0,0.0,0.0,0.0,0.0,0.0,0.0,0.0,0.0,0.0,0.0,0.0,0.0,0.0,0.0,0.0,0.0,0.0,0.0,0.0,0.0,0.0,0.0,0.0,0.0,0.0,0.0,0.0,0.0,0.0,0.0,0.0,0.0,0.0,0.0,0.0,0.0,0.0,0.0,0.0,0.0,0.0,0.0,0.0,0.0,0.0,0.0,0.0,0.0,0.0,0.0,0.0,0.0,0.0,0.0,0.0,0.0,0.0,0.0,0.0,0.0,0.0,0.0,0.0,0.0,0.0,0.0,0.0,0.0,0.0,0.0,0.0,0.0,0.0,0.0,0.0,-0.76,-0.8294,-0.8986,-0.9222,-0.9019,-0.8288,-0.7594,0.0,0.0,0.0,0.0,0.0,0.0,0.0,0.0,0.0,0.0,0.0,0.0,0.0,0.0,0.0,0.0,0.0,0.0,0.0,0.0,0.0,0.0,0.0,0.0,0.0,0.0,0.0,0.0,0.0,0.0,0.0,0.0,0.0,0.0,0.0,0.0,0.0,0.0,0.0,0.0,0.0,0.0,0.0,0.0,0.0,0.0,0.0,0.0,0.0,0.0,0.0,0.0,0.0,0.0,0.0,0.0,0.0,0.0,0.0,0.0,0.0,0.0,0.0,0.0,0.0,0.0,0.0,0.0,0.0,0.0,0.0,0.0,0.0,0.0,0.0,0.0,0.0,0.0,0.0,0.0,0.0,0.0,0.0,0.0,0.0,0.0,0.0,0.0,0.0,0.0,0.0,0.0,0.0,0.0,0.0,0.0,0.0,0.0,0.0,0.0,0.0,0.0,0.0,0.0,0.0,0.0,0.0,0.0,-0.7939,-0.8755,-0.9368,-0.9652,-0.9591,-0.9029,-0.8257,0.0,0.0,0.0,0.0,0.0,0.0,0.0,0.0,0.0,0.0,0.0,0.0,0.0,0.0,0.0,0.0,0.0,0.0,0.0,0.0,0.0,0.0,0.0,0.0,0.0,0.0,0.0,0.0,0.0,0.0,0.0,0.0,0.0,0.0,0.0,0.0,0.0,0.0,0.0,0.0,0.0,0.0,0.0,0.0,0.0,0.0,0.0,0.0,0.0,0.0,0.0,0.0,0.0,0.0,0.0,0.0,0.0,0.0,0.0,0.0,0.0,0.0,0.0,0.0,0.0,0.0,0.0,0.0,0.0,0.0,0.0,0.0,0.0,0.0,0.0,0.0,0.0,0.0,0.0,0.0,0.0,0.0,0.0,0.0,0.0,0.0,0.0,0.0,0.0,0.0,0.0,0.0,0.0,0.0,0.0,0.0,0.0,0.0,0.0,0.0,0.0,0.0,0.0,0.0,0.0,0.0,0.0,0.0,-0.8069,-0.8808,-0.9482,-0.9831,-0.9827,-0.8905,-0.8325,0.0,0.0,0.0,0.0,0.0,0.0,0.0,0.0,0.0,0.0,0.0,0.0,0.0,0.0,0.0,0.0,0.0,0.0,0.0,0.0,0.0,0.0,0.0,0.0,0.0,0.0,0.0,0.0,0.0,0.0,0.0,0.0,0.0,0.0,0.0,0.0,0.0,0.0,0.0,0.0,0.0,0.0,0.0,0.0,0.0,0.0,0.0,0.0,-0.4662,0.0,0.0,0.0,0.0,0.0,0.0,0.0,0.0,0.0,0.0,0.0,0.0,0.0,0.0,0.0,0.0,0.0,0.0,0.0,0.0,0.0,0.0,0.0,0.0,0.0,0.0,0.0,0.0,0.0,0.0,0.0,0.0,0.0,0.0,0.0,0.0,0.0,0.0,0.0,0.0,0.0,0.0,0.0,0.0,0.0,0.0,0.0,0.0,0.0,0.0,0.0,0.0,0.0,0.0,0.0,0.0,0.0,0.0,0.0,-0.8308,-0.9173,-0.9567,-0.9803,-0.9847,-0.9011,-0.8624,0.0,0.0,0.0,0.0,0.0,0.0,0.0,0.0,0.0,0.0,0.0,0.0,0.0,0.0,0.0,0.0,0.0,0.0,0.0,0.0,0.0,0.0,0.0,0.0,0.0,0.0,0.0,0.0,0.0,0.0,0.0,0.0,0.0,0.0,0.0,0.0,0.0,0.0,0.0,0.0,0.0,0.0,0.0,0.0,0.0,0.0,0.0,0.0,0.0,0.0,0.0,0.0,0.0,0.0,0.0,0.0,0.0,0.0,0.0,0.0,0.0,0.0,0.0,0.0,0.0,0.0,0.0,0.0,0.0,0.0,0.0,0.0,0.0,0.0,0.0,0.0,0.0,0.0,0.0,0.0,0.0,0.0,0.0,0.0,0.0,0.0,0.0,0.0,0.0,0.0,0.0,0.0,0.0,0.0,0.0,0.0,0.0,0.0,0.0,0.0,0.0,0.0,0.0,0.0,0.0,0.0,0.0,-0.7876,-0.8499,-0.9535,-0.9562,-0.9697,-0.9831,-0.9206,-0.8901,-0.9087,0.0,0.0,0.0,0.0,0.0,0.0,0.0,0.0,0.0,0.0,0.0,0.0,0.0,0.0,0.0,0.0,0.0,0.0,0.0,0.0,0.0,0.0,0.0,0.0,0.0,0.0,0.0,0.0,0.0,0.0,0.0,0.0,0.0,0.0,0.0,0.0,0.0,0.0,-0.4556,-0.5056,0.0,0.0,0.0,0.0,0.0,0.0,0.0,0.0,-0.5011,0.0,0.0,0.0,0.0,0.0,0.0,0.0,0.0,0.0,0.0,0.0,0.0,0.0,0.0,0.0,0.0,0.0,0.0,0.0,0.0,0.0,0.0,0.0,0.0,0.0,0.0,0.0,0.0,0.0,0.0,0.0,0.0,0.0,0.0,0.0,0.0,0.0,0.0,0.0,0.0,0.0,0.0,0.0,0.0,0.0,0.0,0.0,0.0,0.0,0.0,0.0,0.0,0.0,0.0,0.0,0.0,-0.7925,-0.7853,-0.8363,-0.9416,-0.9547,-0.9591,-0.9657,-0.9271,-0.9076,-0.9037,0.0,0.0,0.0,0.0,0.0,0.0,0.0,0.0,0.0,0.0,0.0,0.0,0.0,0.0,0.0,0.0,0.0,0.0,0.0,0.0,0.0,0.0,0.0,0.0,0.0,0.0,0.0,0.0,0.0,0.0,0.0,0.0,0.0,0.0,0.0,0.0,0.0,0.0,0.0,-0.5784,-0.6,0.0,0.0,0.0,0.0,0.0,0.0,0.0,0.0,-0.5003,0.0,0.0,0.0,0.0,0.0,0.0,0.0,0.0,0.0,0.0,0.0,0.0,0.0,0.0,0.0,0.0,0.0,0.0,0.0,0.0,0.0,0.0,0.0,0.0,0.0,0.0,0.0,0.0,0.0,0.0,0.0,0.0,0.0,0.0,0.0,0.0,0.0,0.0,0.0,0.0,0.0,0.0,0.0,0.0,0.0,0.0,0.0,0.0,0.0,0.0,0.0,0.0,0.0,0.0,0.0,-0.7714,-0.8113,-0.8694,-0.9466,-0.9583,-0.9624,-0.9616,-0.9104,-0.874,0.0,0.0,0.0,0.0,0.0,0.0,0.0,0.0,0.0,0.0,0.0,0.0,0.0,0.0,0.0,0.0,0.0,0.0,0.0,0.0,0.0,0.0,0.0,0.0,0.0,0.0,0.0,0.0,0.0,0.0,0.0,0.0,0.0,0.0,0.0,0.0,0.0,0.0,0.0,0.0,-0.6116,-0.6355,-0.6461,0.0,0.0,0.0,0.0,0.0,0.0,-0.5515,-0.5279,0.0,0.0,0.0,0.0,0.0,0.0,0.0,0.0,0.0,0.0,0.0,0.0,0.0,0.0,0.0,0.0,0.0,0.0,0.0,0.0,0.0,0.0,0.0,0.0,0.0,0.0,0.0,0.0,0.0,0.0,0.0,0.0,0.0,0.0,0.0,0.0,0.0,0.0,0.0,0.0,0.0,0.0,0.0,0.0,0.0,0.0,0.0,0.0,0.0,0.0,0.0,0.0,0.0,0.0,0.0,-0.7663,-0.8335,-0.8965,-0.9592,-0.9624,-0.9558,-0.9563,-0.895,-0.8394,0.0,0.0,0.0,0.0,0.0,0.0,0.0,0.0,0.0,0.0,0.0,0.0,0.0,0.0,0.0,0.0,0.0,0.0,0.0,0.0,0.0,0.0,0.0,0.0,0.0,0.0,0.0,0.0,0.0,0.0,0.0,0.0,0.0,0.0,0.0,0.0,0.0,0.0,0.0,0.0,0.0,-0.6741,-0.6914,-0.6596,0.0,0.0,0.0,0.0,-0.6098,-0.601,0.0,0.0,0.0,0.0,0.0,0.0,0.0,0.0,0.0,0.0,0.0,0.0,0.0,0.0,0.0,0.0,0.0,0.0,0.0,0.0,0.0,0.0,0.0,0.0,0.0,0.0,0.0,0.0,0.0,0.0,0.0,0.0,0.0,0.0,0.0,0.0,0.0,0.0,0.0,0.0,0.0,0.0,0.0,0.0,0.0,0.0,0.0,0.0,0.0,0.0,0.0,0.0,0.0,0.0,0.0,0.0,-0.8134,-0.83,-0.8771,-0.9575,-0.9624,-0.9551,-0.9437,-0.8999,-0.8398,0.0,0.0,0.0,0.0,0.0,0.0,0.0,0.0,0.0,0.0,0.0,0.0,0.0,0.0,0.0,0.0,0.0,0.0,0.0,0.0,0.0,0.0,0.0,0.0,0.0,0.0,0.0,0.0,0.0,0.0,0.0,0.0,0.0,0.0,0.0,0.0,0.0,0.0,0.0,0.0,0.0,-0.7429,-0.6806,-0.6837,-0.6833,0.0,0.0,-0.6444,-0.6812,-0.6948,0.0,0.0,0.0,0.0,0.0,0.0,0.0,0.0,0.0,0.0,0.0,0.0,0.0,0.0,0.0,0.0,0.0,0.0,0.0,0.0,0.0,0.0,0.0,0.0,0.0,0.0,0.0,0.0,0.0,0.0,0.0,0.0,0.0,0.0,0.0,0.0,0.0,0.0,0.0,0.0,0.0,0.0,0.0,0.0,0.0,0.0,0.0,0.0,0.0,0.0,0.0,0.0,0.0,0.0,0.0,-0.7065,-0.8275,-0.8572,-0.9035,-0.96,-0.9624,-0.9539,-0.9408,-0.8812,-0.8195,0.0,0.0,0.0,0.0,0.0,0.0,0.0,0.0,0.0,0.0,0.0,0.0,0.0,0.0,0.0,0.0,0.0,0.0,0.0,0.0,0.0,0.0,0.0,0.0,0.0,0.0,0.0,0.0,0.0,0.0,0.0,0.0,0.0,0.0,0.0,0.0,0.0,0.0,0.0,0.0,0.0,0.0,-0.7309,-0.74,0.0,0.0,0.0,-0.7078,-0.7269,0.0,0.0,0.0,0.0,0.0,0.0,0.0,0.0,0.0,0.0,0.0,0.0,0.0,0.0,0.0,0.0,0.0,0.0,0.0,0.0,0.0,0.0,0.0,0.0,0.0,0.0,0.0,0.0,0.0,0.0,0.0,0.0,0.0,0.0,0.0,0.0,0.0,0.0,0.0,0.0,0.0,0.0,0.0,0.0,0.0,0.0,0.0,0.0,0.0,0.0,0.0,0.0,0.0,0.0,0.0,0.0,0.0,-0.8284,-0.8811,-0.9271,-0.9612,-0.9624,-0.9518,-0.9335,-0.8686,0.0,0.0,0.0,0.0,0.0,0.0,0.0,0.0,0.0,0.0,0.0,0.0,0.0,0.0,0.0,0.0,0.0,0.0,0.0,0.0,0.0,0.0,0.0,0.0,0.0,0.0,0.0,-0.3027,0.0,0.0,0.0,0.0,0.0,0.0,0.0,0.0,0.0,0.0,0.0,0.0,0.0,0.0,-0.7456,-0.7763,-0.7918,-0.8,0.0,0.0,-0.7614,-0.7618,-0.7626,-0.7301,0.0,0.0,0.0,0.0,0.0,0.0,0.0,0.0,0.0,0.0,0.0,0.0,0.0,0.0,0.0,0.0,0.0,0.0,0.0,0.0,0.0,0.0,0.0,0.0,0.0,0.0,0.0,0.0,0.0,0.0,0.0,0.0,0.0,0.0,0.0,0.0,0.0,0.0,0.0,0.0,0.0,0.0,0.0,0.0,0.0,0.0,0.0,0.0,0.0,0.0,0.0,0.0,0.0,0.0,0.0,-0.8293,-0.8811,-0.9271,-0.9612,-0.9624,-0.9466,-0.912,-0.8747,-0.8098,0.0,0.0,0.0,0.0,0.0,0.0,0.0,0.0,0.0,0.0,0.0,0.0,0.0,0.0,0.0,0.0,0.0,0.0,0.0,0.0,0.0,0.0,0.0,0.0,0.0,0.0,0.0,0.0,0.0,0.0,0.0,0.0,0.0,0.0,0.0,0.0,0.0,0.0,0.0,0.0,0.0,-0.7771,-0.7796,-0.8237,-0.8555,0.0,0.0,-0.7979,-0.7979,-0.8342,-0.8191,-0.6652,0.0,0.0,0.0,0.0,0.0,0.0,0.0,0.0,0.0,0.0,0.0,0.0,0.0,0.0,0.0,0.0,0.0,0.0,0.0,0.0,0.0,0.0,0.0,0.0,0.0,0.0,0.0,0.0,0.0,0.0,0.0,0.0,0.0,0.0,0.0,0.0,0.0,0.0,0.0,0.0,0.0,0.0,0.0,0.0,0.0,0.0,0.0,0.0,0.0,0.0,0.0,0.0,0.0,-0.732,-0.828,-0.8811,-0.9271,-0.9608,-0.9624,-0.9356,-0.8938,-0.8743,-0.8102,0.0,0.0,0.0,0.0,0.0,0.0,0.0,0.0,0.0,0.0,0.0,0.0,0.0,0.0,0.0,0.0,0.0,0.0,0.0,0.0,0.0,0.0,0.0,0.0,0.0,0.0,0.0,0.0,-0.3583,-0.3545,-0.3523,0.0,0.0,0.0,0.0,0.0,0.0,0.0,0.0,0.0,0.0,-0.7922,-0.8253,-0.8524,0.0,0.0,-0.8601,-0.8475,-0.8369,-0.8333,-0.8,-0.7029,-0.6599,0.0,0.0,0.0,0.0,0.0,0.0,0.0,0.0,0.0,0.0,0.0,0.0,0.0,0.0,0.0,0.0,0.0,0.0,0.0,0.0,0.0,0.0,0.0,0.0,0.0,0.0,0.0,0.0,0.0,0.0,0.0,0.0,0.0,0.0,0.0,0.0,0.0,0.0,0.0,0.0,0.0,0.0,0.0,0.0,0.0,0.0,0.0,0.0,0.0,0.0,0.0,0.0,-0.7311,-0.8138,-0.8796,-0.9271,-0.9571,-0.9624,-0.9397,-0.8876,-0.8735,-0.8138,0.0,0.0,0.0,0.0,0.0,0.0,0.0,0.0,0.0,0.0,0.0,0.0,0.0,0.0,0.0,0.0,0.0,0.0,0.0,0.0,0.0,0.0,0.0,0.0,0.0,0.0,0.0,0.0,-0.406,-0.3903,-0.3649,0.0,0.0,0.0,0.0,0.0,0.0,0.0,0.0,0.0,0.0,-0.8016,-0.8543,-0.8763,-0.8881,-0.8828,-0.8731,-0.8621,-0.8547,-0.8264,-0.7898,-0.728,0.0,0.0,0.0,0.0,0.0,0.0,0.0,0.0,0.0,0.0,0.0,0.0,0.0,0.0,0.0,0.0,0.0,0.0,0.0,0.0,0.0,0.0,0.0,0.0,0.0,0.0,0.0,-0.5575,0.0,0.0,-0.5305,0.0,0.0,0.0,0.0,0.0,0.0,0.0,0.0,0.0,0.0,0.0,0.0,0.0,0.0,0.0,0.0,0.0,0.0,0.0,0.0,0.0,0.0,-0.689,-0.7788,-0.8682,-0.9271,-0.9612,-0.9624,-0.9405,-0.9092,-0.8909,-0.8312,-0.7199,0.0,0.0,0.0,0.0,0.0,0.0,0.0,0.0,0.0,0.0,0.0,0.0,0.0,0.0,0.0,0.0,0.0,0.0,0.0,0.0,0.0,0.0,0.0,0.0,0.0,0.0,-0.4464,-0.4202,-0.3886,0.0,0.0,0.0,0.0,0.0,0.0,0.0,0.0,0.0,0.0,-0.7452,-0.8146,-0.8567,-0.8869,-0.9023,-0.8852,-0.854,-0.8312,-0.8316,-0.8292,-0.8044,0.0,0.0,0.0,0.0,0.0,0.0,0.0,0.0,0.0,0.0,0.0,0.0,0.0,0.0,0.0,0.0,0.0,0.0,0.0,0.0,0.0,0.0,0.0,0.0,0.0,0.0,0.0,-0.6535,-0.651,0.0,0.0,0.0,0.0,0.0,0.0,0.0,0.0,0.0,0.0,0.0,-0.7445,-0.7646,0.0,0.0,0.0,0.0,0.0,0.0,0.0,0.0,0.0,0.0,0.0,0.0,-0.6859,-0.7792,-0.8645,-0.9271,-0.9612,-0.9624,-0.9397,-0.8926,-0.8807,-0.8203,-0.6903,0.0,0.0,0.0,0.0,0.0,0.0,0.0,0.0,0.0,0.0,0.0,0.0,0.0,0.0,0.0,0.0,0.0,0.0,0.0,0.0,0.0,0.0,0.0,0.0,0.0,-0.4478,0.0,0.0,0.0,0.0,0.0,0.0,0.0,0.0,0.0,0.0,0.0,-0.6314,-0.7119,-0.7784,-0.8325,-0.8686,-0.8942,-0.9076,0.0,0.0,0.0,0.0,0.0,0.0,0.0,0.0,0.0,0.0,0.0,0.0,0.0,0.0,-0.718,-0.5919,-0.5427,-0.5233,-0.5203,0.0,0.0,0.0,0.0,0.0,0.0,0.0,0.0,0.0,0.0,0.0,0.0,0.0,0.0,-0.7326,0.0,-0.692,0.0,0.0,0.0,0.0,0.0,0.0,0.0,0.0,-0.7716,-0.8117,-0.8235,-0.8463,-0.8353,0.0,-0.7747,-0.7197,0.0,0.0,0.0,0.0,0.0,0.0,0.0,0.0,-0.7045,-0.7971,-0.8702,-0.9271,-0.9608,-0.9624,-0.9352,-0.8934,-0.867,-0.8012,-0.6903,-0.6359,-0.5826,0.0,0.0,0.0,0.0,0.0,0.0,0.0,0.0,0.0,0.0,0.0,0.0,0.0,0.0,0.0,0.0,0.0,0.0,0.0,0.0,0.0,0.0,0.0,-0.4751,0.0,0.0,0.0,0.0,0.0,0.0,0.0,0.0,0.0,-0.568,-0.6258,-0.6964,-0.7675,-0.8126,-0.8515,-0.8869,0.0,0.0,0.0,0.0,0.0,0.0,0.0,-0.8276,-0.8215,-0.8065,-0.791,-0.7743,-0.7862,-0.7989,-0.7833,0.0,0.0,-0.6597,-0.6226,-0.606,-0.6052,-0.6176,-0.6323,-0.6414,-0.6631,-0.6772,0.0,0.0,0.0,0.0,0.0,0.0,0.0,0.0,-0.8093,-0.7996,0.0,-0.7622,0.0,0.0,0.0,0.0,0.0,-0.7529,0.0,0.0,-0.9023,-0.9437,-0.9129,-0.9129,-0.9035,-0.8861,-0.8828,-0.8361,-0.7514,-0.6298,0.0,0.0,0.0,0.0,0.0,0.0,-0.7437,-0.8276,-0.8824,-0.9267,-0.9612,-0.9624,-0.9409,-0.9096,-0.8406,-0.7793,-0.7244,-0.7054,-0.651,-0.541,-0.5321,0.0,0.0,0.0,0.0,0.0,0.0,0.0,0.0,0.0,0.0,0.0,0.0,0.0,0.0,0.0,0.0,0.0,0.0,0.0,0.0,-0.508,0.0,0.0,0.0,0.0,0.0,0.0,0.0,0.0,0.0,0.0,-0.646,-0.6904,-0.7516,-0.8203,0.0,0.0,0.0,0.0,-0.9104,-0.9104,-0.8958,-0.8844,-0.8844,-0.8779,-0.8759,-0.8609,0.0,0.0,-0.8351,-0.8355,-0.826,-0.7978,-0.787,-0.7848,-0.7891,-0.7588,-0.7435,-0.7349,-0.707,-0.6993,-0.7154,-0.7064,-0.697,-0.9778,0.0,0.0,0.0,0.0,-0.882,-0.9222,-0.99,-0.951,-0.9254,-0.9068,-0.8629,0.0,0.0,0.0,0.0,0.0,0.0,-0.839,-0.8727,-0.9214,-0.951,-0.9665,-0.9795,-0.9758,-0.9571,-0.9371,-0.8984,-0.8426,-0.7821,-0.6952,-0.5894,0.0,0.0,0.0,0.0,-0.759,-0.8494,-0.8889,-0.9271,-0.962,-0.9624,-0.9458,-0.9104,-0.8524,-0.8081,-0.7757,-0.7374,-0.6948,-0.6509,-0.588,0.0,0.0,0.0,0.0,0.0,0.0,0.0,0.0,0.0,0.0,0.0,0.0,0.0,0.0,0.0,0.0,0.0,0.0,0.0,-0.4938,-0.51,-0.5169,0.0,0.0,0.0,0.0,0.0,0.0,0.0,0.0,0.0,-0.7687,-0.7886,-0.8109,0.0,0.0,-0.8934,-0.8905,-0.9116,-0.9326,-0.9331,-0.9282,0.0,-0.9249,-0.8986,-0.8852,-0.8934,-0.8765,-0.8642,-0.8665,-0.8364,-0.8059,-0.7961,-0.7945,-0.7959,-0.7952,-0.7696,-0.7485,-0.7448,-0.734,-0.732,-0.7415,-0.7485,-0.7584,-1.1037,-1.0197,-0.9494,-0.9425,-0.977,-0.9746,-1.0095,-1.0676,-1.0424,-1.0217,-1.0026,-0.9587,-0.9104,-0.8483,-0.8162,0.0,0.0,0.0,-0.9035,-0.9421,-0.9665,-0.9896,-1.0103,-1.0217,-1.0213,-1.0095,-0.9861,-0.949,-0.909,-0.8926,-0.8243,-0.7171,0.0,0.0,-0.696,-0.7411,-0.7983,-0.8645,-0.9019,-0.934,-0.9567,-0.949,-0.9315,-0.9096,-0.8645,-0.8312,-0.8126,-0.7748,-0.7423,-0.7204,-0.6444,-0.583,0.0,0.0,0.0,0.0,0.0,0.0,0.0,0.0,0.0,0.0,0.0,-0.4039,-0.3224,0.0,0.0,0.0,-0.4404,-0.4962,-0.5514,-0.5596,0.0,0.0,0.0,0.0,0.0,0.0,0.0,-0.7212,-0.76,-0.7971,-0.8532,-0.867,-0.8751,-0.891,-0.9007,-0.9108,-0.9137,0.0,-0.9429,-0.9453,-0.9462,-0.9462,-0.9462,-0.9283,-0.913,-0.9148,-0.8962,-0.8811,-0.8753,-0.8432,-0.8184,-0.8137,-0.8088,-0.7988,-0.7988,-0.7835,-0.7688,-0.7691,-0.7667,-0.7668,-0.7756,-0.7797,-0.7841,-1.206,-1.1951,-1.081,-1.0424,-1.0516,-1.0729,-1.0802,-1.081,-1.1024,-1.0919,-1.0724,-1.05,-1.0193,-0.9631,-0.9194,0.0,-0.9259,-0.9583,-0.9827,-1.0002,-1.0331,-1.0423,-1.0423,-1.0407,-1.0403,-1.0452,-1.027,-1.0014,-0.9701,-0.9611,-0.9311,-0.8649,-0.818,-0.7906,-0.7886,-0.8158,-0.8507,-0.8865,-0.9237,-0.9441,-0.9567,-0.9283,-0.9096,-0.9092,-0.8739,-0.8506,-0.8296,-0.8097,-0.7841,-0.7547,-0.6985,-0.6392,-0.573,0.0,0.0,0.0,0.0,0.0,0.0,0.0,0.0,0.0,0.0,0.0,0.0,0.0,0.0,0.0,-0.5401,0.0,-0.6236,-0.6339,0.0,0.0,0.0,-0.616,-0.6526,-0.6898,-0.7298,-0.7824,0.0,0.0,-0.9076,-0.9283,-0.9445,-0.9445,-0.925,-0.9259,-0.9534,-0.9478,-0.9486,-0.962,-0.9632,-0.9624,-0.9608,-0.9596,-0.9481,-0.9247,-0.9187,-0.9027,-0.8775,-0.8531,-0.8382,-0.8333,-0.8137,-0.7988,-0.7988,-0.7965,-0.7988,-0.7958,-0.7968,-0.7978,-0.7965,-0.7926,-0.7848,-1.2361,-1.2219,-1.1918,-1.174,-1.1595,-1.1695,-1.1711,-1.1703,-1.1622,-1.1403,-1.109,-1.0915,-1.0692,-1.0432,-1.0302,-1.0347,-1.0584,-1.0669,-1.0745,-1.0895,-1.0863,-1.0842,-1.0838,-1.07,-1.0631,-1.0619,-1.0452,-1.0327,-1.0233,-0.9961,-0.9673,-0.9372,-0.9155,-0.882,-0.8441,-0.8589,-0.8869,-0.9222,-0.9359,-0.9441,-0.9558,-0.9283,-0.9096,-0.9092,-0.8617,-0.8337,-0.8284,-0.8029,-0.782,-0.7722,-0.7082,-0.6637,-0.644,-0.5535,0.0,0.0,0.0,0.0,0.0,0.0,0.0,0.0,0.0,-0.469,-0.3733,0.0,-0.5152,0.0,-0.5726,-0.6249,-0.6534,-0.6629,0.0,0.0,-0.7163,-0.7335,-0.7789,-0.7918,-0.8126,-0.8524,-0.8808,-0.9051,-0.9314,-0.9616,-0.9812,-0.9754,-0.9612,-0.9535,-0.9567,-0.9596,-0.9624,-0.977,-0.9705,-0.9628,-0.9624,-0.9624,-0.9529,-0.9232,-0.9034,-0.8829,-0.8531,-0.8283,-0.8091,-0.8088,-0.8038,-0.7988,-0.7988,-0.7988,-0.7988,-0.7988,-0.7988,-0.7988,-0.7988,-0.7955,-0.7984,-1.2556,-1.2544,-1.2544,-1.2483,-1.2377,-1.2219,-1.2154,-1.2146,-1.2052,-1.1849,-1.1565,-1.1317,-1.1102,-1.0932,-1.0928,-1.0984,-1.1082,-1.1082,-1.1131,-1.1216,-1.1126,-1.1041,-1.0964,-1.0918,-1.0773,-1.0688,-1.0595,-1.0509,-1.0375,-1.0229,-1.0002,-0.9742,-0.964,-0.9405,-0.9056,-0.9051,-0.9204,-0.94,-0.9486,-0.9527,-0.9562,-0.9283,-0.9056,-0.897,-0.8613,-0.8337,-0.817,-0.8016,-0.7837,-0.7673,-0.7139,-0.68,-0.6688,-0.6004,-0.5502,0.0,0.0,0.0,0.0,0.0,0.0,0.0,0.0,0.0,0.0,0.0,-0.5664,-0.5925,-0.6359,-0.6806,-0.724,-0.7346,-0.7588,-0.7967,-0.8008,-0.8113,-0.8487,-0.8528,-0.8662,-0.9015,-0.9222,-0.9397,-0.962,-0.9886,-1.0024,-0.99,-0.9803,-0.9742,-0.9734,-0.9681,-0.9665,-0.975,-0.9689,-0.9624,-0.9624,-0.9624,-0.9529,-0.9236,-0.9084,-0.8832,-0.8482,-0.8287,-0.8137,-0.8038,-0.7988,-0.7988,-0.7988,-0.7988,-0.7988,-0.7988,-0.7988,-0.7988,-0.7988,-0.7988,-0.7988,-1.2653,-1.28,-1.2758,-1.277,-1.2812,-1.2503,-1.2361,-1.2341,-1.2341,-1.2223,-1.2008,-1.1703,-1.1468,-1.1297,-1.1293,-1.1293,-1.1293,-1.1293,-1.1293,-1.1293,-1.1269,-1.1179,-1.1037,-1.0988,-1.0887,-1.0729,-1.0704,-1.0615,-1.0469,-1.0391,-1.027,-0.9965,-0.9908,-0.9807,-0.9657,-0.9482,-0.9437,-0.9441,-0.9547,-0.9624,-0.9624,-0.9303,-0.9043,-0.8857,-0.8645,-0.8369,-0.8032,-0.7967,-0.7801,-0.7492,-0.7204,-0.6947,-0.6733,-0.6437,-0.6151,0.0,-0.5758,0.0,0.0,0.0,0.0,0.0,0.0,0.0,0.0,-0.585,-0.6327,-0.6841,-0.7163,-0.7561,-0.8036,-0.8251,-0.8422,-0.8576,-0.8686,-0.8731,-0.8865,-0.8909,-0.9051,-0.9433,-0.9563,-0.9726,-0.9892,-1.0114,-1.0147,-0.9961,-0.9892,-0.9868,-0.9864,-0.9734,-0.9591,-0.9648,-0.9591,-0.9529,-0.9525,-0.948,-0.9381,-0.9137,-0.9038,-0.8931,-0.8432,-0.8336,-0.8287,-0.8088,-0.7988,-0.7988,-0.7988,-0.7988,-0.7988,-0.7988,-0.7988,-0.7988,-0.7988,-0.7988,-0.7988,-1.2584,-1.2629,-1.2779,-1.277,-1.2766,-1.2763,-1.2653,-1.2515,-1.2515,-1.2333,-1.2032,-1.1959,-1.1833,-1.1679,-1.1675,-1.1671,-1.1675,-1.1671,-1.1671,-1.1663,-1.152,-1.1427,-1.1382,-1.1106,-1.1008,-1.0963,-1.0765,-1.0676,-1.0639,-1.0447,-1.0346,-1.0322,-1.0034,-0.9872,-0.9827,0.0,0.0,0.0,-0.9558,-0.9624,-0.962,-0.9417,-0.9269,-0.9043,-0.8584,0.0,-0.8016,-0.774,-0.7553,-0.7518,-0.7285,0.0,0.0,0.0,0.0,0.0,0.0,0.0,0.0,0.0,0.0,0.0,-0.6842,-0.6647,-0.6282,-0.6944,-0.7543,-0.774,-0.7959,-0.8191,-0.8438,-0.8617,-0.8735,-0.8775,-0.9031,-0.9265,-0.9302,-0.938,-0.9559,-0.9754,-0.9819,-0.9904,-1.0122,-1.0192,-1.02,-1.0143,-0.9977,-0.9892,-0.988,-0.9734,-0.9681,-0.9799,-0.951,-0.9286,-0.9282,-0.913,-0.8928,-0.8634,-0.8535,-0.8435,-0.8184,-0.8088,-0.8088,-0.7988,-0.7988,-0.7988,-0.7988,-0.7988,-0.7988,-0.7988,-0.7988,-0.7988,-0.7988,-0.7988,-0.7988,-1.2645,0.0,-1.2763,-1.277,0.0,-1.277,-1.2783,-1.2698,-1.2698,-1.2544,-1.2284,-1.2105,-1.1979,-1.1898,-1.1813,-1.1837,-1.1837,-1.1837,-1.1837,-1.1833,-1.1683,-1.1585,-1.1496,-1.1313,-1.1139,-1.1024,-1.0875,-1.0781,-1.0692,-1.0603,-1.0521,-1.0432,-1.0249,-1.0111,-1.0073,-0.9937,-0.9807,-0.9628,-0.9624,-0.9624,-0.962,-0.9449,-0.9277,-0.8966,-0.8698,0.0,0.0,0.0,0.0,0.0,0.0,0.0,0.0,0.0,0.0,-0.6948,-0.7017,-0.7029,-0.6992,-0.7106,-0.7326,-0.7598,-0.7821,-0.7745,-0.7211,-0.7711,-0.813,-0.8385,-0.8499,-0.8662,-0.8971,-0.9035,-0.912,-0.9218,-0.9458,-0.9665,-0.9686,-0.9778,-0.9925,-1.0002,-1.0018,-1.0114,-1.02,-1.0212,-1.0171,-1.0038,-0.9996,-0.9855,-0.977,-0.9689,-0.9619,-0.9596,-0.9398,-0.9137,-0.9034,-0.8928,-0.8775,-0.8627,-0.8577,-0.8478,-0.8233,-0.8187,-0.8137,-0.8038,-0.7988,-0.7988,-0.7988,-0.7988,-0.7988,-0.7988,-0.7988,-0.7988,-0.7988,-0.7988,-0.7988,-1.2747,-1.2625,-1.2775,-1.277,-1.277,-1.277,-1.277,-1.277,0.0,0.0,0.0,-1.2251,-1.2109,-1.2011,-1.1931,-1.1849,-1.1821,-1.1821,-1.1809,-1.1837,-1.1837,-1.1695,-1.1549,-1.1512,-1.1346,-1.1066,-1.1053,-1.0947,-1.0745,-1.0708,-1.0623,-1.0435,-1.0452,-1.0343,-1.0224,-1.0212,-1.0018,-0.9738,-0.9693,-0.9657,-0.9579,-0.9482,-0.9294,-0.8922,-0.8885,-0.8641,-0.8178,-0.8093,-0.7927,-0.7638,-0.7421,-0.7431,-0.7565,-0.761,-0.7756,-0.8032,-0.8093,-0.8065,-0.8,-0.8077,-0.817,-0.8203,-0.8674,-0.8735,-0.8199,-0.8329,-0.858,-0.8934,-0.8962,-0.9108,-0.951,-0.9543,-0.9604,-0.9709,-0.9851,-0.9933,-0.9992,-1.0082,-1.0155,-1.0204,-1.0171,-1.018,-1.0208,-1.0175,-1.0131,-0.9965,-0.9916,-0.9843,-0.9606,-0.9557,-0.9434,-0.9294,-0.9141,-0.8985,-0.8779,-0.868,-0.8676,-0.8581,-0.863,-0.8581,-0.8382,-0.8333,-0.8233,-0.8038,-0.7988,-0.7988,-0.7988,-0.7988,-0.7988,-0.7988,-0.7988,-0.7988,-0.7988,-0.7988,-0.7988,-1.2824,-1.2804,-1.2762,-1.277,-1.277,-1.277,-1.277,-1.277,-1.277,-1.2735,-1.2624,-1.2575,-1.2406,-1.2268,-1.2243,-1.2146,-1.2,-1.1996,-1.1918,-1.1837,-1.1837,-1.1764,-1.1732,-1.1577,-1.1476,-1.1403,-1.1114,-1.1012,-1.0915,-1.0769,-1.068,-1.0639,-1.0455,-1.0347,-1.0228,-1.0212,-1.0188,-1.0139,-0.9929,-0.9778,-0.9632,-0.9604,-0.9494,-0.9335,-0.9133,-0.895,-0.8714,-0.8414,-0.8227,-0.8174,-0.8,-0.7914,-0.7943,-0.8085,-0.8203,-0.8256,-0.8402,-0.8544,-0.8658,-0.8649,-0.8775,-0.8946,-0.9295,-0.9235,-0.8767,-0.8877,-0.9133,-0.9421,-0.9506,-0.9661,-1.0049,-1.0077,-1.0073,-1.0114,-1.0151,-1.0171,-1.0155,-1.001,-1.0006,-1.0192,-1.0018,-1.0049,-1.0159,-1.0026,-1.0041,-1.0059,-0.9985,-0.9778,-0.9595,-0.9372,-0.9244,-0.9133,-0.8832,-0.8531,-0.8432,-0.8233,-0.8187,-0.8141,-0.8137,-0.8137,-0.8088,-0.8088,-0.8084,-0.7988,-0.7988,-0.7988,-0.7988,-0.7988,-0.7988,-0.7988,-0.7988,-0.7988,-0.7988,-0.7988,-0.7988,-1.3104,-1.2794,-1.2934,-1.2921,-1.2762,-1.2731,-1.269,-1.2678,-1.2588,-1.2617,-1.2694,-1.2511,-1.2381,-1.2292,-1.2105,-1.2024,-1.1962,-1.1935,-1.1898,-1.1906,-1.1817,-1.1837,-1.1768,-1.1687,-1.1598,-1.1492,-1.1338,-1.1159,-1.0976,-1.0879,-1.0794,-1.0692,-1.0611,-1.0534,-1.0452,-1.0502,-1.0404,-1.031,-1.0128,-0.9949,-0.9774,-0.977,-0.9636,-0.9412,-0.9322,-0.9153,-0.8978,-0.8718,-0.8576,-0.8576,-0.841,-0.8353,-0.8446,-0.8532,-0.8625,-0.8723,-0.8808,-0.8885,-0.8962,-0.9149,-0.9336,-0.951,-0.9766,-0.9819,-0.9571,-0.9673,-0.9742,-0.99,-0.9916,-1.0033,-1.02,-1.0212,-1.0175,-1.0073,-1.0151,-1.0171,-1.0034,-1.0042,-1.0122,-1.0184,-1.0002,-0.9967,-1.0002,-0.9937,-0.9908,-1.0002,-0.9899,-0.9721,-0.9618,-0.9227,-0.8883,-0.8755,-0.8531,-0.8336,-0.8237,-0.8088,-0.7988,-0.7988,-0.7988,-0.7988,-0.7988,-0.7988,-0.7988,-0.7988,-0.7988,-0.7988,-0.7988,-0.7988,-0.7988,-0.7988,-0.7988,-0.7988,-0.7988,-0.7988,-0.7988,-1.3344,-1.2974,-1.31,-1.3055,-1.2881,-1.2702,-1.269,-1.2609,-1.2446,-1.2519,-1.2706,-1.2442,-1.2304,-1.2276,-1.2016,-1.1967,-1.206,-1.1955,-1.1967,-1.2065,-1.191,-1.1833,-1.1825,-1.1861,-1.1699,-1.1569,-1.152,-1.1358,-1.1114,-1.1049,-1.0936,-1.0765,-1.0712,-1.0692,-1.0692,-1.0692,-1.0627,-1.0493,-1.0355,-1.0224,-0.9957,-0.9949,-0.9815,-0.9612,-0.9588,-0.9502,-0.9279,-0.91,-0.8982,-0.8938,-0.8779,-0.8763,-0.8926,-0.8942,-0.9039,-0.9242,-0.9275,-0.9291,-0.9352,-0.9587,-0.9803,-0.9937,-1.0167,-1.0257,-1.0168,-1.0253,-1.0221,-1.0221,-1.0224,-1.0168,-1.0213,-1.0184,-1.0155,-1.0024,-1.0126,-1.0159,-0.9989,-1.0042,-1.0175,-1.0184,-1.0049,-0.9896,-0.9933,-0.9945,-0.9981,-0.9939,-0.9823,-0.9741,-0.9575,-0.9087,-0.8678,-0.847,-0.8382,-0.8237,-0.8038,-0.7988,-0.7988,-0.7988,-0.7988,-0.7988,-0.7988,-0.7988,-0.7988,-0.7988,-0.7988,-0.7988,-0.7988,-0.7988,-0.7988,-0.7988,-0.7988,-0.7988,-0.7988,-0.7988,-0.7988,-1.3368,-1.3327,-1.3336,-1.3238,-1.3055,-1.2885,-1.2804,-1.2779,-1.2617,-1.2616,-1.2564,-1.2389,-1.23,-1.2304,-1.2251,-1.2235,-1.2264,-1.2264,-1.2255,-1.2251,-1.2089,-1.2004,-1.1983,-1.1853,-1.1768,-1.1723,-1.1585,-1.1488,-1.1415,-1.1269,-1.111,-1.0996,-1.0777,-1.0696,-1.0696,-1.0692,-1.0684,-1.0668,-1.0651,-1.0477,-1.0212,-1.0188,-1.0175,-1.0143,-1.0131,-1.0053,-0.9799,-0.9644,-0.9478,-0.9359,-0.9196,-0.918,-0.9331,-0.9355,-0.9458,-0.977,-0.9803,-0.9884,-1.0086,-1.0147,-1.0163,-1.0196,-1.0298,-1.0335,-1.0257,-1.0322,-1.0412,-1.0387,-1.0262,-1.0245,-1.0318,-1.0278,-1.0233,-1.0144,-1.0212,-1.0204,-1.0167,-0.9998,-0.9973,-1.0196,-1.0061,-0.9945,-1.0135,-1.0175,-1.0144,-1.0008,-0.9941,-0.9758,-0.9372,-0.904,-0.8783,-0.8498,-0.8282,-0.8072,-0.8005,-0.7988,-0.7988,-0.7988,-0.7988,-0.7988,-0.7988,-0.7988,-0.7988,-0.7988,-0.7988,-0.7988,-0.7988,-0.7988,-0.7988,-0.7988,-0.7988,-0.7988,-0.7988,-0.7988,-0.7988,-1.347,-1.3384,-1.3486,-1.3425,-1.3234,-1.2958,-1.277,-1.2746,-1.2532,-1.241,-1.2389,-1.2223,-1.2142,-1.2075,-1.204,-1.2048,-1.2138,-1.2142,-1.2207,-1.2292,-1.2227,-1.2138,-1.2024,-1.1963,-1.1874,-1.178,-1.1699,-1.1606,-1.1484,-1.1313,-1.1187,-1.1106,-1.0944,-1.0858,-1.0902,-1.0749,-1.0692,-1.0692,-1.0692,-1.0619,-1.0485,-1.0375,-1.027,-1.0224,-1.0212,-1.0184,-1.0106,-0.9977,-0.9959,-0.9886,-0.9816,-0.9808,-0.9877,-0.9882,-0.9947,-1.009,-1.0098,-1.0131,-1.0208,-1.0212,-1.0261,-1.0314,-1.0334,-1.044,-1.0477,-1.0546,-1.0586,-1.0566,-1.0424,-1.0396,-1.0546,-1.0517,-1.0436,-1.0351,-1.0322,-1.0278,-1.022,-1.0151,-1.0087,-1.02,-1.0147,-1.0071,-1.0212,-1.0257,-1.0285,-1.0163,-1.0039,-0.9704,-0.9377,-0.904,-0.8738,-0.8591,-0.8431,-0.8279,-0.8187,-0.8089,-0.8005,-0.7988,-0.7988,-0.7988,-0.7988,-0.7988,-0.7988,-0.7988,-0.7988,-0.7988,-0.7988,-0.7988,-0.7988,-0.7988,-0.7988,-0.7988,-0.7988,-0.7988,-0.7988,-1.3482,-1.3457,-1.3539,-1.3465,-1.3271,-1.297,-1.277,-1.2734,-1.2511,-1.2377,-1.2357,-1.2186,-1.2105,-1.2077,-1.1878,-1.187,-1.2016,-1.197,-1.2158,-1.2353,-1.2333,-1.2259,-1.217,-1.2065,-1.1967,-1.1857,-1.1797,-1.1707,-1.1557,-1.133,-1.1244,-1.1261,-1.1122,-1.1041,-1.1021,-1.0858,-1.0765,-1.0765,-1.0724,-1.0692,-1.0672,-1.0566,-1.044,-1.0375,-1.0359,-1.0286,-1.029,-1.0237,-1.0209,-1.0216,-1.0212,-1.0212,-1.0212,-1.0212,-1.0237,-1.0237,-1.0282,-1.0306,-1.0359,-1.0359,-1.0363,-1.0485,-1.0505,-1.0538,-1.0603,-1.0619,-1.0623,-1.0603,-1.0505,-1.0435,-1.059,-1.0578,-1.0489,-1.0375,-1.0359,-1.0302,-1.0237,-1.0212,-1.0233,-1.0225,-1.0241,-1.0262,-1.0208,-1.0218,-1.0124,-0.9998,-0.9812,-0.9596,-0.9313,-0.9006,-0.8774,-0.8764,-0.8642,-0.8472,-0.8309,-0.8194,-0.8102,-0.7992,-0.7988,-0.7988,-0.7988,-0.7988,-0.7988,-0.7988,-0.7988,-0.7988,-0.7988,-0.7988,-0.7988,-0.7988,-0.7988,-0.7988,-0.7988,-0.7988,-0.7988,-1.3319,-1.3583,-1.3453,-1.3291,-1.31,-1.2921,-1.2778,-1.2774,-1.2637,-1.2552,-1.2596,-1.2369,-1.2292,-1.2272,-1.1959,-1.1874,-1.2016,-1.197,-1.2199,-1.2471,-1.2369,-1.2389,-1.2571,-1.2194,-1.1958,-1.1963,-1.1837,-1.1828,-1.1732,-1.1407,-1.1309,-1.1459,-1.1289,-1.1204,-1.1175,-1.1033,-1.1016,-1.094,-1.081,-1.0708,-1.07,-1.0688,-1.0672,-1.0643,-1.066,-1.057,-1.0444,-1.0424,-1.0351,-1.0224,-1.0237,-1.0228,-1.0224,-1.0228,-1.0257,-1.0412,-1.057,-1.0655,-1.0647,-1.0631,-1.0647,-1.0676,-1.0668,-1.0623,-1.0504,-1.0496,-1.0542,-1.0415,-1.0497,-1.0485,-1.0411,-1.0396,-1.0335,-1.0241,-1.0257,-1.0261,-1.0237,-1.0269,-1.0249,-1.0379,-1.037,-1.0361,-1.0296,-1.0017,-0.9794,-0.9592,-0.9434,-0.9323,-0.9044,-0.8923,-0.8858,-0.8831,-0.8781,-0.8604,-0.835,-0.8241,-0.8177,-0.8113,-0.8022,-0.7992,-0.7988,-0.7988,-0.7988,-0.7988,-0.7988,-0.7988,-0.7988,-0.7988,-0.7988,-0.7988,-0.7988,-0.7988,-0.7988,-0.7988,-0.7988,-1.3238,-1.3461,-1.3401,-1.3327,-1.3254,-1.308,-1.2999,-1.2986,-1.2816,-1.2739,-1.2706,-1.2552,-1.2471,-1.2454,-1.2223,-1.2085,-1.1974,-1.197,-1.2101,-1.2223,-1.228,-1.228,-1.2203,-1.2081,-1.1963,-1.1866,-1.1805,-1.1837,-1.1748,-1.1516,-1.1427,-1.1451,-1.1313,-1.122,-1.1212,-1.1163,-1.1131,-1.1126,-1.1057,-1.098,-1.0879,-1.0926,-1.0818,-1.07,-1.0692,-1.0664,-1.0603,-1.0599,-1.0566,-1.0555,-1.0501,-1.0501,-1.0501,-1.0501,-1.053,-1.0595,-1.0655,-1.0692,-1.068,-1.059,-1.0631,-1.0834,-1.0757,-1.0773,-1.0903,-1.088,-1.0895,-1.0802,-1.0773,-1.0737,-1.0615,-1.0538,-1.0501,-1.0501,-1.0501,-1.0485,-1.0501,-1.0501,-1.053,-1.0532,-1.0494,-1.0307,-1.0229,-1.0036,-0.9706,-0.9434,-0.9379,-0.9213,-0.8992,-0.8937,-0.8937,-0.8878,-0.8834,-0.8788,-0.8598,-0.8374,-0.8238,-0.8184,-0.8133,-0.8029,-0.8005,-0.8012,-0.8015,-0.8019,-0.8008,-0.7988,-0.7988,-0.7988,-0.7988,-0.7988,-0.7988,-0.7988,-0.7988,-0.7988,-0.7988,-1.305,-1.293,-1.3054,-1.311,-1.305,-1.2866,-1.2877,-1.2999,-1.2885,-1.277,-1.2742,-1.2702,-1.2653,-1.2621,-1.2471,-1.2328,-1.2203,-1.215,-1.2117,-1.2134,-1.2251,-1.2243,-1.213,-1.206,-1.1975,-1.1849,-1.1732,-1.1715,-1.1748,-1.1589,-1.1533,-1.1573,-1.1403,-1.1309,-1.1305,-1.1256,-1.122,-1.122,-1.122,-1.1159,-1.1062,-1.1049,-1.0997,-1.0887,-1.0867,-1.0802,-1.07,-1.0692,-1.0692,-1.0692,-1.0692,-1.0692,-1.0692,-1.0692,-1.0692,-1.0692,-1.0692,-1.0692,-1.068,-1.0582,-1.0651,-1.098,-1.081,-1.0826,-1.1098,-1.1086,-1.0997,-1.0907,-1.0879,-1.0818,-1.0622,-1.0578,-1.0582,-1.0692,-1.0692,-1.0637,-1.0582,-1.0633,-1.0629,-1.0515,-1.019,-1.0033,-0.9981,-0.9706,-0.9434,-0.9268,-0.9213,-0.9106,-0.8937,-0.8937,-0.8937,-0.8937,-0.8878,-0.8831,-0.8767,-0.8591,-0.8418,-0.8347,-0.8282,-0.8194,-0.8086,-0.813,-0.8113,-0.8056,-0.8032,-0.8002,-0.7988,-0.7988,-0.7988,-0.7988,-0.7988,-0.7988,-0.7988,-0.7988,-0.7988,-1.2744,-1.1976,-1.2354,-1.2476,-1.2363,-1.234,-1.2514,-1.272,-1.2774,-1.277,-1.2766,-1.2754,-1.2808,-1.2787,-1.2637,-1.256,-1.2519,-1.2398,-1.2308,-1.2288,-1.2284,-1.228,-1.2247,-1.2077,-1.1996,-1.1963,-1.1675,-1.1614,-1.1756,-1.1602,-1.1577,-1.1695,-1.1557,-1.1451,-1.148,-1.1313,-1.1236,-1.1224,-1.122,-1.1216,-1.122,-1.1204,-1.1191,-1.1187,-1.1183,-1.1041,-1.0737,-1.0724,-1.0741,-1.0733,-1.0729,-1.0704,-1.072,-1.0716,-1.0704,-1.0696,-1.0692,-1.0692,-1.0692,-1.068,-1.0745,-1.0971,-1.0806,-1.081,-1.0976,-1.0895,-1.0789,-1.0769,-1.0694,-1.0602,-1.0374,-1.0312,-1.0363,-1.0641,-1.0582,-1.0476,-1.0366,-1.0531,-1.0582,-1.0257,-0.9871,-0.9434,-0.9379,-0.9213,-0.9047,-0.8995,-0.894,-0.894,-0.8937,-0.8937,-0.8937,-0.8937,-0.8937,-0.8913,-0.8869,-0.8808,-0.8659,-0.853,-0.8465,-0.8394,-0.8347,-0.8323,-0.8275,-0.8255,-0.8153,-0.8069,-0.7988,-0.7988,-0.7988,-0.7988,-0.7988,-0.7995,-0.7988,-0.7988,-0.7988,-1.2069,-1.1791,-1.1965,-1.2024,-1.1978,-1.2177,-1.2375,-1.2441,-1.2704,-1.277,-1.277,-1.277,-1.277,-1.2762,-1.2771,-1.2751,-1.2743,-1.2686,-1.2544,-1.2328,-1.2186,-1.213,-1.2093,-1.1943,-1.1857,-1.1841,-1.1752,-1.1715,-1.1732,-1.1589,-1.1537,-1.1561,-1.1533,-1.1431,-1.1334,-1.1366,-1.1358,-1.1232,-1.122,-1.122,-1.122,-1.122,-1.122,-1.122,-1.122,-1.1159,-1.1066,-1.1057,-1.1053,-1.1045,-1.1053,-1.1005,-1.0907,-1.0887,-1.0826,-1.0708,-1.0692,-1.0692,-1.0692,-1.0696,-1.0773,-1.0911,-1.0907,-1.0972,-1.1114,-1.1074,-1.098,-1.0899,-1.0711,-1.0508,-1.0284,-1.0091,-0.9978,-1.0091,-1.0088,-1.0091,-0.9981,-1.0036,-1.0033,-0.9926,-0.9599,-0.9434,-0.9323,-0.9103,-0.8937,-0.8937,-0.8937,-0.8937,-0.8937,-0.8937,-0.8937,-0.8937,-0.8937,-0.8937,-0.8903,-0.8882,-0.8808,-0.8693,-0.8628,-0.8584,-0.854,-0.8479,-0.8438,-0.8364,-0.8262,-0.8184,-0.8052,-0.8025,-0.8049,-0.8022,-0.8029,-0.8019,-0.7995,-0.8015,-0.8059,-1.1648,-1.1383,-1.1516,-1.1578,-1.1578,-1.1846,-1.1975,-1.2111,-1.2441,-1.2638,-1.2638,-1.2704,-1.277,-1.277,-1.277,-1.277,-1.277,-1.277,-1.2714,-1.2499,-1.2316,-1.2203,-1.2117,-1.1951,-1.1829,-1.1784,-1.1837,-1.1837,-1.1833,-1.1663,-1.1606,-1.1602,-1.1537,-1.1451,-1.1342,-1.1427,-1.1411,-1.1256,-1.1289,-1.1293,-1.1236,-1.122,-1.122,-1.122,-1.122,-1.122,-1.122,-1.122,-1.122,-1.1208,-1.1167,-1.1074,-1.0976,-1.0903,-1.0814,-1.0724,-1.0692,-1.0692,-1.0692,-1.0692,-1.0773,-1.0919,-1.0907,-1.0884,-1.0895,-1.0915,-1.0799,-1.0555,-1.0353,-1.0155,-0.9949,-0.9816,-0.9596,-0.9485,-0.9706,-0.9761,-0.9761,-0.9596,-0.9541,-0.9541,-0.9379,-0.9268,-0.9158,-0.9047,-0.8937,-0.8937,-0.8937,-0.8937,-0.8937,-0.8937,-0.8937,-0.8937,-0.8937,-0.8937,-0.8937,-0.8933,-0.8933,-0.8859,-0.8781,-0.875,-0.8716,-0.8628,-0.8564,-0.8469,-0.837,-0.8353,-0.8282,-0.8262,-0.8265,-0.8208,-0.8174,-0.8228,-0.8265,-0.8248,-0.8275,-1.1317,-1.0787,-1.1049,-1.1185,-1.1185,-1.1247,-1.1449,-1.178,-1.2111,-1.2309,-1.2375,-1.2638,-1.277,-1.277,-1.277,-1.277,-1.277,-1.277,-1.2762,-1.2755,-1.2625,-1.2467,-1.2272,-1.2117,-1.1971,-1.1833,-1.1809,-1.1797,-1.1837,-1.1816,-1.1837,-1.1796,-1.161,-1.1508,-1.1484,-1.1496,-1.1411,-1.1269,-1.1378,-1.137,-1.1256,-1.1252,-1.1269,-1.1281,-1.1293,-1.1301,-1.1309,-1.1313,-1.1273,-1.1212,-1.1094,-1.1017,-1.1004,-1.0802,-1.0741,-1.07,-1.0692,-1.0692,-1.0692,-1.0637,-1.0718,-1.0875,-1.0739,-1.0619,-1.0529,-1.0434,-1.0301,-1.0043,-0.9917,-0.9776,-0.955,-0.9443,-0.9332,-0.9085,-0.9407,-0.9658,-0.9706,-0.9265,-0.9158,-0.9268,-0.9103,-0.8937,-0.894,-0.8937,-0.8937,-0.8937,-0.8937,-0.8937,-0.8937,-0.8937,-0.8937,-0.8937,-0.8937,-0.8937,-0.8937,-0.8937,-0.8937,-0.8861,-0.8807,-0.8797,-0.8845,-0.8764,-0.8672,-0.8577,-0.8516,-0.8496,-0.8452,-0.8408,-0.8397,-0.8377,-0.8397,-0.8521,-0.8507,-0.8404,-0.8397,-1.0853,-1.0721,-1.0787,-1.085,-1.0853,-1.1049,-1.1251,-1.1383,-1.178,-1.2045,-1.2243,-1.2375,-1.2568,-1.277,-1.277,-1.277,-1.277,-1.277,-1.277,-1.2766,-1.2795,-1.2584,-1.2357,-1.2264,-1.2138,-1.1987,-1.1951,-1.1898,-1.1845,-1.1841,-1.1837,-1.1837,-1.1723,-1.1626,-1.1524,-1.1512,-1.1403,-1.1252,-1.1265,-1.1358,-1.1415,-1.1411,-1.1496,-1.1626,-1.1606,-1.1606,-1.1622,-1.163,-1.1484,-1.124,-1.1187,-1.109,-1.1057,-1.0932,-1.0846,-1.0745,-1.0708,-1.07,-1.0649,-1.0547,-1.0516,-1.0603,-1.0426,-1.0239,-1.0337,-1.0315,-1.0231,-1.0117,-0.9945,-0.9763,-0.9653,-0.9538,-0.937,-0.9296,-0.9255,-0.9241,-0.9179,-0.9047,-0.894,-0.8995,-0.8944,-0.8947,-0.894,-0.8937,-0.8937,-0.8937,-0.8937,-0.8937,-0.8937,-0.8937,-0.8937,-0.8937,-0.8937,-0.8937,-0.8937,-0.8937,-0.8937,-0.8937,-0.8916,-0.8854,-0.8906,-0.8879,-0.8788,-0.8696,-0.8669,-0.8648,-0.8547,-0.8465,-0.8486,-0.855,-0.8533,-0.8557,-0.8509,-0.8465,-0.8482,-1.0721,-1.0721,-1.0721,-1.0721,-1.0721,-1.092,-1.0982,-1.1049,-1.1383,-1.1648,-1.1909,-1.2177,-1.2371,-1.2576,-1.2704,-1.277,-1.277,-1.277,-1.277,-1.277,-1.2766,-1.2674,-1.2475,-1.2414,-1.232,-1.215,-1.2065,-1.1979,-1.1886,-1.1817,-1.1841,-1.1837,-1.1837,-1.1715,-1.1634,-1.161,-1.1524,-1.1378,-1.1338,-1.137,-1.1382,-1.1382,-1.1423,-1.1529,-1.1541,-1.1541,-1.1537,-1.1537,-1.1492,-1.1435,-1.1386,-1.1293,-1.1204,-1.1114,-1.1025,-1.0915,-1.0799,-1.0695,-1.0691,-1.0471,-1.0348,-1.0372,-1.0224,-1.015,-1.0105,-1.0073,-1.0073,-0.9889,-0.9729,-0.9668,-0.9613,-0.9497,-0.9439,-0.9351,-0.9225,-0.9127,-0.9127,-0.9137,-0.9093,-0.9055,-0.9025,-0.8998,-0.8954,-0.8888,-0.894,-0.8937,-0.8937,-0.8937,-0.8937,-0.894,-0.8947,-0.8957,-0.8944,-0.8937,-0.8937,-0.8937,-0.8937,-0.8937,-0.8937,-0.8937,-0.8937,-0.8937,-0.8889,-0.8818,-0.8808,-0.8777,-0.8686,-0.8638,-0.8703,-0.873,-0.8679,-0.8662,-0.8652,-0.8608,-0.8618,-1.0721,-1.0721,-1.0721,-1.0721,-1.0721,-1.0721,-1.0721,-1.0784,-1.1049,-1.1185,-1.138,-1.1912,-1.2177,-1.2309,-1.2572,-1.277,-1.277,-1.277,-1.277,-1.277,-1.2758,-1.2735,-1.2617,-1.2592,-1.2495,-1.2337,-1.2154,-1.2097,-1.2032,-1.1898,-1.1817,-1.1817,-1.1801,-1.1837,-1.1744,-1.1816,-1.1683,-1.1561,-1.1529,-1.1476,-1.1403,-1.1382,-1.1407,-1.1415,-1.1415,-1.1399,-1.1378,-1.1362,-1.1451,-1.1756,-1.1581,-1.1439,-1.1415,-1.1285,-1.1158,-1.1015,-1.0762,-1.0659,-1.0628,-1.0367,-1.0243,-1.0203,-1.0215,-1.0113,-0.9916,-0.9824,-0.9769,-0.96,-0.9432,-0.9524,-0.9528,-0.9445,-0.9462,-0.9473,-0.9435,-0.9425,-0.9422,-0.9401,-0.9384,-0.9258,-0.9234,-0.911,-0.9035,-0.8929,-0.8998,-0.9103,-0.9083,-0.9089,-0.9066,-0.9042,-0.9028,-0.9005,-0.8977,-0.8937,-0.8937,-0.8937,-0.8937,-0.8937,-0.8937,-0.8937,-0.8937,-0.8937,-0.8937,-0.8913,-0.8879,-0.8876,-0.8872,-0.8876,-0.8893,-0.8882,-0.8815,-0.8862,-0.8903,-0.8828,-0.8808,-1.0721,-1.0721,-1.0721,-1.0721,-1.0721,-1.0721,-1.0721,-1.0721,-1.0787,-1.0986,-1.1185,-1.138,-1.1776,-1.2305,-1.2375,-1.2572,-1.277,-1.277,-1.277,-1.277,-1.277,-1.2754,-1.2771,-1.2763,-1.267,-1.2527,-1.2471,-1.2373,-1.2239,-1.2077,-1.1975,-1.1963,-1.1857,-1.1841,-1.1784,-1.178,-1.1764,-1.1719,-1.1711,-1.1683,-1.1642,-1.1622,-1.1622,-1.1626,-1.163,-1.1642,-1.1654,-1.1658,-1.1699,-1.1679,-1.15,-1.1233,-1.1213,-1.0991,-1.0856,-1.0802,-1.0616,-1.0431,-1.0308,-1.0106,-0.9957,-1.0012,-0.9915,-0.9787,-0.9837,-0.9827,-0.9774,-0.9724,-0.9727,-0.9696,-0.969,-0.9713,-0.9696,-0.9686,-0.9693,-0.9703,-0.9686,-0.9527,-0.9401,-0.9351,-0.933,-0.9317,-0.9283,-0.9252,-0.9259,-0.9276,-0.9273,-0.9279,-0.9225,-0.9157,-0.9133,-0.911,-0.9072,-0.9039,-0.8981,-0.8967,-0.8937,-0.8937,-0.8937,-0.8937,-0.8937,-0.8937,-0.8937,-0.8937,-0.893,-0.8937,-0.8937,-0.8937,-0.8916,-0.893,-0.8937,-0.8937,-0.8937,-0.8937,-0.8937,-1.0721,-1.0721,-1.0721,-1.0721,-1.0721,-1.0721,-1.0721,-1.0721,-1.0721,-1.0787,-1.1052,-1.1317,-1.1714,-1.2111,-1.2375,-1.2638,-1.277,-1.277,-1.277,-1.277,-1.277,-1.277,-1.277,-1.2766,-1.2775,-1.2682,-1.2592,-1.2507,-1.2402,-1.2259,-1.2162,-1.2142,-1.1983,-1.1914,-1.187,-1.1825,-1.1776,-1.1828,-1.1837,-1.1837,-1.1837,-1.1837,-1.1837,-1.1837,-1.1837,-1.1837,-1.1764,-1.1639,-1.1579,-1.1479,-1.1221,-1.1114,-1.1236,-1.1055,-1.0937,-1.0709,-1.0473,-1.0354,-1.024,-1.0003,-0.9863,-0.9873,-0.9767,-0.9747,-0.9802,-0.9819,-0.9819,-0.9819,-0.9815,-0.9819,-0.9819,-0.9815,-0.9819,-0.9819,-0.9819,-0.9819,-0.9795,-0.968,-0.9554,-0.9517,-0.949,-0.9439,-0.9418,-0.9425,-0.9395,-0.9357,-0.9347,-0.9351,-0.9337,-0.9279,-0.9273,-0.9249,-0.9205,-0.9147,-0.9059,-0.9001,-0.8944,-0.8937,-0.8937,-0.8937,-0.8937,-0.8937,-0.8937,-0.8937,-0.8937,-0.8937,-0.8937,-0.8937,-0.8937,-0.8937,-0.8937,-0.8937,-0.8937,-0.8937,-0.8937,-1.0721,-1.0721,-1.0721,-1.0721,-1.0721,-1.0721,-1.0721,-1.0721,-1.0721,-1.0721,-1.0787,-1.1449,-1.1648,-1.1912,-1.2441,-1.2704,-1.277,-1.277,-1.277,-1.277,-1.277,-1.277,-1.277,-1.2766,-1.2766,-1.282,-1.2702,-1.2617,-1.2568,-1.2442,-1.2349,-1.2312,-1.2162,-1.2048,-1.2,-1.1902,-1.1813,-1.1788,-1.1837,-1.1837,-1.1837,-1.1837,-1.1837,-1.1776,-1.1712,-1.1647,-1.1587,-1.1402,-1.1212,-1.1212,-1.091,-1.097,-1.1091,-1.1148,-1.1031,-1.0717,-1.0386,-1.0194,-1.0127,-0.997,-0.9795,-0.9819,-0.9815,-0.9815,-0.9819,-0.9819,-0.9819,-0.9819,-0.9819,-0.9819,-0.9819,-0.9819,-0.9819,-0.9819,-0.9819,-0.9819,-0.9819,-0.9819,-0.9737,-0.9673,-0.9639,-0.9602,-0.9544,-0.9523,-0.9479,-0.9445,-0.9439,-0.9435,-0.9432,-0.9415,-0.9415,-0.9374,-0.9327,-0.9279,-0.9198,-0.9161,-0.9086,-0.9055,-0.9032,-0.9028,-0.9022,-0.9015,-0.9022,-0.895,-0.8937,-0.8937,-0.8937,-0.8937,-0.8937,-0.8937,-0.8937,-0.8937,-0.8937,-0.8937,-0.8937,-1.0721,-1.0721,-1.0721,-1.0721,-1.0721,-1.0721,-1.0721,-1.0721,-1.0721,-1.0721,-1.0787,-1.1118,-1.1516,-1.1846,-1.2177,-1.2507,-1.277,-1.277,-1.277,-1.277,-1.277,-1.277,-1.277,-1.277,-1.277,-1.277,-1.2787,-1.2767,-1.2731,-1.2621,-1.2532,-1.2487,-1.2345,-1.2207,-1.2097,-1.1987,-1.1902,-1.1817,-1.1849,-1.1837,-1.1837,-1.1772,-1.1772,-1.1712,-1.1522,-1.1398,-1.1333,-1.1091,-1.0906,-1.091,-1.0846,-1.0668,-1.055,-1.0486,-1.0425,-1.0368,-1.0122,-0.994,-0.9879,-0.9883,-0.9819,-0.9819,-0.9819,-0.9819,-0.9819,-0.9819,-0.9819,-0.9819,-0.9819,-0.9819,-0.9819,-0.9819,-0.9819,-0.9819,-0.9819,-0.9819,-0.9819,-0.9815,-0.9812,-0.9761,-0.9761,-0.9761,-0.969,-0.9649,-0.9646,-0.9635,-0.9635,-0.9642,-0.9649,-0.9608,-0.9571,-0.9513,-0.9445,-0.9398,-0.9344,-0.9327,-0.9289,-0.9266,-0.9245,-0.9245,-0.9222,-0.9221,-0.9176,-0.9072,-0.8988,-0.8937,-0.8937,-0.8937,-0.8937,-0.8937,-0.8937,-0.8937,-0.8937,-0.8937,-0.8937,-1.0721,-1.0721,-1.0721,-1.0721,-1.0721,-1.0721,-1.0721,-1.0721,-1.0721,-1.0721,-1.0853,-1.1251,-1.1582,-1.1912,-1.2371,-1.2638,-1.277,-1.277,-1.277,-1.277,-1.277,-1.277,-1.277,-1.277,-1.277,-1.277,-1.277,-1.277,-1.2762,-1.2755,-1.2698,-1.2661,-1.2527,-1.2389,-1.2272,-1.2117,-1.2012,-1.1902,-1.1829,-1.1841,-1.1776,-1.1647,-1.1583,-1.1462,-1.1216,-1.1091,-1.0967,-1.0728,-1.0547,-1.049,-1.0368,-1.0186,-1.0122,-1.0061,-1.0061,-1.0004,-0.9883,-0.9819,-0.9819,-0.9819,-0.9819,-0.9819,-0.9819,-0.9819,-0.9819,-0.9819,-0.9819,-0.9819,-0.9819,-0.9819,-0.9819,-0.9819,-0.9819,-0.9819,-0.9819,-0.9819,-0.9819,-0.9819,-0.9819,-0.9819,-0.9805,-0.9795,-0.9805,-0.9788,-0.9808,-0.9819,-0.9819,-0.9819,-0.9819,-0.9764,-0.969,-0.9652,-0.9581,-0.9534,-0.9486,-0.9459,-0.9456,-0.9442,-0.9435,-0.9432,-0.9395,-0.9323,-0.9276,-0.9232,-0.913,-0.9005,-0.8885,-0.8888,-0.8885,-0.8937,-0.8937,-0.8937,-0.8937,-0.8937,-0.8937,-1.0721,-1.0721,-1.0721,-1.0721,-1.0721,-1.0721,-1.0721,-1.0721,-1.0721,-1.0721,-1.0787,-1.1449,-1.178,-1.1978,-1.2441,-1.277,-1.277,-1.277,-1.277,-1.277,-1.277,-1.277,-1.277,-1.277,-1.277,-1.277,-1.277,-1.277,-1.277,-1.282,-1.2762,-1.2718,-1.2666,-1.2588,-1.2491,-1.2296,-1.2154,-1.2036,-1.1918,-1.1825,-1.172,-1.1458,-1.1269,-1.1209,-1.091,-1.0728,-1.0668,-1.0365,-1.0243,-1.0122,-1.0004,-0.9819,-0.9819,-0.9819,-0.9819,-0.9819,-0.9819,-0.9819,-0.9819,-0.9819,-0.9819,-0.9819,-0.9819,-0.9819,-0.9819,-0.9819,-0.9819,-0.9819,-0.9819,-0.9819,-0.9819,-0.9819,-0.9819,-0.9819,-0.9819,-0.9819,-0.9819,-0.9819,-0.9819,-0.9819,-0.9819,-0.9819,-0.9819,-0.9819,-0.9819,-0.9819,-0.9819,-0.9819,-0.9819,-0.9819,-0.9774,-0.9764,-0.9724,-0.9676,-0.9629,-0.9581,-0.9581,-0.9581,-0.9578,-0.9578,-0.9527,-0.9462,-0.9429,-0.9388,-0.9239,-0.912,-0.9039,-0.8898,-0.8885,-0.8937,-0.8937,-0.8937,-0.8885,-0.8937,-0.8937,-1.0721,-1.0721,-1.0721,-1.0721,-1.0721,-1.0721,-1.0721,-1.0721,-1.0721,-1.0721,-1.0784,-1.1446,-1.1784,-1.2045,-1.2507,-1.277,-1.277,-1.277,-1.277,-1.277,-1.277,-1.277,-1.277,-1.277,-1.277,-1.277,-1.277,-1.277,-1.277,-1.277,-1.277,-1.2754,-1.2795,-1.2735,-1.2596,-1.2479,-1.2426,-1.2268,-1.2031,-1.1873,-1.1704,-1.1433,-1.1308,-1.1107,-1.0743,-1.039,-1.0329,-1.0082,-0.9886,-0.99,-0.9825,-0.9819,-0.9819,-0.9819,-0.9819,-0.9819,-0.9819,-0.9819,-0.9822,-0.9819,-0.9819,-0.9822,-0.9832,-0.9822,-0.9869,-0.9876,-0.9873,-0.9819,-0.9829,-0.9859,-0.9873,-0.9836,-0.9825,-0.9842,-0.9866,-0.9852,-0.9839,-0.9819,-0.9819,-0.9819,-0.9819,-0.9819,-0.9819,-0.9819,-0.9819,-0.9819,-0.9819,-0.9819,-0.9819,-0.9819,-0.9819,-0.9802,-0.9795,-0.9754,-0.973,-0.969,-0.9683,-0.9696,-0.9696,-0.97,-0.9659,-0.9612,-0.9595,-0.9527,-0.9381,-0.9273,-0.9211,-0.912,-0.8998,-0.8988,-0.9052,-0.9008,-0.8888,-0.8892,-0.8998,-1.0721,-1.0721,-1.0721,-1.0721,-1.0721,-1.0721,-1.0721,-1.0721,-1.0721,-1.0787,-1.1052,-1.1516,-1.1982,-1.2375,-1.2704,-1.277,-1.277,-1.277,-1.277,-1.277,-1.277,-1.277,-1.277,-1.277,-1.277,-1.277,-1.277,-1.277,-1.277,-1.277,-1.277,-1.277,-1.277,-1.2804,-1.2625,-1.2613,-1.2403,-1.2095,-1.1775,-1.1529,-1.1406,-1.1193,-1.0966,-1.0815,-1.0381,-1.0197,-1.006,-0.9917,-0.9818,-0.9903,-0.9883,-0.9869,-0.9903,-0.9886,-0.9849,-0.9889,-0.9889,-0.991,-0.9839,-0.9829,-0.9839,-0.9856,-0.9903,-0.9995,-1.0046,-1.007,-1.007,-1.0086,-0.9998,-0.9988,-1.0025,-0.9995,-1.0019,-1.0022,-0.9981,-0.9958,-0.9927,-0.9839,-0.9819,-0.9819,-0.9819,-0.9819,-0.9819,-0.9819,-0.9819,-0.9819,-0.9819,-0.9819,-0.9819,-0.9819,-0.9819,-0.9819,-0.9815,-0.9805,-0.9795,-0.9778,-0.9761,-0.9768,-0.9768,-0.9771,-0.9781,-0.9758,-0.972,-0.968,-0.9574,-0.9479,-0.9401,-0.9296,-0.9184,-0.9178,-0.9191,-0.9154,-0.912,-0.9174,-0.9215,-1.0721,-1.0721,-1.0721,-1.0721,-1.0721,-1.0721,-1.0721,-1.0721,-1.0721,-1.092,-1.1251,-1.1714,-1.2243,-1.2704,-1.277,-1.277,-1.277,-1.277,-1.277,-1.277,-1.277,-1.277,-1.277,-1.277,-1.277,-1.2638,-1.2638,-1.2572,-1.2507,-1.2507,-1.2507,-1.2638,-1.2638,-1.2565,-1.2537,-1.2392,-1.2167,-1.1884,-1.1532,-1.1322,-1.121,-1.0953,-1.0766,-1.0576,-1.0291,-1.0107,-1.009,-1.0022,-1.0025,-1.0056,-1.0022,-1.0025,-1.0076,-1.0036,-1.0019,-1.009,-1.0103,-1.007,-1.0005,-0.9975,-0.9937,-0.9971,-1.0019,-1.0148,-1.0226,-1.0343,-1.034,-1.0243,-1.0175,-1.0178,-1.0219,-1.0158,-1.0164,-1.0171,-1.0161,-1.0134,-1.0086,-0.9985,-0.991,-0.9842,-0.9825,-0.9822,-0.9819,-0.9819,-0.9819,-0.9819,-0.9819,-0.9819,-0.9819,-0.9819,-0.9819,-0.9819,-0.9819,-0.9819,-0.9819,-0.9819,-0.9819,-0.9819,-0.9819,-0.9819,-0.9815,-0.9815,-0.9788,-0.9751,-0.971,-0.968,-0.9598,-0.9486,-0.9378,-0.9323,-0.9293,-0.9334,-0.9347,-0.9391,-0.9388,-1.0721,-1.0721,-1.0721,-1.0721,-1.0721,-1.0721,-1.0721,-1.0721,-1.0721,-1.092,-1.1314,-1.1912,-1.2507,-1.2704,-1.277,-1.277,-1.277,-1.277,-1.277,-1.277,-1.277,-1.277,-1.277,-1.2704,-1.2572,-1.2441,-1.2375,-1.2177,-1.1978,-1.2045,-1.2111,-1.2312,-1.2309,-1.2111,-1.2037,-1.1933,-1.1792,-1.159,-1.1394,-1.1256,-1.1122,-1.0958,-1.0746,-1.0721,-1.0453,-1.0266,-1.0263,-1.0215,-1.0219,-1.0253,-1.0205,-1.0209,-1.0236,-1.0202,-1.0205,-1.0246,-1.0259,-1.0239,-1.0212,-1.0188,-1.0226,-1.0243,-1.0259,-1.0283,-1.0354,-1.031,-1.0293,-1.0324,-1.0297,-1.029,-1.03,-1.0273,-1.029,-1.0324,-1.0327,-1.028,-1.0219,-1.0054,-0.9984,-0.9947,-0.9896,-0.9839,-0.9842,-0.9846,-0.9822,-0.9819,-0.9819,-0.9819,-0.9819,-0.9819,-0.9819,-0.9819,-0.9819,-0.9819,-0.9819,-0.9819,-0.9819,-0.9819,-0.9819,-0.9819,-0.9819,-0.9819,-0.9819,-0.9808,-0.9771,-0.9788,-0.9778,-0.9632,-0.9507,-0.9418,-0.9401,-0.9479,-0.9496,-0.9503,-0.9479,-1.0721,-1.0721,-1.0721,-1.0721,-1.0721,-1.0721,-1.0721,-1.0721,-1.0721,-1.1052,-1.1582,-1.2305,-1.2704,-1.277,-1.277,-1.277,-1.277,-1.277,-1.277,-1.2704,-1.2634,-1.2638,-1.2572,-1.2441,-1.2173,-1.2239,-1.2111,-1.1978,-1.1846,-1.1718,-1.1648,-1.1714,-1.1846,-1.1912,-1.178,-1.1512,-1.1402,-1.1311,-1.1151,-1.0981,-1.0902,-1.0802,-1.0702,-1.0605,-1.0537,-1.0412,-1.0399,-1.0321,-1.0344,-1.0368,-1.0331,-1.0354,-1.0388,-1.0344,-1.0348,-1.0399,-1.0412,-1.0412,-1.0392,-1.0351,-1.0317,-1.0402,-1.0415,-1.0443,-1.0504,-1.0538,-1.0548,-1.0531,-1.0456,-1.0432,-1.0534,-1.0477,-1.0439,-1.049,-1.0483,-1.0429,-1.0361,-1.0263,-1.0202,-1.0171,-1.0014,-0.9926,-0.9869,-0.988,-0.9849,-0.9819,-0.9819,-0.9819,-0.9819,-0.9819,-0.9819,-0.9819,-0.9819,-0.9819,-0.9819,-0.9819,-0.9819,-0.9819,-0.9819,-0.9819,-0.9819,-0.9819,-0.9819,-0.9819,-0.9819,-0.9812,-0.9781,-0.9717,-0.9652,-0.9595,-0.9612,-0.9673,-0.9663,-0.9622,-0.9602,-1.0677,-1.0717,-1.0721,-1.0721,-1.0721,-1.0721,-1.0721,-1.0721,-1.0721,-1.1118,-1.1846,-1.2375,-1.2704,-1.277,-1.2704,-1.2638,-1.2572,-1.2507,-1.2572,-1.2441,-1.2375,-1.2375,-1.2375,-1.2177,-1.1912,-1.1975,-1.1776,-1.1582,-1.1383,-1.1449,-1.1317,-1.1247,-1.1314,-1.1383,-1.1383,-1.1247,-1.1049,-1.0982,-1.085,-1.0721,-1.0711,-1.07,-1.0677,-1.0568,-1.0561,-1.0561,-1.0544,-1.0497,-1.049,-1.051,-1.05,-1.0483,-1.0493,-1.0493,-1.0477,-1.0521,-1.0558,-1.0558,-1.0527,-1.0497,-1.0456,-1.0548,-1.0561,-1.0616,-1.0687,-1.0721,-1.0677,-1.0683,-1.0612,-1.0602,-1.0714,-1.0619,-1.0582,-1.0622,-1.0605,-1.0558,-1.051,-1.0436,-1.0382,-1.0331,-1.0222,-1.0114,-1.0063,-1.0005,-0.9907,-0.9863,-0.9819,-0.9819,-0.9819,-0.9819,-0.9819,-0.9819,-0.9819,-0.9819,-0.9819,-0.9819,-0.9819,-0.9819,-0.9819,-0.9819,-0.9819,-0.9819,-0.9819,-0.9819,-0.9819,-0.9819,-0.9798,-0.9761,-0.9774,-0.9795,-0.9791,-0.9768,-0.9768,-0.973,-0.9754,-1.0575,-1.0714,-1.0711,-1.0711,-1.0704,-1.0721,-1.0721,-1.0721,-1.0721,-1.1115,-1.1714,-1.2177,-1.2441,-1.2572,-1.2375,-1.2309,-1.2243,-1.2045,-1.2045,-1.2177,-1.1978,-1.2045,-1.2045,-1.1912,-1.1516,-1.1314,-1.1185,-1.1118,-1.085,-1.092,-1.0784,-1.0784,-1.0916,-1.0853,-1.0721,-1.0721,-1.0721,-1.0721,-1.0721,-1.0721,-1.0721,-1.0721,-1.07,-1.0687,-1.0677,-1.0666,-1.0656,-1.0646,-1.0639,-1.0646,-1.0653,-1.0649,-1.0656,-1.0666,-1.0663,-1.068,-1.0694,-1.0697,-1.07,-1.07,-1.0683,-1.0673,-1.066,-1.069,-1.0711,-1.0721,-1.0721,-1.0717,-1.069,-1.069,-1.0717,-1.0714,-1.0711,-1.0704,-1.068,-1.0663,-1.0612,-1.0585,-1.0521,-1.0473,-1.0368,-1.0263,-1.0212,-1.0141,-1.0005,-0.9917,-0.9846,-0.9822,-0.9825,-0.9822,-0.9822,-0.9819,-0.9819,-0.9819,-0.9819,-0.9819,-0.9819,-0.9819,-0.9819,-0.9819,-0.9819,-0.9819,-0.9819,-0.9819,-0.9819,-0.9819,-0.9819,-0.9815,-0.9819,-0.9819,-0.9819,-0.9808,-0.9819,-0.9819,-0.9819,-1.0382,-1.0436,-1.0531,-1.0568,-1.0585,-1.0677,-1.0721,-1.0721,-1.092,-1.1185,-1.1446,-1.1776,-1.1978,-1.2045,-1.2045,-1.1978,-1.1912,-1.1912,-1.1916,-1.1912,-1.1582,-1.1714,-1.1714,-1.1449,-1.1115,-1.1115,-1.0986,-1.0853,-1.0717,-1.0721,-1.0721,-1.0721,-1.0721,-1.0721,-1.0721,-1.0721,-1.0721,-1.0721,-1.0721,-1.0721,-1.0721,-1.0721,-1.0721,-1.0721,-1.0721,-1.0721,-1.0721,-1.0721,-1.0721,-1.0721,-1.0721,-1.0721,-1.0721,-1.0721,-1.0721,-1.0721,-1.0721,-1.0721,-1.0721,-1.0714,-1.0717,-1.0721,-1.0721,-1.0721,-1.0721,-1.0721,-1.0721,-1.0721,-1.0721,-1.0721,-1.0717,-1.0717,-1.0717,-1.0717,-1.0704,-1.0704,-1.068,-1.067,-1.0639,-1.0602,-1.0524,-1.0382,-1.0297,-1.027,-1.0158,-1.0046,-0.9978,-0.9876,-0.9849,-0.9832,-0.9825,-0.9822,-0.9819,-0.9819,-0.9819,-0.9819,-0.9819,-0.9819,-0.9819,-0.9819,-0.9819,-0.9819,-0.9819,-0.9819,-0.9819,-0.9819,-0.9819,-0.9819,-0.9819,-0.9819,-0.9819,-0.9819,-0.9819,-0.9819,-0.9819,-1.0232,-1.029,-1.0378,-1.0446,-1.051,-1.0653,-1.0721,-1.0721,-1.092,-1.1052,-1.1247,-1.1512,-1.171,-1.1714,-1.1648,-1.1578,-1.1582,-1.1449,-1.1582,-1.1516,-1.1185,-1.1314,-1.1251,-1.1052,-1.092,-1.092,-1.0853,-1.0721,-1.0721,-1.0721,-1.0721,-1.0721,-1.0721,-1.0721,-1.0721,-1.0721,-1.0721,-1.0721,-1.0721,-1.0721,-1.0721,-1.0721,-1.0721,-1.0721,-1.0721,-1.0721,-1.0721,-1.0721,-1.0721,-1.0721,-1.0721,-1.0721,-1.0721,-1.0721,-1.0721,-1.0721,-1.0721,-1.0721,-1.0721,-1.0721,-1.0721,-1.0721,-1.0721,-1.0721,-1.0721,-1.0721,-1.0721,-1.0721,-1.0721,-1.0721,-1.0721,-1.0721,-1.0721,-1.0721,-1.0721,-1.0721,-1.0717,-1.0704,-1.07,-1.067,-1.0643,-1.0504,-1.0392,-1.0361,-1.0314,-1.0212,-1.0114,-1.0012,-0.9914,-0.9886,-0.9802,-0.9842,-0.9829,-0.9819,-0.9819,-0.9819,-0.9819,-0.9819,-0.9819,-0.9819,-0.9819,-0.9819,-0.9819,-0.9819,-0.9819,-0.9819,-0.9819,-0.9819,-0.9819,-0.9819,-0.9819,-0.9819,-0.9819,-0.9819,-0.9819,-1.0127,-1.0259,-1.0273,-1.0348,-1.0483,-1.0609,-1.069,-1.0717,-1.0721,-1.092,-1.1181,-1.1181,-1.1314,-1.1582,-1.1317,-1.1181,-1.1181,-1.092,-1.0986,-1.1052,-1.092,-1.1052,-1.0982,-1.085,-1.0787,-1.0721,-1.0721,-1.0721,-1.0721,-1.0721,-1.0721,-1.0721,-1.0721,-1.0721,-1.0721,-1.0721,-1.0721,-1.0721,-1.0721,-1.0721,-1.0721,-1.0721,-1.0721,-1.0721,-1.0721,-1.0721,-1.0721,-1.0721,-1.0721,-1.0721,-1.0721,-1.0721,-1.0721,-1.0721,-1.0721,-1.0721,-1.0721,-1.0721,-1.0721,-1.0721,-1.0721,-1.0721,-1.0721,-1.0721,-1.0721,-1.0721,-1.0721,-1.0721,-1.0721,-1.0721,-1.0721,-1.0721,-1.0721,-1.0721,-1.0721,-1.0721,-1.0721,-1.0717,-1.0717,-1.0707,-1.0707,-1.0626,-1.0538,-1.0493,-1.0463,-1.0422,-1.0334,-1.0249,-1.0141,-0.994,-0.9899,-0.9815,-0.9856,-0.9825,-0.9819,-0.9819,-0.9819,-0.9819,-0.9819,-0.9819,-0.9819,-0.9819,-0.9819,-0.9819,-0.9819,-0.9819,-0.9819,-0.9819,-0.9819,-0.9819,-0.9819,-0.9819,-0.9819,-0.9819,-0.9819,-0.9852,-0.9964,-1.007,-1.0141,-1.0132,-1.0344,-1.0521,-1.0704,-1.0721,-1.0784,-1.085,-1.085,-1.0982,-1.0986,-1.085,-1.085,-1.0787,-1.0787,-1.0787,-1.0787,-1.0787,-1.0787,-1.0787,-1.0784,-1.0721,-1.0721,-1.0721,-1.0721,-1.0721,-1.0721,-1.0721,-1.0721,-1.0721,-1.0721,-1.0721,-1.0721,-1.0721,-1.0721,-1.0721,-1.0721,-1.0721,-1.0721,-1.0721,-1.0721,-1.0721,-1.0721,-1.0721,-1.0721,-1.0721,-1.0721,-1.0721,-1.0721,-1.0721,-1.0721,-1.0721,-1.0721,-1.0721,-1.0721,-1.0721,-1.0721,-1.0721,-1.0721,-1.0721,-1.0721,-1.0721,-1.0721,-1.0721,-1.0721,-1.0721,-1.0721,-1.0707,-1.07,-1.069,-1.068,-1.068,-1.068,-1.0683,-1.0707,-1.0711,-1.0721,-1.0721,-1.0704,-1.0626,-1.0622,-1.0599,-1.0595,-1.0555,-1.0466,-1.0361,-1.0152,-0.999,-0.9899,-0.9835,-0.9805,-0.9829,-0.9819,-0.9819,-0.9819,-0.9819,-0.9819,-0.9819,-0.9819,-0.9819,-0.9819,-0.9819,-0.9819,-0.9819,-0.9819,-0.9819,-0.9819,-0.9815,-0.9819,-0.9819,-0.9819,-0.9819,-0.9819,-0.9836,-0.9856,-0.993,-1.0007,-1.0215,-1.0392,-1.0541,-1.0605,-1.0656,-1.0717,-1.0717,-1.0721,-1.0721,-1.0721,-1.0721,-1.0721,-1.0721,-1.0721,-1.0721,-1.0721,-1.0721,-1.0721,-1.0721,-1.0721,-1.0721,-1.0721,-1.0721,-1.0721,-1.0721,-1.0721,-1.0721,-1.0721,-1.0721,-1.0721,-1.0721,-1.0721,-1.0721,-1.0721,-1.0721,-1.0721,-1.0721,-1.0721,-1.0721,-1.0721,-1.0721,-1.0721,-1.0721,-1.0721,-1.0721,-1.0721,-1.0721,-1.0721,-1.0721,-1.0721,-1.0721,-1.0721,-1.0721,-1.0721,-1.0721,-1.0721,-1.0721,-1.0721,-1.0721,-1.0721,-1.0721,-1.0721,-1.0721,-1.0721,-1.0714,-1.0694,-1.0673,-1.0649,-1.0626,-1.0626,-1.0626,-1.0653,-1.0687,-1.0704,-1.0717,-1.0721,-1.0721,-1.0711,-1.0721,-1.0714,-1.0683,-1.0663,-1.0629,-1.0527,-1.0405,-1.0139,-0.9974,-0.9906,-0.9856,-0.9812,-0.9832,-0.9819,-0.9819,-0.9819,-0.9819,-0.9819,-0.9812,-0.9805,-0.9812,-0.9819,-0.9795,-0.9751,-0.9802,-0.9815,-0.9808,-0.9805,-0.9819,-0.9819,-0.9819,-0.9819,-0.9819,-0.9819,-0.9822,-0.9842,-0.998,-1.0168,-1.0243,-1.0276,-1.0395,-1.0534,-1.0646,-1.069,-1.0683,-1.0673,-1.07,-1.0717,-1.0721,-1.0721,-1.0721,-1.0721,-1.0721,-1.0721,-1.0721,-1.0721,-1.0721,-1.0721,-1.0721,-1.0721,-1.0721,-1.0721,-1.0721,-1.0721,-1.0721,-1.0721,-1.0721,-1.0721,-1.0721,-1.0721,-1.0721,-1.0721,-1.0721,-1.0721,-1.0721,-1.0721,-1.0721,-1.0721,-1.0721,-1.0721,-1.0721,-1.0721,-1.0721,-1.0721,-1.0721,-1.0721,-1.0721,-1.0721,-1.0721,-1.0721,-1.0721,-1.0721,-1.0721,-1.0721,-1.0721,-1.0721,-1.0721,-1.0721,-1.0721,-1.0721,-1.0721,-1.0673,-1.0643,-1.0588,-1.0551,-1.0531,-1.0521,-1.0538,-1.0571,-1.0633,-1.0711,-1.0721,-1.0721,-1.0721,-1.0721,-1.0721,-1.0721,-1.0721,-1.0717,-1.0707,-1.066,-1.0551,-1.0388,-1.0098,-0.998,-0.9913,-0.9849,-0.9869,-0.9829,-0.9819,-0.9822,-0.9819,-0.9819,-0.9805,-0.9788,-0.973,-0.9659,-0.968,-0.9669,-0.972,-0.9758,-0.9758,-0.9768,-0.9808,-0.9819,-0.9819,-0.9819,-0.9819,-0.9819,-0.9819,-0.9781,-0.9876,-0.9914,-1.0002,-1.0103,-1.0137,-1.0246,-1.0385,-1.049,-1.0544,-1.0558,-1.0663,-1.07,-1.0704,-1.0714,-1.0717,-1.0721,-1.0721,-1.0721,-1.0721,-1.0721,-1.0721,-1.0721,-1.0721,-1.0721,-1.0721,-1.0721,-1.0721,-1.0721,-1.0721,-1.0721,-1.0721,-1.0721,-1.0721,-1.0721,-1.0721,-1.0721,-1.0721,-1.0721,-1.0721,-1.0721,-1.0721,-1.0721,-1.0721,-1.0721,-1.0721,-1.0721,-1.0721,-1.0721,-1.0721,-1.0721,-1.0721,-1.0721,-1.0721,-1.0721,-1.0721,-1.0721,-1.0721,-1.0721,-1.0721,-1.0721,-1.0721,-1.0721,-1.0721,-1.0721,-1.069,-1.0636,-1.0575,-1.051,-1.0443,-1.0419,-1.0422,-1.0453,-1.049,-1.0602,-1.0711,-1.0721,-1.0721,-1.0721,-1.0721,-1.0721,-1.0721,-1.0721,-1.0721,-1.0717,-1.0714,-1.0646,-1.0578,-1.0371,-1.0078,-0.9984,-0.9985,-0.992,-0.989,-0.9846,-0.9836,-0.9829,-0.9822,-0.9785,-0.9741,-0.9557,-0.9466,-0.9561,-0.9632,-0.9632,-0.9663,-0.9693,-0.9758,-0.9808,-0.9819,-0.9819,-0.9819,-0.9819,-0.9819,-0.9819,-0.9819,-0.9819,-0.9819,-0.9869,-0.9876,-0.9886,-0.9995,-1.0107,-1.0287,-1.0399,-1.0419,-1.0555,-1.0626,-1.0636,-1.0697,-1.0711,-1.0721,-1.0721,-1.0721,-1.0721,-1.0721,-1.0721,-1.0721,-1.0721,-1.0721,-1.0721,-1.0721,-1.0721,-1.0721,-1.0721,-1.0721,-1.0721,-1.0721,-1.0721,-1.0721,-1.0721,-1.0721,-1.0721,-1.0721,-1.0721,-1.0721,-1.0721,-1.0721,-1.0721,-1.0721,-1.0721,-1.0721,-1.0721,-1.0721,-1.0721,-1.0721,-1.0721,-1.0721,-1.0721,-1.0721,-1.0714,-1.0711,-1.0711,-1.0717,-1.0721,-1.0721,-1.0721,-1.0721,-1.0721,-1.0711,-1.0609,-1.0548,-1.0466,-1.0395,-1.0273,-1.0212,-1.0317,-1.0409,-1.0524,-1.0666,-1.0717,-1.0721,-1.0721,-1.0721,-1.0721,-1.0721,-1.0721,-1.0721,-1.0721,-1.0721,-1.0721,-1.0721,-1.066,-1.0575,-1.0344,-1.0198,-1.0148,-1.0056,-0.9899,-0.9914,-0.988,-0.9829,-0.9808,-0.9758,-0.9676,-0.9568,-0.9523,-0.9595,-0.9642,-0.9635,-0.9632,-0.9666,-0.9741,-0.9819,-0.9819,-0.9819,-0.9819,-0.9819,-0.9819,-0.9819,-0.9819,-0.9819,-0.9819,-0.9825,-0.9825,-0.9825,-0.9825,-0.9873,-1.011,-1.0212,-1.0293,-1.0395,-1.0449,-1.0517,-1.0609,-1.0663,-1.0717,-1.0721,-1.0721,-1.0721,-1.0721,-1.0721,-1.0721,-1.0721,-1.0721,-1.0721,-1.0721,-1.0721,-1.0721,-1.0721,-1.0721,-1.0721,-1.0721,-1.0721,-1.0721,-1.0721,-1.0721,-1.0721,-1.0721,-1.0721,-1.0721,-1.0721,-1.0721,-1.0721,-1.0721,-1.0721,-1.0721,-1.0721,-1.0721,-1.0721,-1.0717,-1.0683,-1.0677,-1.0653,-1.066,-1.0666,-1.066,-1.0687,-1.0711,-1.0717,-1.0721,-1.0721,-1.0714,-1.0714,-1.0663,-1.0565,-1.0456,-1.0375,-1.0266,-1.0141,-1.0083,-1.0226,-1.0405,-1.0568,-1.0707,-1.0717,-1.0721,-1.0721,-1.0721,-1.0721,-1.0721,-1.0721,-1.0721,-1.0721,-1.0721,-1.0721,-1.0721,-1.0694,-1.066,-1.0548,-1.0422,-1.0324,-1.0198,-1.008,-1.0039,-0.9998,-0.989,-0.9788,-0.9717,-0.9676,-0.9669,-0.9652,-0.9622,-0.9649,-0.9663,-0.9659,-0.9669,-0.9741,-0.9819,-0.9819,-0.9819,-0.9819,-0.9819,-0.9819,-0.9819,-0.9819,-0.9819,-0.9819,-0.9819,-0.9819,-0.9819,-0.9819,-0.9839,-0.9866,-0.9968,-1.01,-1.0253,-1.0348,-1.0429,-1.0524,-1.0629,-1.07,-1.0711,-1.0717,-1.0721,-1.0721,-1.0721,-1.0721,-1.0721,-1.0721,-1.0721,-1.0721,-1.0721,-1.0721,-1.0721,-1.0721,-1.0721,-1.0721,-1.0721,-1.0721,-1.0721,-1.0721,-1.0721,-1.0721,-1.0721,-1.0721,-1.0721,-1.0721,-1.0721,-1.0721,-1.0721,-1.0721,-1.0721,-1.0721,-1.0711,-1.0697,-1.0646,-1.0595,-1.0571,-1.0568,-1.0571,-1.0595,-1.0633,-1.0714,-1.0721,-1.0721,-1.0714,-1.0697,-1.0687,-1.066,-1.0555,-1.0415,-1.0314,-1.0178,-0.9994,-1.0076,-1.0168,-1.0422,-1.0636,-1.0694,-1.0717,-1.0721,-1.0721,-1.0721,-1.0721,-1.0721,-1.0721,-1.0721,-1.0721,-1.0721,-1.0721,-1.0721,-1.0721,-1.0697,-1.0673,-1.0599,-1.0477,-1.0337,-1.0226,-1.0181,-1.0097,-0.9958,-0.9815,-0.9666,-0.9632,-0.9673,-0.9608,-0.954,-0.9581,-0.9703,-0.972,-0.9737,-0.9778,-0.9819,-0.9819,-0.9819,-0.9819]}]]